[[{"header":{"parameterUnit":"m.s-1","parameterCategory":1,"la1":30.6,"la2":28.766,"lo1":-90.7593,"lo2":-88.6598,"dy":0.0162,"dx":0.0183,"nx":116,"ny":114,"refTime":"2023-11-20T06:00:00:Z","depth":0,"parameterNumber":2,"parameterNumberName":"U-component_of_WINDS"},"data":[0.0,0.0,0.0,0.0,0.0,0.0,0.0,0.0,0.0,0.0,0.0,0.0,0.0,0.0,0.0,0.0,0.0,0.0,0.0,0.0,0.0,0.0,0.0,0.0,0.0,0.0,0.0,0.0,0.0,0.0,0.0,0.0,0.0,0.0,0.0,0.0,0.0,0.0,0.0,0.0,0.0,0.0,0.0,0.0,0.0,0.0,0.0,0.0,0.0,0.0,0.0,0.0,0.0,0.0,0.0,0.0,0.0,0.0,0.0,0.0,0.0,0.0,0.0,0.0,0.0,0.0,0.0,0.0,0.0,0.0,0.0,0.0,0.0,0.0,0.0,0.0,0.0,0.0,0.0,0.0,0.0,0.0,0.0,0.0,0.0,0.0,0.0,0.0,0.0,0.0,0.0,0.0,0.0,0.0,0.0,0.0,0.0,0.0,0.0,0.0,0.0,0.0,0.0,0.0,0.0,0.0,0.0,0.0,0.0,0.0,0.0,0.0,0.0,0.0,0.0,0.0,0.0,0.0,0.0,0.0,0.0,0.0,0.0,0.0,0.0,0.0,0.0,0.0,0.0,0.0,0.0,0.0,0.0,0.0,0.0,0.0,0.0,0.0,0.0,0.0,0.0,0.0,0.0,0.0,0.0,0.0,0.0,0.0,0.0,0.0,0.0,0.0,0.0,0.0,0.0,0.0,0.0,0.0,0.0,0.0,0.0,0.0,0.0,0.0,0.0,0.0,0.0,0.0,0.0,0.0,0.0,0.0,0.0,0.0,0.0,0.0,0.0,0.0,0.0,0.0,0.0,0.0,0.0,0.0,0.0,0.0,0.0,0.0,0.0,0.0,0.0,0.0,0.0,0.0,0.0,0.0,0.0,0.0,0.0,0.0,0.0,0.0,0.0,0.0,0.0,0.0,0.0,0.0,0.0,0.0,0.0,0.0,0.0,0.0,0.0,0.0,0.0,0.0,0.0,0.0,0.0,0.0,0.0,0.0,0.0,0.0,0.0,0.0,0.0,0.0,0.0,0.0,0.0,0.0,0.0,0.0,0.0,0.0,0.0,0.0,0.0,0.0,0.0,0.0,0.0,0.0,0.0,0.0,0.0,0.0,0.0,0.0,0.0,0.0,0.0,0.0,0.0,0.0,0.0,0.0,0.0,0.0,0.0,0.0,0.0,0.0,0.0,0.0,0.0,0.0,0.0,0.0,0.0,0.0,0.0,0.0,0.0,0.0,0.0,0.0,0.0,0.0,0.0,0.0,0.0,0.0,0.0,0.0,0.0,0.0,0.0,0.0,0.0,0.0,0.0,0.0,0.0,0.0,0.0,0.0,0.0,0.0,0.0,0.0,0.0,0.0,0.0,0.0,0.0,0.0,0.0,0.0,0.0,0.0,0.0,0.0,0.0,0.0,0.0,0.0,0.0,0.0,0.0,0.0,0.0,0.0,0.0,0.0,0.0,0.0,0.0,0.0,0.0,0.0,0.0,0.0,0.0,0.0,0.0,0.0,0.0,0.0,0.0,0.0,0.0,0.0,0.0,0.0,0.0,0.0,0.0,0.0,0.0,0.0,0.0,0.0,0.0,0.0,0.0,0.0,0.0,0.0,0.0,0.0,0.0,0.0,0.0,0.0,0.0,0.0,0.0,0.0,0.0,0.0,0.0,0.0,0.0,0.0,0.0,0.0,0.0,0.0,0.0,0.0,0.0,0.0,0.0,0.0,0.0,0.0,0.0,0.0,0.0,0.0,0.0,0.0,0.0,0.0,0.0,0.0,0.0,0.0,0.0,0.0,0.0,0.0,0.0,0.0,0.0,0.0,0.0,0.0,0.0,0.0,0.0,0.0,0.0,0.0,0.0,0.0,0.0,0.0,0.0,0.0,0.0,0.0,0.0,0.0,0.0,0.0,0.0,0.0,0.0,0.0,0.0,0.0,0.0,0.0,0.0,0.0,0.0,0.0,0.0,0.0,0.0,0.0,0.0,0.0,0.0,0.0,0.0,0.0,0.0,0.0,0.0,0.0,0.0,0.0,0.0,0.0,0.0,0.0,0.0,0.0,0.0,0.0,0.0,0.0,0.0,0.0,0.0,0.0,0.0,0.0,0.0,0.0,0.0,0.0,0.0,0.0,0.0,0.0,0.0,0.0,0.0,0.0,0.0,0.0,0.0,0.0,0.0,0.0,0.0,0.0,0.0,0.0,0.0,0.0,0.0,0.0,0.0,0.0,0.0,0.0,0.0,0.0,0.0,0.0,0.0,0.0,0.0,0.0,0.0,0.0,0.0,0.0,0.0,0.0,0.0,0.0,0.0,0.0,0.0,0.0,0.0,0.0,0.0,0.0,0.0,0.0,0.0,0.0,0.0,0.0,0.0,0.0,0.0,0.0,0.0,0.0,0.0,0.0,0.0,0.0,0.0,0.0,0.0,0.0,0.0,0.0,0.0,0.0,0.0,0.0,0.0,0.0,0.0,0.0,0.0,0.0,0.0,0.0,0.0,0.0,0.0,0.0,0.0,0.0,0.0,0.0,0.0,0.0,0.0,0.0,0.0,0.0,0.0,0.0,0.0,0.0,0.0,0.0,0.0,0.0,0.0,0.0,0.0,0.0,0.0,0.0,0.0,0.0,0.0,0.0,0.0,0.0,0.0,0.0,0.0,0.0,0.0,0.0,0.0,0.0,0.0,0.0,0.0,0.0,0.0,0.0,0.0,0.0,0.0,0.0,0.0,0.0,0.0,0.0,0.0,0.0,0.0,0.0,0.0,0.0,0.0,0.0,0.0,0.0,0.0,0.0,0.0,0.0,0.0,0.0,0.0,0.0,0.0,0.0,0.0,0.0,0.0,0.0,0.0,0.0,0.0,0.0,0.0,0.0,0.0,0.0,0.0,0.0,0.0,0.0,0.0,0.0,0.0,0.0,0.0,0.0,0.0,0.0,0.0,0.0,0.0,0.0,0.0,0.0,0.0,0.0,0.0,0.0,0.0,0.0,0.0,0.0,0.0,0.0,0.0,0.0,0.0,0.0,0.0,0.0,0.0,0.0,0.0,0.0,0.0,0.0,0.0,0.0,0.0,0.0,0.0,0.0,0.0,0.0,0.0,0.0,0.0,0.0,0.0,0.0,0.0,0.0,0.0,0.0,0.0,0.0,0.0,0.0,0.0,0.0,0.0,0.0,0.0,0.0,0.0,0.0,0.0,0.0,0.0,0.0,0.0,0.0,0.0,0.0,0.0,0.0,0.0,0.0,0.0,0.0,0.0,0.0,0.0,0.0,0.0,0.0,0.0,0.0,0.0,0.0,0.0,0.0,0.0,0.0,0.0,0.0,0.0,0.0,0.0,0.0,0.0,0.0,0.0,0.0,0.0,0.0,0.0,0.0,0.0,0.0,0.0,0.0,0.0,0.0,0.0,0.0,0.0,0.0,0.0,0.0,0.0,0.0,0.0,0.0,0.0,0.0,0.0,0.0,0.0,0.0,0.0,0.0,0.0,0.0,0.0,0.0,0.0,0.0,0.0,0.0,0.0,0.0,0.0,0.0,0.0,0.0,0.0,0.0,0.0,0.0,0.0,0.0,0.0,0.0,0.0,0.0,0.0,0.0,0.0,0.0,0.0,0.0,0.0,0.0,0.0,0.0,0.0,0.0,0.0,0.0,0.0,0.0,0.0,0.0,0.0,0.0,0.0,0.0,0.0,0.0,0.0,0.0,0.0,0.0,0.0,0.0,0.0,0.0,0.0,0.0,0.0,0.0,0.0,0.0,0.0,0.0,0.0,0.0,0.0,0.0,0.0,0.0,0.0,0.0,0.0,0.0,0.0,0.0,0.0,0.0,0.0,0.0,0.0,0.0,0.0,0.0,0.0,0.0,0.0,0.0,0.0,0.0,0.0,0.0,0.0,0.0,0.0,0.0,0.0,0.0,0.0,0.0,0.0,0.0,0.0,0.0,0.0,0.0,0.0,0.0,0.0,0.0,0.0,0.0,0.0,0.0,0.0,0.0,0.0,0.0,0.0,0.0,0.0,0.0,0.0,0.0,0.0,0.0,0.0,0.0,0.0,0.0,0.0,0.0,0.0,0.0,0.0,0.0,0.0,0.0,0.0,0.0,0.0,0.0,0.0,0.0,0.0,0.0,0.0,0.0,0.0,0.0,0.0,0.0,0.0,0.0,0.0,0.0,0.0,0.0,0.0,0.0,0.0,0.0,0.0,0.0,0.0,0.0,0.0,0.0,0.0,0.0,0.0,0.0,0.0,0.0,0.0,0.0,0.0,0.0,0.0,0.0,0.0,0.0,0.0,0.0,0.0,0.0,0.0,0.0,0.0,0.0,0.0,0.0,0.0,0.0,0.0,0.0,0.0,0.0,0.0,0.0,0.0,0.0,0.0,0.0,0.0,0.0,0.0,0.0,0.0,0.0,0.0,0.0,0.0,0.0,0.0,0.0,0.0,0.0,0.0,0.0,0.0,0.0,0.0,0.0,0.0,0.0,0.0,0.0,0.0,0.0,0.0,0.0,0.0,0.0,0.0,0.0,0.0,0.0,0.0,0.0,0.0,0.0,0.0,0.0,0.0,0.0,0.0,0.0,0.0,0.0,0.0,0.0,0.0,0.0,0.0,0.0,0.0,0.0,0.0,0.0,0.0,0.0,0.0,0.0,0.0,0.0,0.0,0.0,0.0,0.0,0.0,0.0,0.0,0.0,0.0,0.0,0.0,0.0,0.0,0.0,0.0,0.0,0.0,0.0,0.0,0.0,0.0,0.0,0.0,0.0,0.0,0.0,0.0,0.0,0.0,0.0,0.0,0.0,0.0,0.0,0.0,0.0,0.0,0.0,0.0,0.0,0.0,0.0,0.0,0.0,0.0,0.0,0.0,0.0,0.0,0.0,0.0,0.0,0.0,0.0,0.0,0.0,0.0,0.0,0.0,0.0,0.0,0.0,0.0,0.0,0.0,0.0,0.0,0.0,0.0,0.0,0.0,0.0,0.0,0.0,0.0,0.0,0.0,0.0,0.0,0.0,0.0,0.0,0.0,0.0,0.0,0.0,0.0,0.0,0.0,0.0,0.0,0.0,0.0,0.0,0.0,0.0,0.0,0.0,0.0,0.0,0.0,0.0,0.0,0.0,0.0,0.0,0.0,0.0,0.0,0.0,0.0,0.0,0.0,0.0,0.0,0.0,0.0,0.0,0.0,0.0,0.0,0.0,0.0,0.0,0.0,0.0,0.0,0.0,0.0,0.0,0.0,0.0,0.0,0.0,0.0,0.0,0.0,0.0,0.0,0.0,0.0,0.0,0.0,0.0,0.0,0.0,0.0,0.0,0.0,0.0,0.0,0.0,0.0,0.0,0.0,0.0,0.0,0.0,0.0,0.0,0.0,0.0,0.0,0.0,0.0,0.0,0.0,0.0,0.0,0.0,0.0,0.0,0.0,0.0,0.0,0.0,0.0,0.0,0.0,0.0,0.0,0.0,0.0,0.0,0.0,0.0,0.0,0.0,0.0,0.0,0.0,0.0,0.0,0.0,0.0,0.0,0.0,0.0,0.0,0.0,0.0,0.0,0.0,0.0,0.0,0.0,0.0,0.0,0.0,0.0,0.0,0.0,0.0,0.0,0.0,0.0,0.0,0.0,0.0,0.0,0.0,0.0,0.0,0.0,0.0,0.0,0.0,0.0,0.0,0.0,0.0,0.0,0.0,0.0,0.0,0.0,0.0,0.0,0.0,0.0,0.0,0.0,0.0,0.0,0.0,0.0,0.0,0.0,0.0,0.0,0.0,0.0,0.0,0.0,0.0,0.0,0.0,0.0,0.0,0.0,0.0,0.0,0.0,0.0,0.0,0.0,0.0,0.0,0.0,0.0,0.0,0.0,0.0,0.0,0.0,0.0,0.0,0.0,0.0,0.0,0.0,0.0,0.0,0.0,0.0,0.0,0.0,0.0,0.0,0.0,0.0,0.0,0.0,0.0,0.0,0.0,0.0,0.0,0.0,0.0,0.0,0.0,0.0,0.0,0.0,0.0,0.0,0.0,0.0,0.0,0.0,0.0,0.0,0.0,0.0,0.0,0.0,0.0,0.0,0.0,0.0,0.0,0.0,0.0,0.0,0.0,0.0,0.0,3.2345,0.0,0.0,0.0,0.0,0.0,0.0,0.0,0.0,0.0,0.0,0.0,0.0,0.0,0.0,0.0,0.0,0.0,0.0,0.0,0.0,0.0,0.0,0.0,0.0,0.0,0.0,0.0,0.0,0.0,0.0,0.0,0.0,0.0,0.0,0.0,0.0,0.0,0.0,0.0,0.0,0.0,0.0,0.0,0.0,0.0,0.0,0.0,0.0,0.0,0.0,0.0,0.0,0.0,0.0,0.0,0.0,0.0,0.0,0.0,0.0,0.0,0.0,0.0,0.0,0.0,0.0,0.0,0.0,0.0,0.0,0.0,0.0,0.0,0.0,0.0,0.0,0.0,0.0,0.0,0.0,0.0,0.0,0.0,0.0,0.0,0.0,0.0,0.0,0.0,0.0,0.0,0.0,0.0,0.0,0.0,0.0,0.0,0.0,0.0,0.0,0.0,0.0,0.0,0.0,0.0,0.0,0.0,0.0,0.0,0.0,0.0,0.0,0.0,0.0,0.0,0.0,3.2965,0.0,0.0,0.0,0.0,0.0,0.0,0.0,0.0,0.0,0.0,0.0,0.0,0.0,0.0,0.0,0.0,0.0,0.0,0.0,0.0,0.0,0.0,0.0,0.0,0.0,0.0,2.3821,2.3635,2.3538,2.3085,2.3112,2.3784,2.368,2.3876,2.4381,0.0,0.0,0.0,0.0,0.0,0.0,0.0,0.0,0.0,0.0,0.0,0.0,0.0,0.0,0.0,0.0,0.0,0.0,0.0,0.0,0.0,0.0,0.0,0.0,0.0,0.0,0.0,0.0,0.0,0.0,0.0,0.0,0.0,0.0,0.0,0.0,0.0,0.0,0.0,0.0,0.0,0.0,0.0,0.0,0.0,0.0,0.0,0.0,0.0,0.0,0.0,0.0,0.0,0.0,0.0,0.0,0.0,0.0,0.0,0.0,0.0,0.0,0.0,0.0,0.0,0.0,0.0,0.0,0.0,0.0,0.0,0.0,0.0,3.4163,3.4819,3.5417,3.5523,3.6166,3.7074,3.4702,3.3403,3.2965,0.0,0.0,0.0,0.0,0.0,0.0,0.0,0.0,0.0,0.0,0.0,0.0,0.0,0.0,0.0,0.0,0.0,0.0,0.0,0.0,0.0,0.0,2.3996,2.3842,2.3842,2.3591,2.3399,2.3336,2.3065,2.3159,2.3784,2.4193,2.4306,2.4008,2.4688,0.0,0.0,0.0,0.0,2.9953,2.9902,3.0492,3.1472,2.8565,0.0,0.0,0.0,0.0,0.0,0.0,0.0,0.0,0.0,0.0,0.0,0.0,0.0,0.0,0.0,0.0,0.0,0.0,0.0,0.0,0.0,0.0,0.0,0.0,0.0,0.0,0.0,0.0,0.0,0.0,0.0,0.0,0.0,0.0,0.0,0.0,0.0,0.0,0.0,0.0,0.0,0.0,0.0,2.9825,3.0852,0.0,0.0,0.0,0.0,0.0,0.0,0.0,0.0,0.0,0.0,0.0,0.0,0.0,3.3388,3.3377,3.5141,3.5763,3.5174,3.5871,3.6468,3.6989,3.7018,3.7432,3.8065,3.7123,0.0,3.5701,3.5695,0.0,0.0,0.0,0.0,0.0,0.0,0.0,0.0,0.0,0.0,0.0,0.0,0.0,0.0,0.0,0.0,0.0,0.0,0.0,0.0,0.0,2.4314,2.442,2.442,2.486,2.493,2.4414,2.4531,2.4713,2.4853,2.4495,2.4353,2.4522,2.4596,0.0,0.0,2.8821,3.0474,3.2092,3.2505,3.3012,3.3505,3.1613,3.032,2.9538,2.9538,0.0,0.0,0.0,0.0,0.0,0.0,0.0,0.0,0.0,0.0,0.0,0.0,0.0,0.0,0.0,0.0,0.0,0.0,0.0,0.0,0.0,0.0,0.0,0.0,0.0,0.0,0.0,0.0,0.0,0.0,0.0,0.0,0.0,0.0,0.0,0.0,0.0,0.0,0.0,2.9858,3.0719,3.1218,3.1407,3.146,0.0,0.0,0.0,0.0,0.0,0.0,0.0,0.0,0.0,3.3861,3.5192,3.5688,3.5227,3.72,3.7861,3.7184,3.8262,3.9102,3.9738,3.9738,4.0094,4.0699,4.0405,3.9434,3.7944,3.6532,3.5701,3.5357,0.0,0.0,0.0,0.0,3.5244,3.5663,0.0,0.0,0.0,0.0,0.0,0.0,0.0,0.0,0.0,0.0,0.0,0.0,2.4283,2.4901,2.5315,2.5315,2.6161,2.6342,2.5469,2.5592,2.5673,2.5599,2.4761,2.4522,2.4996,2.5284,0.0,0.0,3.1416,3.2981,3.4475,3.5014,3.5352,3.5506,3.4752,3.3336,3.1415,3.0892,3.0092,0.0,0.0,0.0,0.0,0.0,0.0,0.0,0.0,0.0,0.0,0.0,0.0,0.0,0.0,0.0,0.0,0.0,0.0,0.0,0.0,0.0,0.0,0.0,0.0,0.0,0.0,0.0,0.0,0.0,0.0,0.0,0.0,0.0,0.0,0.0,0.0,0.0,0.0,3.0905,3.1657,3.1657,3.2427,3.2673,0.0,0.0,0.0,0.0,0.0,0.0,3.4414,3.555,3.626,3.6523,3.7742,3.8221,3.7816,3.9445,4.003,3.9568,4.0553,4.1322,4.1863,4.1863,4.214,4.2602,4.2602,4.1722,4.0091,3.7665,3.664,3.6604,3.6239,3.6405,3.682,3.6686,3.7024,3.7481,0.0,0.0,0.0,0.0,0.0,0.0,0.0,0.0,0.0,0.0,0.0,2.4015,2.4527,2.5685,2.6409,2.6409,2.6921,2.6894,2.6018,2.5315,2.5058,2.5321,2.513,2.5064,2.5096,2.715,0.0,3.2239,3.3642,3.5352,3.7307,3.7338,3.7677,3.8276,3.7584,3.6184,3.4166,3.218,3.1318,3.1133,0.0,0.0,0.0,0.0,0.0,0.0,0.0,0.0,0.0,0.0,0.0,0.0,0.0,0.0,0.0,0.0,0.0,0.0,0.0,0.0,0.0,0.0,0.0,0.0,0.0,0.0,0.0,0.0,0.0,0.0,0.0,0.0,0.0,0.0,0.0,0.0,0.0,0.0,0.0,3.2365,3.3566,0.0,0.0,0.0,0.0,3.5229,3.5322,3.5907,3.7215,3.7385,3.7984,3.9261,3.9999,4.0693,4.134,4.2078,4.243,4.2368,4.2479,4.2509,4.2571,4.2571,4.2571,4.2602,4.2602,4.254,4.2294,4.017,3.8493,3.7233,3.7217,3.7569,3.7955,3.7421,3.7598,3.8005,0.0,0.0,0.0,0.0,0.0,0.0,0.0,0.0,0.0,2.4061,2.4304,2.4949,2.6152,2.7296,2.8374,2.9303,2.9893,2.986,2.9076,2.8275,2.7691,2.7356,2.6607,2.6322,2.6578,2.8632,3.0799,3.3029,3.5183,3.7044,3.8598,3.8906,3.9173,3.938,3.8711,3.8317,3.7986,3.5217,3.3258,3.1996,3.152,3.0412,0.0,0.0,0.0,0.0,0.0,0.0,0.0,0.0,0.0,0.0,0.0,0.0,0.0,0.0,0.0,0.0,0.0,0.0,0.0,0.0,0.0,0.0,0.0,0.0,0.0,0.0,0.0,0.0,0.0,0.0,0.0,0.0,0.0,0.0,0.0,0.0,0.0,3.4952,3.5876,0.0,3.6076,3.6261,3.6523,3.6753,3.7584,3.8276,3.8768,3.9647,4.0355,4.0847,4.1925,4.2417,4.2263,4.334,4.3667,4.3236,4.3698,4.3913,4.3913,4.3913,4.3913,4.3913,4.3913,4.3636,4.3205,4.2435,4.103,3.9329,3.8863,3.8573,3.8326,3.8152,3.8449,3.8904,0.0,0.0,0.0,0.0,0.0,0.0,0.0,0.0,0.0,2.3955,2.482,2.5884,2.7086,2.9012,3.0593,3.155,3.1979,3.174,3.0774,2.9566,2.8541,2.7733,2.7326,2.7634,2.8713,3.0751,3.2984,3.5445,3.689,3.8358,3.9868,3.9691,3.971,3.9864,3.944,3.9547,3.996,3.7939,3.5798,3.3737,3.3289,3.2026,3.0368,0.0,0.0,0.0,0.0,0.0,0.0,0.0,0.0,0.0,0.0,0.0,0.0,0.0,0.0,0.0,0.0,0.0,0.0,0.0,0.0,0.0,0.0,0.0,0.0,0.0,0.0,0.0,0.0,0.0,0.0,0.0,0.0,0.0,0.0,0.0,3.6184,3.7061,3.7984,3.843,3.82,3.86,3.8877,3.8877,3.9907,4.0645,4.0878,4.1986,4.2725,4.294,4.4036,4.4529,4.4295,4.4941,4.5176,4.496,4.5176,4.5268,4.5268,4.5268,4.5268,4.5268,4.5268,4.5022,4.4622,4.4622,4.3544,4.1784,4.0891,4.0276,3.9876,3.9876,4.0153,4.0491,0.0,0.0,0.0,0.0,0.0,0.0,0.0,2.3986,2.3732,2.346,2.5242,2.6769,2.7329,3.0705,3.2938,3.2972,3.2938,3.2283,3.0825,2.8823,2.7233,2.6252,2.7254,2.8962,3.1472,3.355,3.6199,3.9504,3.8719,3.9319,4.1124,3.9682,3.9314,3.9872,3.9901,3.9921,3.9971,4.0159,3.8835,3.6506,3.5153,3.372,3.2321,0.0,0.0,0.0,0.0,0.0,0.0,0.0,0.0,0.0,0.0,0.0,0.0,0.0,0.0,0.0,0.0,0.0,0.0,0.0,0.0,0.0,0.0,0.0,0.0,0.0,0.0,0.0,0.0,0.0,0.0,0.0,0.0,0.0,3.6599,3.7738,3.8631,3.8676,3.9845,4.0399,3.9753,4.0922,4.174,4.174,4.2386,4.3033,4.3716,4.4375,4.5022,4.5669,4.6326,4.6973,4.7619,4.7004,4.6973,4.7588,4.6942,4.6603,4.6603,4.6603,4.6603,4.6603,4.6603,4.6603,4.6603,4.6603,4.5834,4.4529,4.3187,4.2633,4.2602,4.2602,4.2602,4.2602,0.0,0.0,0.0,0.0,0.0,0.0,0.0,2.4134,2.3994,2.3742,2.5983,2.8008,2.9057,3.1928,3.3983,3.4535,3.3559,3.2385,3.1136,2.9005,2.7963,2.8393,2.978,3.1712,3.4305,3.5907,3.7539,3.9282,3.9386,3.9663,4.0041,3.948,3.9305,3.9471,3.9913,4.0476,4.105,4.1071,4.0513,3.9467,3.7463,3.5568,3.3813,0.0,0.0,0.0,0.0,0.0,0.0,0.0,0.0,0.0,0.0,0.0,0.0,0.0,0.0,0.0,0.0,0.0,0.0,0.0,0.0,0.0,0.0,0.0,0.0,0.0,0.0,0.0,0.0,0.0,0.0,0.0,0.0,3.923,3.8738,3.9862,4.1278,4.2743,4.3267,4.3587,4.3895,4.4264,4.4695,4.5187,4.5834,4.6511,4.7188,4.7404,4.7588,4.7773,4.7958,4.8142,4.8307,4.8142,4.7896,4.7619,4.7404,4.7065,4.6603,4.6603,4.6603,4.6603,4.6603,4.6603,4.6603,4.6603,4.6388,4.5926,4.4591,4.3464,4.2602,4.2602,4.2602,4.2602,0.0,0.0,0.0,0.0,0.0,0.0,0.0,2.4105,2.4049,2.4111,2.6866,2.9156,3.0141,3.2835,3.4604,3.4742,3.3191,3.1637,3.0372,2.8963,2.8733,2.9958,3.1917,3.4228,3.6832,3.7769,3.897,4.0521,3.976,3.9609,4.0006,3.9519,3.9427,3.9699,4.0296,4.0864,4.1356,4.1686,4.1514,4.0972,4.0196,3.851,3.6386,3.5753,3.5122,3.4414,3.3474,3.3258,3.3183,3.1722,0.0,0.0,0.0,0.0,0.0,0.0,0.0,0.0,0.0,0.0,0.0,0.0,0.0,0.0,0.0,0.0,0.0,0.0,0.0,0.0,0.0,0.0,0.0,0.0,4.0478,4.1955,4.2417,4.3187,4.4141,4.5299,4.5926,4.6296,4.6419,4.6973,4.7342,4.7434,4.8081,4.8512,4.8583,4.8881,4.9066,4.9066,4.9343,4.962,4.9897,4.962,4.9281,4.8912,4.8604,4.8266,4.7896,4.7588,4.7619,0.0,4.7558,4.7434,4.7434,4.7434,4.7281,0.0,0.0,0.0,0.0,0.0,4.411,4.3864,0.0,0.0,0.0,0.0,0.0,0.0,0.0,2.4001,2.4032,2.4534,2.7642,2.9964,3.0395,3.312,3.4673,3.4017,3.2115,3.0383,2.9044,2.8827,2.9564,3.1376,3.389,3.6427,3.9015,3.938,4.0416,4.2187,4.0069,3.9543,4.0544,3.9826,3.978,4.0345,4.0924,4.1195,4.1265,4.2094,4.2077,4.1573,4.2727,4.1742,3.9481,3.9018,3.8477,3.78,3.6461,3.5183,3.4075,3.3244,0.0,0.0,0.0,0.0,0.0,0.0,0.0,0.0,0.0,0.0,0.0,0.0,0.0,0.0,0.0,0.0,0.0,0.0,0.0,0.0,0.0,0.0,0.0,0.0,4.2602,4.4683,4.6542,4.7096,4.7188,4.6973,4.8081,4.8604,4.8019,4.9066,4.9558,4.8983,4.9558,4.9682,4.9076,0.0,0.0,0.0,0.0,5.1221,5.1805,5.1221,5.0882,5.079,5.0205,4.9887,4.9795,4.9066,4.9127,4.9764,4.8943,4.8666,4.8706,4.8614,4.8245,4.765,4.688,4.6603,4.6603,4.6603,4.6203,4.5699,0.0,0.0,0.0,0.0,0.0,0.0,0.0,2.4161,2.4242,2.4557,2.7308,2.9156,2.8849,3.1524,3.3283,3.3145,3.0866,2.9221,0.0,0.0,3.0591,3.4164,3.6233,3.8396,4.0699,4.1354,4.1637,4.1484,4.1128,4.0701,4.0267,4.0581,4.0815,4.0951,4.1571,4.1842,4.1869,4.2522,4.2456,4.1976,4.2907,4.2576,4.1496,4.1125,4.0909,4.0632,3.923,3.8891,3.8861,3.7092,3.6415,3.6138,3.5044,0.0,0.0,0.0,0.0,0.0,0.0,0.0,0.0,0.0,0.0,0.0,0.0,0.0,0.0,0.0,0.0,0.0,0.0,0.0,0.0,4.2061,4.4818,4.7157,4.806,5.0143,5.0913,4.9281,4.9805,5.0236,5.0112,5.0328,5.0667,5.1067,5.1221,5.1498,5.1898,5.2052,5.2144,5.2144,5.2267,5.239,5.2513,5.239,5.2052,5.1498,0.0,0.0,5.0482,4.9805,4.9866,5.042,4.9158,4.8943,4.9435,4.885,4.8522,4.8276,4.7065,4.6603,4.6603,4.6603,4.6511,4.6326,0.0,0.0,0.0,0.0,0.0,0.0,0.0,2.4194,2.4288,2.4563,2.6901,2.8388,2.7898,2.9868,3.084,2.9932,2.8245,0.0,0.0,3.0339,3.2877,3.6636,3.8086,3.9923,4.2309,4.142,4.1188,4.1753,4.0848,4.0501,4.0675,4.0951,4.1249,4.1598,4.2168,4.2439,4.2466,4.2765,4.2711,4.2535,4.3449,4.384,4.3897,4.3536,4.3487,4.3464,4.2417,4.1832,4.1291,3.9568,3.8768,3.8262,3.6907,3.5799,3.4814,0.0,0.0,0.0,0.0,0.0,0.0,0.0,0.0,0.0,0.0,0.0,0.0,0.0,0.0,3.8723,0.0,0.0,4.3525,4.488,4.7096,4.9004,5.002,5.1621,5.2082,5.0389,5.1374,5.2082,5.1744,5.1713,5.199,5.2645,5.2676,5.2829,5.3168,5.3199,5.3199,5.3199,5.286,5.2676,5.2676,5.2676,5.2359,5.1713,5.1713,5.1528,5.119,5.0534,5.0574,5.1128,4.9743,4.9343,4.9641,4.8912,4.8583,4.8522,4.7865,4.7619,4.7619,4.7619,4.7404,4.7065,0.0,0.0,0.0,0.0,0.0,0.0,0.0,0.0,2.4298,2.4563,2.633,2.7374,2.6895,2.8032,2.8193,2.6581,2.6257,0.0,0.0,3.2,3.511,3.876,3.9748,4.1216,4.3358,4.1217,4.0689,4.1917,4.0399,4.016,4.1113,4.133,4.1707,4.2195,4.2683,4.2925,4.2925,4.2925,4.2925,4.297,4.3705,4.4615,4.5483,4.5384,4.5524,4.5699,4.4899,4.3648,4.2232,4.1107,4.0091,3.9138,3.82,3.7338,3.6445,3.5229,3.469,0.0,0.0,0.0,0.0,0.0,0.0,0.0,0.0,0.0,3.7461,3.8799,3.9722,4.0847,4.2663,4.4314,4.5895,4.7527,4.9189,5.0667,5.1744,5.2583,5.2614,5.1436,5.2829,5.3691,5.3137,5.3076,5.3322,5.3845,5.3906,5.3845,5.3722,5.3814,5.3845,5.3691,5.3168,5.2891,5.2891,5.279,5.2452,5.1898,5.1898,5.1898,5.1867,5.119,5.1251,5.1836,5.0605,4.9949,4.9651,4.9066,4.8727,4.8583,4.8583,4.8583,4.8583,4.8583,4.8245,4.7773,0.0,0.0,0.0,0.0,0.0,0.0,0.0,0.0,0.0,2.4569,2.5444,2.585,2.5312,2.5998,2.612,2.5279,0.0,0.0,3.0868,3.2993,3.6026,4.0198,4.1495,4.2346,4.2951,4.2287,4.1587,4.0864,4.0881,4.0951,4.1113,4.2195,4.2711,4.2792,4.2846,4.2925,4.2925,4.2925,4.2925,4.2925,4.3018,4.361,4.4563,4.5402,4.6054,4.6326,4.5053,4.3359,4.1678,4.1524,4.0201,3.8676,3.9138,3.8399,3.7246,3.6523,0.0,3.4474,3.432,3.4382,3.4628,3.5229,3.5845,3.6599,0.0,0.0,3.9568,4.097,4.225,4.339,4.4221,4.6449,4.8235,4.843,5.0645,5.2421,5.2575,5.3691,5.4214,5.3445,5.4091,5.4553,5.4491,5.4491,5.4522,5.4583,5.4583,5.4337,5.3722,5.4276,5.4306,5.3722,5.3629,5.3599,5.3599,5.2983,5.2645,5.2606,5.2606,5.2606,5.2575,5.1898,5.1959,5.2553,5.1805,5.079,4.9703,4.9589,4.9189,4.8583,4.8583,4.8583,4.8583,4.8583,4.8553,4.8399,0.0,0.0,0.0,0.0,0.0,0.0,0.0,0.0,0.0,0.0,2.4723,2.4798,2.3977,2.4266,2.4481,0.0,0.0,0.0,3.1046,3.3927,3.7227,4.102,4.2216,4.3033,4.3452,4.2412,4.1642,4.1221,4.1068,4.1223,4.1652,4.2141,4.2548,4.2925,4.2925,4.2925,4.2925,4.3278,4.3223,4.2952,4.3278,4.4133,4.5126,4.4738,4.4944,4.533,4.4344,4.2989,0.0,0.0,3.9784,3.9199,3.9876,3.8891,3.743,3.7153,3.6122,0.0,3.5568,3.566,0.0,0.0,3.7738,3.8631,3.9985,4.1124,4.2263,4.3667,4.4972,4.6357,4.7886,4.9374,5.0667,0.0,5.286,5.3876,5.3876,5.4368,5.446,5.3783,5.4306,5.4706,5.4706,5.4706,5.486,5.5253,5.5284,5.5161,5.4884,5.513,5.5161,5.4884,5.4491,5.4276,5.4276,5.3629,5.3291,5.326,5.2891,5.2676,5.2676,5.2421,5.2236,5.2113,5.1836,5.1159,5.0266,5.0266,4.9866,4.9251,4.9251,4.8974,4.8583,4.8583,4.8583,4.8553,0.0,0.0,0.0,0.0,0.0,0.0,0.0,0.0,0.0,0.0,0.0,2.407,2.3371,2.3536,2.3837,0.0,0.0,0.0,0.0,3.399,3.7385,4.0862,4.2288,4.3267,4.3854,4.2663,4.1995,4.1849,4.1385,4.1457,4.2005,4.2168,4.2466,4.2925,4.2925,4.2925,4.2952,4.3386,4.3305,4.2952,4.3386,4.4065,4.4739,4.3762,4.3294,4.3055,4.2836,4.174,0.0,0.0,3.8553,3.8491,3.9199,3.8399,3.7215,3.7215,3.6553,3.5937,3.6584,0.0,0.0,3.897,4.0016,4.1001,4.2386,4.3759,4.5083,4.6469,4.765,4.8974,5.0667,5.1528,5.2359,5.3506,5.4122,5.4491,5.4676,5.4399,5.3968,5.3476,5.3691,5.3937,5.4122,5.4645,5.5191,5.5653,5.5892,5.5899,5.5715,5.5892,5.5923,5.5708,5.5253,5.4983,5.4983,5.4306,5.3968,5.3968,5.3476,5.3137,5.2953,5.2768,5.2452,5.199,5.199,5.159,5.0974,5.0974,5.0574,4.998,4.9764,4.9374,4.886,4.8613,4.85,4.85,0.0,0.0,0.0,0.0,0.0,0.0,0.0,0.0,0.0,0.0,0.0,0.0,0.0,0.0,0.0,0.0,0.0,0.0,0.0,3.2816,3.5914,3.9408,4.1604,4.3047,4.3796,4.3359,4.2915,4.246,4.1999,4.1869,4.2005,4.2602,4.2873,4.2925,4.2925,4.2925,4.2925,4.2925,4.2925,4.2925,4.2925,4.2712,4.2435,4.2654,4.128,3.9379,4.027,0.0,0.0,0.0,3.6153,3.5753,3.643,3.6584,0.0,3.6523,3.6523,3.6615,0.0,0.0,3.8939,4.1001,4.2497,4.3821,4.5176,4.6511,4.7896,4.9302,5.0134,5.082,5.1528,5.2236,5.2891,5.3599,5.3722,5.3968,5.4614,5.3568,5.2737,5.2737,5.2175,5.2052,0.0,5.4514,5.5684,5.5684,5.6354,5.6447,5.5745,5.6385,5.6447,5.5715,5.5684,5.5653,5.5653,5.4983,5.4676,5.4676,5.4645,5.4306,5.366,5.2983,5.2676,5.2676,5.2676,5.2298,5.1682,5.1682,5.1282,5.0605,4.9949,4.9703,4.9558,4.8651,4.8322,4.8322,0.0,0.0,0.0,0.0,0.0,0.0,0.0,0.0,0.0,0.0,0.0,0.0,0.0,0.0,0.0,0.0,0.0,0.0,0.0,3.2399,3.5236,3.7339,4.083,4.2628,4.2421,4.3205,4.2984,4.1706,4.2074,4.1914,4.1292,4.1984,4.2304,4.2331,4.2711,4.2925,4.2952,4.3332,4.3126,4.2542,4.293,4.3024,4.2693,4.096,3.9928,3.9129,0.0,0.0,0.0,0.0,3.4291,3.4305,3.5476,0.0,3.4537,3.5014,3.5675,3.6629,3.8349,0.0,4.1257,4.2803,4.4397,4.5861,4.6999,4.848,4.9928,5.082,5.0482,5.0236,5.0913,5.0851,5.1067,5.2206,5.3476,5.4306,5.406,5.4029,5.3353,5.159,5.1559,0.0,0.0,0.0,0.0,5.5622,5.5954,5.617,5.6416,5.6686,5.6693,5.6447,5.6416,5.6416,5.6416,5.5715,5.5376,5.5345,5.446,5.3691,5.3014,5.2799,5.2676,5.2676,5.2676,5.2553,5.2359,5.2359,5.1959,5.1344,5.1128,5.0482,4.963,4.9151,4.8584,4.8091,0.0,0.0,0.0,0.0,0.0,0.0,0.0,0.0,0.0,0.0,0.0,0.0,0.0,0.0,0.0,0.0,0.0,0.0,0.0,0.0,3.3085,3.4857,3.7986,3.9739,3.9789,4.0972,4.1071,4.006,4.0523,4.0432,3.9803,4.0185,4.0513,4.073,4.111,4.1571,4.2065,4.2477,4.2139,4.141,4.1783,4.1583,4.0815,3.8787,3.7905,0.0,0.0,0.0,0.0,3.3183,3.3029,3.3183,3.4121,3.396,3.3618,3.4744,3.5713,3.7037,3.9868,4.1434,4.2736,4.4726,4.6088,4.7336,4.8813,4.9831,5.065,5.1217,5.0266,4.9374,4.9558,4.9035,4.9035,5.0389,5.166,5.2645,5.2922,5.2922,5.2452,5.1221,5.1005,5.082,0.0,0.0,0.0,5.4545,5.5284,5.5923,5.6385,5.6662,5.681,5.681,5.681,5.681,5.681,5.6324,5.5954,5.5684,5.4583,5.3691,5.3045,5.2799,5.2676,5.2676,5.2676,5.2676,5.2676,5.2676,5.2385,5.1888,5.1642,5.0831,4.9742,4.9252,4.8541,4.7858,0.0,0.0,0.0,0.0,0.0,0.0,0.0,0.0,0.0,0.0,0.0,0.0,0.0,0.0,0.0,0.0,0.0,0.0,0.0,0.0,0.0,3.2038,3.3462,3.4826,3.6219,3.7063,3.7535,3.7667,3.7558,3.7548,3.7645,3.7449,3.7658,3.8201,3.826,3.9014,4.0313,4.0313,4.0024,3.9571,3.9571,3.8546,3.699,3.6272,0.0,0.0,0.0,0.0,0.0,0.0,0.0,0.0,0.0,3.2923,3.3856,3.5611,3.664,3.7967,4.1665,4.2689,4.3524,4.6593,4.7489,4.8184,5.0306,5.0372,5.0103,5.0437,4.9341,4.8142,0.0,0.0,4.6902,4.8307,4.8676,4.9506,5.1559,5.079,5.0451,0.0,0.0,0.0,0.0,0.0,0.0,5.2645,0.0,5.5684,5.5745,5.6416,5.681,5.681,5.6779,5.6724,5.6724,5.6693,5.6324,5.5592,5.4952,5.4306,5.3629,5.2983,5.2676,5.2676,5.2676,5.2676,5.2676,5.2676,5.2541,5.2245,5.1581,5.0806,4.9924,4.9016,4.8265,4.7662,0.0,0.0,0.0,0.0,0.0,0.0,0.0,0.0,0.0,0.0,0.0,0.0,0.0,0.0,0.0,0.0,0.0,0.0,0.0,0.0,0.0,0.0,0.0,0.0,0.0,0.0,0.0,0.0,0.0,3.601,3.5491,3.5573,3.5656,3.5734,3.6191,3.6879,3.7678,3.7678,3.7691,3.7741,0.0,3.7336,3.6513,0.0,0.0,0.0,0.0,0.0,0.0,0.0,0.0,0.0,0.0,3.3921,3.5183,3.6353,3.8112,4.0241,4.2682,4.4265,4.551,4.6777,4.7401,4.7757,4.8027,4.8407,4.8573,4.8175,4.6299,4.4707,0.0,0.0,0.0,4.7456,4.9968,0.0,5.3722,5.4083,0.0,5.326,0.0,5.2637,5.246,5.2452,0.0,0.0,5.4091,5.5407,5.6447,5.6693,5.681,5.681,5.6262,5.5985,5.5985,5.5499,5.4891,5.4214,5.4029,5.3599,5.2953,5.2768,5.2676,5.2676,5.2676,5.2676,5.2676,5.2495,5.2352,5.2253,5.1949,5.1402,5.0704,5.0246,4.9372,4.8334,0.0,0.0,0.0,0.0,0.0,0.0,0.0,0.0,0.0,0.0,0.0,0.0,0.0,0.0,0.0,0.0,0.0,0.0,0.0,0.0,0.0,0.0,0.0,0.0,0.0,0.0,0.0,0.0,0.0,0.0,0.0,3.3075,3.3141,3.3316,3.365,3.4199,3.4849,3.5393,0.0,0.0,0.0,0.0,0.0,0.0,0.0,0.0,0.0,0.0,0.0,0.0,0.0,3.4463,3.5336,3.6334,3.7686,3.9898,0.0,4.2429,4.5239,4.6311,4.6788,4.7371,4.7354,4.7098,4.6775,4.6645,4.6401,4.5681,4.4207,0.0,0.0,0.0,0.0,0.0,0.0,0.0,5.3137,5.396,5.433,0.0,5.3629,0.0,5.3137,5.286,5.2799,0.0,5.3845,5.4614,5.5376,5.5715,5.5869,5.5869,5.5468,5.5253,5.5253,5.4891,5.4368,5.3691,5.3691,5.3353,5.2676,5.2676,5.2676,5.2676,0.0,5.2631,5.2518,5.2352,5.2193,5.1987,5.188,5.1348,5.063,5.0494,4.9607,4.8443,0.0,0.0,0.0,0.0,0.0,0.0,0.0,0.0,0.0,0.0,0.0,0.0,0.0,0.0,0.0,0.0,0.0,0.0,0.0,0.0,0.0,0.0,0.0,0.0,0.0,0.0,0.0,0.0,0.0,0.0,0.0,0.0,0.0,0.0,0.0,0.0,0.0,0.0,0.0,0.0,0.0,0.0,0.0,0.0,0.0,0.0,0.0,0.0,0.0,0.0,3.5814,3.6261,3.827,3.9595,4.1099,4.4474,4.4865,4.4922,4.8151,4.8252,4.7595,4.7893,4.7106,4.6195,4.5864,4.4984,4.4021,4.323,0.0,4.2137,4.1568,4.205,4.3107,4.4726,0.0,4.9682,5.1929,5.2729,5.3506,5.4706,5.3814,5.3291,5.3783,5.3229,5.3076,5.366,5.3691,5.3753,5.3814,5.4399,5.4676,5.4583,5.4583,5.4522,5.4429,5.4429,5.4153,5.3568,5.3568,5.326,5.2676,5.2676,5.2676,5.2676,5.2653,0.0,5.2306,5.2238,5.1964,5.1595,5.1549,5.1056,5.0315,5.0315,4.9591,4.8536,0.0,0.0,0.0,0.0,0.0,0.0,0.0,0.0,0.0,0.0,2.9327,0.0,0.0,0.0,0.0,0.0,0.0,0.0,0.0,0.0,0.0,0.0,0.0,0.0,0.0,0.0,0.0,0.0,0.0,0.0,0.0,0.0,0.0,0.0,0.0,0.0,0.0,0.0,0.0,0.0,0.0,0.0,0.0,0.0,0.0,0.0,0.0,0.0,0.0,0.0,3.7523,3.8331,4.0275,4.2944,4.5533,4.643,4.7526,4.8521,4.8892,4.8529,4.7839,4.6998,4.5885,4.4807,4.3909,4.2978,0.0,0.0,4.113,4.0758,4.0708,4.1663,4.3447,4.6565,0.0,0.0,0.0,0.0,5.5253,0.0,0.0,0.0,0.0,0.0,0.0,0.0,0.0,5.3937,5.4491,5.4645,5.446,5.3876,5.3876,5.3599,5.3045,5.3045,5.2983,5.286,5.286,5.2799,5.2676,5.2676,5.2676,5.2676,5.2465,0.0,5.2284,5.1872,5.1665,5.1572,5.1369,5.1163,5.1026,5.1026,5.0548,4.98,0.0,0.0,0.0,0.0,0.0,0.0,0.0,0.0,0.0,0.0,2.9629,2.9258,0.0,0.0,0.0,0.0,0.0,0.0,0.0,0.0,0.0,0.0,0.0,0.0,0.0,0.0,0.0,0.0,0.0,0.0,0.0,0.0,0.0,0.0,0.0,0.0,0.0,0.0,0.0,0.0,0.0,0.0,0.0,0.0,0.0,0.0,0.0,0.0,0.0,0.0,3.8122,3.9992,4.2729,4.5222,4.7487,4.94,5.0375,5.0881,5.1187,5.111,5.0386,4.822,4.662,4.509,4.3397,0.0,0.0,0.0,4.0311,4.0469,4.0484,0.0,0.0,0.0,0.0,0.0,0.0,0.0,0.0,0.0,0.0,0.0,0.0,0.0,0.0,0.0,0.0,5.4214,5.4183,5.4183,5.3876,5.3199,5.3168,5.3014,5.2676,5.2676,5.2676,5.2676,5.2676,5.2676,5.2676,5.2676,5.2608,5.2495,5.2352,0.0,5.1918,5.1688,5.1503,5.1393,5.1253,5.1206,5.1206,5.1206,5.0787,5.0136,0.0,0.0,0.0,0.0,0.0,0.0,0.0,3.0289,3.0243,3.0018,2.9875,2.9631,2.9316,2.9176,2.8998,0.0,0.0,0.0,0.0,0.0,0.0,0.0,0.0,0.0,0.0,0.0,0.0,0.0,0.0,0.0,0.0,0.0,0.0,0.0,0.0,0.0,0.0,0.0,0.0,0.0,0.0,0.0,0.0,0.0,0.0,0.0,0.0,0.0,0.0,0.0,3.8015,4.043,4.371,4.6265,4.8573,5.1282,5.2222,5.2602,5.337,5.348,5.2685,4.972,4.7557,4.557,4.3369,4.1354,0.0,0.0,4.0043,4.0505,4.0505,0.0,0.0,0.0,0.0,0.0,0.0,0.0,0.0,0.0,0.0,0.0,0.0,0.0,0.0,0.0,0.0,0.0,5.3753,5.3568,5.3229,5.2729,5.2676,5.2676,5.2676,5.2676,5.2676,5.2676,5.2676,5.2676,5.2676,5.2631,5.2518,5.2306,5.2193,0.0,0.0,5.1526,5.1386,5.1206,5.1206,5.1206,5.1206,5.1206,5.0877,5.0398,0.0,0.0,0.0,0.0,0.0,0.0,0.0,3.0289,3.0243,3.0018,2.9985,3.0082,3.04,3.0328,3.0116,0.0,0.0,0.0,0.0,0.0,0.0,0.0,0.0,0.0,0.0,0.0,0.0,0.0,0.0,0.0,0.0,0.0,0.0,0.0,0.0,0.0,0.0,0.0,0.0,0.0,0.0,0.0,0.0,0.0,0.0,0.0,0.0,0.0,0.0,0.0,0.0,3.8262,4.1063,4.5434,4.9579,4.9866,0.0,0.0,5.4008,5.3726,5.2778,5.0179,4.7565,4.5227,4.3553,0.0,0.0,4.0366,4.047,4.0505,4.0505,4.1137,0.0,0.0,0.0,4.7127,0.0,0.0,0.0,0.0,0.0,0.0,0.0,0.0,0.0,0.0,0.0,0.0,5.3753,5.3106,5.2737,5.2676,5.2676,5.2676,5.2676,5.2676,5.2676,5.2676,5.2676,5.2676,5.2676,5.2442,5.2329,5.2284,5.1849,0.0,0.0,5.1346,5.1229,5.1206,5.1206,5.1206,5.1206,5.1206,5.1146,5.1026,0.0,0.0,0.0,0.0,0.0,0.0,0.0,3.023,3.0209,3.0115,3.0019,2.9965,2.9973,3.0724,3.0917,0.0,0.0,0.0,0.0,0.0,0.0,0.0,0.0,0.0,0.0,0.0,0.0,0.0,0.0,0.0,0.0,0.0,0.0,0.0,0.0,0.0,0.0,0.0,0.0,0.0,0.0,0.0,0.0,0.0,0.0,0.0,0.0,0.0,0.0,0.0,0.0,0.0,3.8185,4.145,0.0,0.0,5.0721,5.3253,5.3386,5.47,5.514,5.138,4.8561,4.6215,4.4455,0.0,3.983,4.0379,4.0505,4.0505,4.0505,4.0737,4.1476,0.0,0.0,0.0,0.0,0.0,0.0,0.0,0.0,0.0,0.0,0.0,0.0,0.0,0.0,0.0,5.4337,5.406,5.3722,5.3322,5.2891,5.2676,5.2676,5.2676,5.2608,5.2442,5.2442,5.2405,5.2276,5.2155,5.204,5.1872,5.1665,0.0,0.0,5.1223,5.1206,5.1206,5.1206,5.1206,5.1206,5.1206,5.1206,5.1146,0.0,0.0,0.0,0.0,0.0,0.0,3.0188,3.0188,3.0188,3.0188,3.0087,2.9985,3.0023,3.1114,3.1425,3.037,0.0,0.0,0.0,0.0,0.0,0.0,0.0,0.0,0.0,0.0,0.0,0.0,0.0,0.0,0.0,0.0,0.0,0.0,0.0,0.0,0.0,0.0,0.0,0.0,0.0,0.0,0.0,0.0,0.0,0.0,0.0,0.0,0.0,0.0,0.0,0.0,0.0,0.0,0.0,0.0,4.8666,5.1927,5.2476,5.4683,5.6008,5.2392,4.9332,4.671,0.0,0.0,3.9831,4.037,4.0505,4.0505,4.0505,4.0505,4.0953,0.0,0.0,4.3156,4.6788,0.0,0.0,0.0,0.0,0.0,0.0,0.0,0.0,0.0,0.0,0.0,5.4429,5.4399,5.4183,5.3722,5.3045,5.2676,5.2676,5.2676,5.2563,5.2306,5.2306,5.217,5.2002,5.1903,5.1787,5.1625,5.1503,0.0,0.0,5.1206,5.1295,5.1498,5.1265,5.1325,5.1475,5.1265,5.1206,5.1206,0.0,0.0,0.0,0.0,0.0,0.0,0.0,3.0188,3.0188,3.0188,3.0188,3.0422,3.1029,3.1647,3.1592,3.0564,0.0,0.0,0.0,0.0,0.0,0.0,0.0,0.0,0.0,0.0,0.0,0.0,0.0,0.0,0.0,0.0,0.0,0.0,0.0,0.0,0.0,0.0,0.0,0.0,0.0,0.0,3.2382,0.0,0.0,0.0,0.0,0.0,0.0,0.0,0.0,0.0,0.0,3.6969,3.8077,0.0,4.5495,5.002,5.1353,5.3199,5.4399,5.3045,4.963,4.6265,0.0,0.0,4.0505,4.0505,4.0505,4.0505,4.0505,4.0505,4.0953,4.2368,4.2584,0.0,4.6234,0.0,0.0,0.0,0.0,0.0,0.0,0.0,0.0,0.0,0.0,0.0,5.3753,5.3722,5.3722,5.3691,5.3045,5.2676,5.2676,5.2676,5.2563,5.2306,5.2306,5.217,5.2002,5.1741,5.1595,0.0,0.0,0.0,0.0,5.1206,5.1588,5.2127,5.1445,5.1618,5.2127,5.1445,5.1206,5.1206,0.0,0.0,0.0,0.0,0.0,0.0,0.0,3.0188,3.0195,3.0213,3.0199,3.044,3.1092,3.1681,3.1826,3.1425,0.0,0.0,0.0,0.0,0.0,0.0,0.0,0.0,0.0,0.0,0.0,0.0,0.0,0.0,0.0,0.0,0.0,0.0,0.0,0.0,0.0,0.0,0.0,0.0,0.0,3.2382,3.2382,0.0,0.0,0.0,0.0,0.0,0.0,0.0,0.0,0.0,0.0,0.0,0.0,3.8415,4.2312,4.6408,4.7281,4.9374,5.0851,4.9004,4.685,4.4899,4.3525,0.0,4.0505,4.0505,4.0505,4.0505,4.0505,4.0505,4.0953,4.2368,4.2602,0.0,0.0,0.0,0.0,0.0,0.0,0.0,0.0,0.0,0.0,0.0,0.0,0.0,5.4368,5.3937,5.3691,5.3691,5.3045,5.2676,5.2676,5.2541,5.2337,5.2086,5.1895,5.1688,5.1439,5.1369,5.1346,0.0,0.0,0.0,0.0,5.1206,5.1325,5.1475,5.1265,5.1325,5.1475,5.1265,5.1206,5.1206,0.0,0.0,0.0,0.0,0.0,0.0,0.0,3.0188,3.0195,3.0213,3.0199,3.0469,3.1249,3.176,3.1904,3.1548,0.0,0.0,0.0,0.0,0.0,0.0,0.0,0.0,0.0,0.0,0.0,0.0,0.0,0.0,0.0,0.0,0.0,0.0,0.0,0.0,0.0,0.0,0.0,0.0,3.2382,3.2382,3.2382,0.0,0.0,0.0,0.0,0.0,0.0,0.0,0.0,0.0,0.0,0.0,0.0,0.0,3.94,4.2343,0.0,4.6469,4.7917,4.685,4.5391,0.0,0.0,0.0,4.0505,4.0505,4.0505,4.0505,4.0505,4.0505,4.0953,4.2368,4.2602,0.0,0.0,0.0,0.0,0.0,0.0,0.0,0.0,0.0,0.0,0.0,0.0,0.0,5.4306,5.3569,5.3154,5.3154,5.2846,5.2653,5.2563,5.2374,5.2147,5.1834,5.1695,5.1486,5.1206,5.1206,5.1206,0.0,0.0,0.0,0.0,5.1206,5.1355,5.1535,5.1295,5.1355,5.1535,5.1295,5.1206,5.1146,0.0,0.0,0.0,0.0,0.0,0.0,0.0,0.0,0.0,0.0,3.0192,3.055,3.1392,3.1825,3.1722,0.0,0.0,0.0,0.0,0.0,0.0,0.0,0.0,0.0,0.0,0.0,0.0,3.0393,3.1166,3.133,3.0964,0.0,0.0,0.0,0.0,0.0,0.0,3.2728,3.2523,3.2427,3.2382,3.2382,0.0,0.0,0.0,0.0,0.0,0.0,0.0,0.0,0.0,0.0,0.0,0.0,0.0,0.0,0.0,0.0,0.0,4.4129,0.0,0.0,0.0,0.0,0.0,0.0,0.0,4.0505,4.0505,4.0505,4.0505,4.0536,4.1014,4.2368,4.2633,0.0,0.0,0.0,0.0,0.0,0.0,0.0,0.0,0.0,0.0,0.0,0.0,0.0,5.3699,5.2795,5.2284,5.2284,5.2518,5.2541,5.2284,5.2261,5.2033,5.1595,5.1572,5.1433,5.1206,5.1236,5.1236,0.0,0.0,0.0,0.0,5.1206,5.1588,5.2067,5.1415,5.1588,5.2067,5.1415,5.1176,5.1026,0.0,0.0,0.0,0.0,0.0,0.0,0.0,0.0,0.0,0.0,3.0223,3.0567,3.1494,3.1337,3.113,0.0,0.0,0.0,0.0,0.0,0.0,0.0,0.0,0.0,0.0,0.0,0.0,2.9425,3.0629,3.1299,3.1429,3.1047,0.0,0.0,0.0,3.258,3.3069,3.2728,3.2582,3.253,3.2441,3.2382,0.0,0.0,0.0,0.0,3.3801,3.436,0.0,0.0,0.0,0.0,0.0,0.0,0.0,0.0,3.6599,3.7061,3.8539,0.0,4.0953,4.1137,4.1199,4.1199,0.0,0.0,0.0,0.0,0.0,4.0505,4.0505,4.0953,4.1617,4.2479,4.3033,4.3636,0.0,0.0,0.0,0.0,0.0,0.0,0.0,0.0,0.0,0.0,0.0,5.2917,5.4166,5.2841,5.2063,5.2063,5.2109,5.2109,5.2063,5.188,5.1711,5.1595,5.1386,5.1276,5.1206,5.1738,5.1708,0.0,0.0,0.0,5.1206,5.1206,5.1295,5.1415,5.1265,5.1295,5.1439,5.1265,5.0877,5.0405,0.0,0.0,0.0,0.0,0.0,0.0,0.0,0.0,0.0,0.0,0.0,0.0,0.0,0.0,0.0,0.0,0.0,0.0,0.0,0.0,0.0,0.0,0.0,0.0,0.0,0.0,0.0,0.0,0.0,3.2492,0.0,0.0,0.0,0.0,0.0,3.2838,3.2998,3.2828,3.2639,3.2485,3.2427,0.0,0.0,0.0,0.0,0.0,3.4449,3.4953,0.0,3.6168,3.6523,3.6523,0.0,0.0,0.0,0.0,3.6523,3.6584,3.6938,3.78,3.8738,3.9353,3.9784,4.0105,0.0,0.0,0.0,0.0,0.0,4.0597,4.0953,4.134,4.1925,4.2879,4.3359,0.0,0.0,0.0,0.0,0.0,0.0,0.0,0.0,0.0,0.0,0.0,0.0,5.2635,5.3694,5.2525,5.181,5.181,5.1695,5.1695,5.181,5.1672,5.1526,5.1409,5.1276,5.1206,5.1206,5.1588,5.1558,0.0,0.0,0.0,5.1206,5.1206,5.1206,5.1206,5.1206,5.1206,5.1146,5.0847,5.0518,5.0106,0.0,0.0,0.0,0.0,0.0,0.0,0.0,0.0,0.0,0.0,0.0,0.0,0.0,0.0,0.0,0.0,0.0,0.0,0.0,0.0,0.0,0.0,0.0,0.0,0.0,0.0,0.0,0.0,0.0,0.0,0.0,0.0,3.3661,0.0,3.3302,3.3261,3.2967,3.2908,3.2739,3.2482,3.241,0.0,0.0,0.0,0.0,0.0,0.0,0.0,0.0,3.6276,3.6523,3.6523,3.6523,0.0,0.0,0.0,0.0,0.0,3.663,3.7123,3.7923,3.9045,3.9507,3.9814,4.0351,0.0,0.0,0.0,0.0,0.0,0.0,0.0,0.0,0.0,0.0,0.0,0.0,0.0,0.0,0.0,0.0,0.0,0.0,0.0,0.0,0.0,0.0,5.1967,5.2685,5.1793,5.1363,5.1526,5.1323,5.1323,5.1526,5.1526,5.1409,5.1206,5.1206,5.1206,5.1206,5.1295,5.1295,5.1206,0.0,0.0,5.1206,5.1206,5.1206,5.1206,5.1206,5.1146,5.0966,5.0405,5.0099,4.974,0.0,0.0,0.0,0.0,0.0,0.0,0.0,0.0,0.0,0.0,0.0,0.0,0.0,0.0,0.0,0.0,0.0,0.0,0.0,0.0,0.0,0.0,0.0,0.0,0.0,0.0,0.0,0.0,0.0,0.0,3.507,3.4182,3.3582,3.3274,3.3747,3.3681,3.3211,3.2985,3.2881,3.2786,3.2509,0.0,0.0,0.0,0.0,0.0,0.0,0.0,0.0,3.6276,3.6523,3.6523,3.6523,0.0,0.0,0.0,0.0,0.0,3.7184,3.7831,3.8399,3.8584,3.9507,4.0351,4.0474,0.0,0.0,0.0,0.0,0.0,0.0,0.0,0.0,0.0,0.0,0.0,0.0,0.0,0.0,0.0,0.0,0.0,0.0,0.0,0.0,0.0,0.0,5.0576,5.1248,5.0422,5.0316,5.1223,5.1229,5.1229,5.1276,5.1276,5.1253,5.1206,5.1206,5.1206,5.1206,5.1798,5.1738,5.1236,0.0,5.1738,5.1206,5.1206,5.1206,5.1206,5.1206,5.0847,5.0338,5.0226,4.9531,4.8454,0.0,0.0,0.0,0.0,0.0,0.0,0.0,0.0,0.0,0.0,0.0,0.0,0.0,0.0,0.0,0.0,0.0,0.0,0.0,0.0,0.0,0.0,0.0,0.0,0.0,0.0,0.0,0.0,0.0,3.5797,3.6558,3.5122,3.4321,3.4093,3.3789,3.3636,3.3546,3.3105,3.2832,3.2708,0.0,0.0,0.0,0.0,0.0,0.0,0.0,0.0,0.0,0.0,3.6523,3.6523,3.6523,0.0,0.0,0.0,0.0,0.0,3.6876,3.7707,3.8584,3.8953,3.9784,4.0505,4.0505,0.0,0.0,0.0,0.0,0.0,0.0,0.0,0.0,0.0,0.0,0.0,0.0,0.0,0.0,0.0,0.0,0.0,0.0,0.0,0.0,0.0,0.0,0.0,5.0189,4.9834,5.01,5.1182,5.1206,5.1206,5.1206,5.1206,5.1206,5.1206,5.1206,5.1206,5.1206,5.1505,5.1475,5.1206,0.0,5.1475,5.1206,5.1206,5.1206,5.1146,5.0817,5.0465,5.0106,4.9275,4.8365,4.7457,0.0,0.0,0.0,0.0,0.0,0.0,0.0,0.0,0.0,0.0,0.0,0.0,0.0,0.0,0.0,0.0,0.0,0.0,0.0,0.0,0.0,0.0,0.0,0.0,0.0,0.0,3.4631,3.564,3.6534,3.7125,3.7358,3.6026,3.5119,3.4611,3.3964,3.3784,3.3977,3.3219,3.3047,3.3225,0.0,0.0,0.0,0.0,0.0,0.0,0.0,0.0,0.0,0.0,0.0,0.0,0.0,0.0,0.0,3.6523,3.6523,3.6584,3.6876,3.7831,3.8891,3.9568,0.0,4.0645,4.1107,0.0,0.0,0.0,0.0,0.0,0.0,0.0,0.0,0.0,0.0,0.0,0.0,0.0,0.0,0.0,0.0,0.0,0.0,0.0,0.0,0.0,0.0,0.0,4.8823,4.8844,4.9464,5.0799,5.0822,5.0941,5.1206,5.1206,5.1206,5.1206,5.1206,5.1206,5.1206,5.1206,5.1206,5.1206,5.1206,5.1116,5.0966,5.1146,5.1116,5.0907,5.0398,5.0039,4.9598,4.8179,4.7303,4.6778,0.0,0.0,0.0,0.0,0.0,0.0,0.0,0.0,0.0,0.0,0.0,0.0,0.0,0.0,0.0,0.0,0.0,0.0,0.0,0.0,0.0,0.0,0.0,0.0,0.0,3.5301,3.6435,3.6615,3.7858,3.763,3.6115,3.6175,3.5471,3.4155,3.453,3.4703,3.4648,3.3412,3.3819,3.5171,3.3852,0.0,0.0,0.0,0.0,0.0,0.0,0.0,0.0,0.0,0.0,0.0,0.0,0.0,3.6523,3.6523,3.6523,3.6753,3.8015,3.8861,3.9599,4.0259,4.0443,0.0,4.2928,0.0,0.0,0.0,0.0,0.0,0.0,0.0,0.0,0.0,0.0,0.0,0.0,0.0,0.0,0.0,0.0,0.0,0.0,0.0,0.0,0.0,0.0,0.0,4.6635,4.6635,4.7587,4.9635,4.9737,5.0196,5.1206,5.1206,5.1206,5.1206,5.1206,5.1206,5.1206,5.1206,5.1206,5.1206,5.1206,5.0847,5.0315,5.0936,5.0847,5.0278,5.0226,4.9471,4.8304,4.7324,4.6807,4.658,0.0,0.0,0.0,0.0,0.0,0.0,0.0,0.0,0.0,0.0,0.0,0.0,0.0,0.0,0.0,0.0,0.0,0.0,0.0,0.0,0.0,0.0,0.0,3.6384,3.5544,3.6816,3.7871,3.8703,3.8744,3.8379,3.7584,3.6199,0.0,0.0,3.4553,3.4589,3.4968,3.475,3.5054,3.5664,3.5438,3.5988,0.0,0.0,0.0,0.0,0.0,0.0,0.0,0.0,3.6523,3.6523,3.6523,3.6523,3.6523,3.6523,3.6523,3.6692,3.7615,3.8676,3.9661,4.032,0.0,0.0,0.0,0.0,0.0,0.0,0.0,0.0,0.0,0.0,0.0,0.0,0.0,0.0,0.0,0.0,0.0,0.0,0.0,0.0,0.0,0.0,0.0,0.0,0.0,0.0,4.6348,4.64,4.7383,4.9513,4.9586,5.0124,5.1206,5.1206,5.1206,5.1206,5.1206,5.1206,5.1206,5.1206,5.1206,5.1206,5.1206,5.1056,5.0847,5.1086,5.1056,5.0757,4.9942,4.8716,4.7346,4.6889,4.6558,4.6314,0.0,0.0,0.0,0.0,0.0,0.0,0.0,0.0,0.0,0.0,0.0,0.0,0.0,0.0,0.0,0.0,0.0,0.0,0.0,0.0,0.0,0.0,0.0,3.7414,3.7161,3.7962,3.8775,3.9617,3.9112,3.8573,3.7943,0.0,0.0,0.0,3.5228,3.5397,3.6202,3.6052,3.6255,3.6646,3.6518,3.6937,0.0,0.0,0.0,0.0,0.0,0.0,0.0,0.0,3.6523,3.6523,3.6523,3.6523,3.6523,3.6523,3.6599,3.6875,3.763,3.8581,3.9654,0.0,0.0,0.0,0.0,0.0,0.0,0.0,0.0,0.0,0.0,0.0,0.0,0.0,0.0,0.0,0.0,0.0,0.0,0.0,0.0,0.0,0.0,0.0,0.0,0.0,0.0,0.0,0.0,4.619,4.7229,4.9018,4.9415,5.0124,5.1206,5.1206,5.1086,5.0877,5.0877,5.0996,5.1206,5.1206,5.1206,5.1176,5.0966,5.0757,5.0601,5.0601,5.0481,5.0189,4.9246,4.8067,4.6887,4.658,4.6358,4.618,0.0,0.0,0.0,0.0,0.0,0.0,0.0,0.0,0.0,0.0,0.0,0.0,0.0,0.0,0.0,0.0,0.0,0.0,0.0,0.0,0.0,0.0,0.0,3.7672,3.7976,3.8722,3.9054,3.9006,3.8869,3.8067,3.6701,3.6451,0.0,0.0,3.6704,3.742,3.8528,3.7242,3.7425,3.837,3.6987,3.7173,3.8251,0.0,0.0,0.0,0.0,0.0,0.0,0.0,3.6523,3.6523,3.6523,3.6523,3.6507,3.6523,3.6842,3.739,3.8258,3.8867,3.9593,0.0,0.0,0.0,0.0,0.0,0.0,0.0,0.0,0.0,0.0,0.0,0.0,0.0,0.0,0.0,0.0,0.0,0.0,0.0,0.0,0.0,0.0,0.0,0.0,0.0,0.0,0.0,0.0,4.5795,4.6893,4.7965,4.9018,5.0124,5.1176,5.1176,5.0847,5.0196,5.0196,5.0548,5.1176,5.1176,5.1176,5.1146,5.0488,4.9853,4.9277,4.9277,4.8887,4.8274,4.8001,4.7496,4.6844,4.6351,4.6202,4.618,0.0,0.0,0.0,0.0,0.0,0.0,0.0,0.0,0.0,0.0,0.0,0.0,0.0,0.0,0.0,0.0,0.0,0.0,0.0,0.0,0.0,0.0,0.0,0.0,0.0,0.0,3.8561,3.9617,3.8984,3.8193,0.0,0.0,0.0,3.6716,0.0,0.0,3.8258,3.8266,3.863,3.9203,3.8377,3.8383,3.8823,0.0,0.0,0.0,0.0,0.0,0.0,0.0,0.0,0.0,3.6523,3.6815,3.706,3.6459,3.7149,3.8133,3.8329,3.9151,0.0,0.0,0.0,0.0,0.0,0.0,0.0,0.0,0.0,0.0,0.0,0.0,0.0,0.0,0.0,0.0,0.0,0.0,0.0,0.0,0.0,0.0,0.0,0.0,0.0,0.0,0.0,0.0,0.0,4.5795,4.6893,4.7965,4.8587,4.9421,5.0495,5.0092,4.9756,4.9576,4.9576,4.9883,5.0488,5.0062,5.0092,5.0458,4.9853,4.9486,4.9277,4.9277,4.8776,4.8023,4.7934,4.7296,4.6403,4.6269,4.6113,4.5978,0.0,0.0,0.0,0.0,0.0,0.0,0.0,0.0,0.0,0.0,0.0,0.0,0.0,0.0,0.0,0.0,0.0,0.0,0.0,0.0,0.0,0.0,0.0,0.0,0.0,3.7242,3.8013,0.0,0.0,0.0,0.0,0.0,0.0,3.7911,0.0,3.8802,0.0,3.9485,3.9602,3.9552,3.889,3.8578,3.8371,0.0,0.0,0.0,0.0,0.0,0.0,0.0,0.0,0.0,3.6461,3.6706,3.6855,3.667,3.7355,3.8238,3.8527,3.9495,0.0,0.0,0.0,0.0,0.0,0.0,0.0,0.0,0.0,0.0,0.0,0.0,0.0,0.0,0.0,0.0,0.0,0.0,0.0,0.0,0.0,0.0,0.0,0.0,0.0,0.0,0.0,0.0,0.0,4.5948,4.7056,4.7965,4.8803,4.9556,5.0196,4.9853,4.9404,4.8887,4.8887,4.9075,4.9441,4.9337,4.9516,4.9823,4.9187,4.8738,4.8498,4.8387,4.8015,4.7473,4.7296,4.6793,4.6202,4.6113,4.6001,4.5917,0.0,0.0,0.0,0.0,0.0,0.0,0.0,0.0,0.0,0.0,0.0,0.0,0.0,0.0,0.0,0.0,0.0,0.0,0.0,0.0,0.0,0.0,0.0,0.0,0.0,0.0,0.0,0.0,0.0,0.0,0.0,0.0,3.8356,3.9709,0.0,4.0227,0.0,4.0704,4.0238,3.9547,3.8817,3.8091,3.7435,3.6821,0.0,0.0,0.0,0.0,0.0,0.0,0.0,0.0,3.6414,3.6349,3.6341,3.6971,3.7505,3.809,3.8849,0.0,0.0,0.0,0.0,0.0,0.0,0.0,0.0,0.0,0.0,0.0,0.0,0.0,0.0,0.0,0.0,0.0,0.0,0.0,0.0,0.0,0.0,0.0,0.0,0.0,0.0,0.0,0.0,0.0,0.0,4.6136,4.7266,4.7822,4.9315,5.0099,5.0016,4.9956,4.9351,4.8229,4.8229,4.8229,4.8229,4.8828,4.9097,4.9067,4.8468,4.7848,4.7287,4.7019,4.6909,4.6844,4.638,4.6202,4.6158,4.5956,4.5917,4.5917,0.0,0.0,0.0,0.0,0.0,0.0,0.0,0.0,0.0,0.0,0.0,0.0,0.0,0.0,0.0,0.0,0.0,0.0,0.0,0.0,0.0,0.0,0.0,0.0,0.0,0.0,0.0,0.0,0.0,0.0,0.0,0.0,0.0,3.9709,0.0,4.0745,4.0859,4.0377,3.994,3.9526,3.8904,3.8423,3.8059,3.7428,3.7199,0.0,0.0,0.0,0.0,0.0,0.0,0.0,3.6305,3.6929,3.7626,3.6968,3.8101,3.9498,3.9544,4.0613,0.0,0.0,0.0,0.0,0.0,0.0,0.0,0.0,0.0,0.0,0.0,0.0,0.0,0.0,0.0,0.0,0.0,0.0,0.0,0.0,0.0,0.0,0.0,0.0,0.0,0.0,0.0,0.0,4.4069,4.5993,4.6897,4.6536,4.843,4.9247,4.8716,4.8207,4.7788,0.0,4.7519,4.7519,4.7519,4.7668,4.7728,4.7728,4.7578,4.7429,4.7287,4.7019,4.6822,4.6624,4.6336,4.6113,4.5956,4.5917,4.5917,4.5917,0.0,0.0,0.0,0.0,0.0,0.0,0.0,0.0,0.0,0.0,0.0,0.0,0.0,0.0,0.0,0.0,0.0,0.0,0.0,0.0,0.0,0.0,0.0,0.0,0.0,0.0,0.0,0.0,0.0,0.0,0.0,0.0,0.0,4.0296,0.0,4.0894,4.0871,4.0561,4.0307,4.0007,3.9375,3.8821,3.829,3.7637,3.7219,3.6925,3.6615,0.0,0.0,0.0,0.0,0.0,0.0,0.0,3.8047,3.7761,3.8538,3.9551,3.9552,0.0,0.0,0.0,0.0,0.0,0.0,0.0,0.0,0.0,0.0,0.0,0.0,0.0,0.0,0.0,0.0,0.0,0.0,0.0,0.0,0.0,0.0,0.0,0.0,0.0,0.0,0.0,0.0,4.3651,4.4172,4.5448,4.6385,4.6814,4.8126,4.8648,4.8319,4.7938,4.7608,4.7309,4.7309,4.7309,4.7309,4.7309,4.7309,4.7309,4.7309,4.7244,4.7084,4.6844,4.6624,4.638,4.6135,4.5978,4.5917,4.5917,4.5917,4.5917,0.0,0.0,0.0,0.0,0.0,0.0,0.0,0.0,0.0,0.0,0.0,0.0,0.0,0.0,0.0,0.0,0.0,0.0,0.0,0.0,0.0,0.0,0.0,0.0,0.0,0.0,0.0,0.0,0.0,0.0,0.0,0.0,0.0,4.0894,0.0,0.0,4.0894,4.0894,4.0719,4.0421,3.9822,3.905,3.8205,3.7625,3.7111,3.6661,3.6661,3.6753,3.6938,3.7492,0.0,0.0,0.0,0.0,3.825,3.8625,3.8918,3.9195,3.9535,0.0,4.4066,0.0,0.0,0.0,0.0,0.0,0.0,0.0,0.0,0.0,0.0,0.0,0.0,0.0,0.0,0.0,0.0,0.0,0.0,0.0,0.0,0.0,0.0,0.0,0.0,0.0,0.0,4.3623,4.4094,4.4792,4.5765,4.6991,4.7842,4.8237,4.8139,4.8139,4.7848,4.7309,4.7309,4.7309,4.7309,4.7309,4.7309,4.7309,4.7266,4.7106,4.6887,4.6624,4.6403,4.618,4.5956,4.5917,4.5917,4.5917,4.5917,4.5917,0.0,0.0,0.0,0.0,0.0,0.0,0.0,0.0,0.0,0.0,0.0,0.0,0.0,0.0,0.0,0.0,0.0,0.0,3.8949,0.0,0.0,3.7317,3.6801,3.6381,0.0,0.0,0.0,0.0,0.0,0.0,0.0,0.0,0.0,4.0894,0.0,0.0,0.0,4.0894,4.0532,3.9884,3.9701,3.8851,3.7671,3.7482,0.0,0.0,0.0,3.7738,3.8262,3.8354,3.8368,0.0,0.0,0.0,3.8888,3.8948,3.9269,3.9732,0.0,0.0,4.5798,0.0,0.0,0.0,0.0,0.0,0.0,0.0,0.0,0.0,0.0,0.0,0.0,0.0,0.0,0.0,0.0,0.0,0.0,0.0,0.0,0.0,0.0,0.0,0.0,0.0,4.2135,4.1897,4.2469,4.4255,4.511,4.4753,4.7055,4.8027,4.7429,4.7429,4.7399,4.7309,4.7309,4.7309,4.7309,4.7309,4.7309,4.7287,4.704,4.6931,4.6887,4.6447,4.6247,4.618,4.5956,4.5917,4.5917,4.5917,4.5917,4.5917,0.0,0.0,0.0,0.0,0.0,0.0,0.0,0.0,0.0,0.0,0.0,0.0,0.0,0.0,0.0,3.7597,3.7237,3.7156,3.7504,3.7665,3.7466,3.6906,3.6571,3.6363,3.6284,0.0,0.0,0.0,0.0,0.0,0.0,4.0817,4.0968,0.0,0.0,0.0,0.0,0.0,0.0,4.0186,3.9393,3.8907,0.0,0.0,0.0,0.0,0.0,0.0,0.0,3.8922,3.9045,3.9087,3.9215,0.0,0.0,0.0,3.9755,0.0,4.1619,4.3191,4.495,0.0,0.0,0.0,0.0,0.0,0.0,0.0,0.0,0.0,0.0,0.0,0.0,0.0,0.0,0.0,0.0,0.0,0.0,0.0,0.0,0.0,0.0,0.0,0.0,0.0,4.1899,4.202,4.2513,4.3922,4.4874,4.5121,4.6815,4.7608,4.7309,4.7309,4.7309,4.7309,4.7309,4.7309,4.7287,4.7127,4.7149,4.7287,4.7019,4.6844,4.6712,4.6358,4.6135,4.6023,4.5911,4.5917,4.5917,4.5917,4.5917,4.5917,0.0,0.0,0.0,0.0,0.0,0.0,0.0,0.0,0.0,0.0,0.0,0.0,0.0,0.0,0.0,0.0,3.6745,3.6724,3.669,3.7252,3.7335,3.6627,3.643,3.6284,3.6284,0.0,0.0,0.0,0.0,0.0,4.1497,4.2052,4.2228,0.0,4.164,0.0,0.0,0.0,0.0,0.0,0.0,0.0,0.0,0.0,0.0,0.0,0.0,0.0,0.0,0.0,0.0,0.0,0.0,0.0,0.0,0.0,0.0,0.0,0.0,0.0,4.3748,4.6297,4.6528,0.0,0.0,0.0,0.0,0.0,0.0,0.0,0.0,0.0,0.0,0.0,0.0,0.0,0.0,0.0,0.0,0.0,0.0,0.0,0.0,0.0,0.0,0.0,4.1716,4.222,4.2771,4.3748,4.4776,4.5779,4.677,4.7309,4.7309,4.7309,4.7309,4.7309,4.7309,4.7266,4.7201,4.6997,4.6975,4.7114,4.6844,4.6646,4.6469,4.6225,4.6023,4.5917,4.5917,4.5917,4.5917,4.5917,4.5917,4.5917,0.0,0.0,0.0,0.0,0.0,0.0,0.0,0.0,0.0,0.0,0.0,0.0,0.0,3.7241,3.7485,3.7434,3.7434,3.7463,3.7426,3.7583,3.762,3.7439,3.671,0.0,3.6284,0.0,0.0,0.0,0.0,0.0,4.309,4.3118,4.3866,4.5111,4.3709,4.3069,4.3034,0.0,0.0,0.0,0.0,0.0,0.0,0.0,0.0,0.0,0.0,0.0,0.0,0.0,0.0,0.0,0.0,0.0,0.0,0.0,0.0,0.0,0.0,4.2247,0.0,4.4509,0.0,0.0,0.0,0.0,0.0,0.0,0.0,0.0,0.0,0.0,0.0,0.0,0.0,0.0,0.0,0.0,0.0,0.0,0.0,0.0,0.0,0.0,0.0,0.0,4.1325,4.1746,4.2744,4.3748,4.4776,4.5779,4.677,4.7309,4.7309,4.7309,4.7309,4.7309,4.7309,4.7149,4.6931,4.6909,4.68,4.6602,4.6358,4.6247,4.6202,4.5978,4.5917,4.5917,4.5917,4.5917,4.5917,4.5917,4.5917,4.5917,0.0,0.0,0.0,0.0,0.0,0.0,0.0,0.0,0.0,0.0,0.0,0.0,0.0,3.6736,3.6714,3.6714,3.6967,3.7098,3.7098,3.7157,3.7388,3.7851,3.736,3.7298,3.7778,0.0,0.0,0.0,0.0,4.0894,4.3184,4.3206,4.4249,4.6068,4.4094,4.3454,4.3802,4.2154,0.0,0.0,0.0,0.0,0.0,0.0,0.0,0.0,0.0,0.0,0.0,0.0,0.0,0.0,0.0,0.0,0.0,0.0,0.0,0.0,0.0,0.0,0.0,4.4168,4.4496,4.442,0.0,0.0,0.0,0.0,0.0,0.0,0.0,0.0,0.0,0.0,0.0,0.0,0.0,0.0,0.0,0.0,0.0,0.0,0.0,0.0,0.0,0.0,0.0,4.172,4.2744,4.3748,4.4776,4.5779,4.677,4.7309,4.7309,4.7309,4.7078,4.6659,4.7078,4.697,4.6316,4.66,4.658,4.6336,4.6113,4.609,4.6202,4.5978,4.5917,4.5917,4.5917,4.5917,4.5917,4.5917,4.5917,4.5917,0.0,0.0,0.0,0.0,0.0,0.0,0.0,0.0,0.0,0.0,0.0,0.0,0.0,0.0,3.6824,3.7074,3.7247,3.7446,3.7658,3.7474,3.767,3.8441,3.808,3.8083,3.8585,0.0,0.0,0.0,0.0,0.0,0.0,0.0,4.4802,4.6885,4.4854,0.0,0.0,0.0,0.0,4.3034,0.0,0.0,4.1404,0.0,0.0,0.0,0.0,0.0,0.0,0.0,0.0,0.0,0.0,0.0,0.0,0.0,0.0,0.0,0.0,0.0,0.0,0.0,0.0,4.3625,0.0,0.0,0.0,0.0,0.0,0.0,0.0,0.0,0.0,0.0,0.0,0.0,0.0,0.0,0.0,0.0,0.0,0.0,0.0,0.0,0.0,0.0,0.0,0.0,4.3249,4.3937,4.4915,4.6255,4.6953,4.7309,4.7309,4.71,4.6719,4.63,4.6446,4.6296,4.5882,4.6078,4.6131,4.609,4.5956,4.5956,4.609,4.5962,4.5917,4.5917,4.5917,4.5917,4.5917,4.5917,4.5917,4.5917,0.0,0.0,0.0,0.0,0.0,0.0,0.0,0.0,0.0,0.0,0.0,0.0,0.0,0.0,0.0,3.8666,3.8437,3.8523,3.9146,3.8586,3.8502,3.9183,3.8831,3.8641,3.8671,0.0,0.0,0.0,0.0,0.0,0.0,0.0,4.5492,0.0,4.6134,4.6307,4.7613,0.0,4.5625,4.412,0.0,4.2461,4.1714,0.0,0.0,0.0,4.2553,4.2171,0.0,0.0,0.0,0.0,0.0,0.0,0.0,0.0,0.0,0.0,0.0,0.0,0.0,0.0,0.0,0.0,4.3032,0.0,4.3624,0.0,0.0,0.0,0.0,0.0,0.0,0.0,0.0,0.0,0.0,0.0,0.0,0.0,0.0,0.0,0.0,0.0,0.0,0.0,4.1374,4.2235,4.4242,4.4382,4.5258,4.7214,4.7279,4.7279,4.7249,4.66,4.6271,4.6241,4.5424,4.5171,4.5534,4.5361,4.5471,4.5859,4.5837,4.5888,4.5888,4.5888,4.5917,4.5917,4.5917,4.5917,4.5917,4.5917,4.5917,4.5917,0.0,0.0,0.0,0.0,0.0,0.0,0.0,0.0,0.0,0.0,0.0,0.0,0.0,0.0,0.0,3.9889,3.9305,3.9008,3.9181,3.8744,3.8799,3.9543,3.946,3.9686,4.0236,0.0,0.0,0.0,0.0,0.0,0.0,0.0,0.0,0.0,4.7028,4.703,4.6873,4.4988,0.0,0.0,4.3865,4.3025,0.0,0.0,0.0,0.0,0.0,4.2078,0.0,0.0,4.1891,4.1711,0.0,0.0,0.0,0.0,0.0,0.0,4.2231,0.0,0.0,0.0,0.0,0.0,4.2872,4.3107,4.3168,0.0,0.0,0.0,0.0,0.0,0.0,0.0,0.0,0.0,0.0,0.0,0.0,0.0,0.0,0.0,0.0,0.0,0.0,0.0,4.3057,4.4031,4.5326,4.6077,4.6497,4.6578,4.657,4.633,4.5843,4.5663,4.5334,4.4865,4.4956,4.4747,4.423,4.4459,4.4566,4.4552,4.4988,4.5191,4.522,4.5714,4.5917,4.5917,4.5917,4.5917,4.5917,4.5917,4.5917,4.5917,0.0,0.0,0.0,0.0,0.0,0.0,0.0,0.0,0.0,0.0,0.0,0.0,0.0,0.0,0.0,4.0147,3.9575,3.9326,3.9631,3.93,3.9399,4.0158,4.0216,4.0435,4.0894,0.0,0.0,0.0,0.0,0.0,0.0,0.0,0.0,0.0,0.0,0.0,0.0,0.0,0.0,0.0,4.4464,0.0,0.0,4.305,4.2836,0.0,0.0,0.0,4.334,4.2786,4.242,0.0,0.0,0.0,0.0,0.0,0.0,0.0,0.0,0.0,0.0,0.0,0.0,0.0,4.289,4.3057,4.2998,0.0,0.0,0.0,0.0,0.0,0.0,0.0,0.0,0.0,0.0,0.0,0.0,0.0,0.0,0.0,0.0,4.2921,4.3306,4.3034,4.3794,4.4753,4.5756,4.6511,4.6689,4.63,4.6031,4.5693,4.5304,4.4952,4.4562,4.4174,4.3986,4.3779,4.3554,4.3696,4.3846,4.4008,4.4356,4.4501,4.456,4.522,4.5656,4.5917,4.5917,4.5917,4.5917,4.5917,4.5917,4.5917,0.0,0.0,0.0,0.0,0.0,0.0,0.0,0.0,0.0,0.0,0.0,0.0,0.0,0.0,0.0,0.0,3.9633,3.9672,4.0316,4.003,4.0158,4.086,4.0894,4.0929,4.1022,0.0,0.0,0.0,0.0,0.0,0.0,0.0,0.0,0.0,0.0,0.0,0.0,0.0,0.0,4.4117,4.4729,4.4513,0.0,0.0,4.4599,0.0,4.4591,4.4591,4.4406,4.3217,4.2561,0.0,0.0,0.0,0.0,0.0,4.329,0.0,0.0,0.0,0.0,0.0,0.0,0.0,4.3086,4.3232,4.3086,4.1946,0.0,0.0,0.0,0.0,0.0,0.0,0.0,0.0,0.0,0.0,0.0,0.0,0.0,0.0,4.3181,4.3825,4.4006,4.3397,4.4008,4.4778,4.571,4.6022,4.6151,4.6091,4.5514,4.5155,4.5044,4.4272,4.3881,4.3861,4.286,4.2685,4.3199,4.2989,4.3245,4.3776,4.3884,4.3892,4.3921,4.464,4.5249,4.5801,4.5888,4.5917,4.5917,4.5917,4.5917,4.5917,4.0306,0.0,0.0,0.0,0.0,0.0,0.0,0.0,0.0,0.0,0.0,0.0,0.0,0.0,0.0,0.0,0.0,4.0631,4.0781,4.0688,4.0745,4.0883,4.0894,4.1195,4.1775,4.1775,0.0,0.0,0.0,0.0,0.0,0.0,0.0,0.0,0.0,0.0,0.0,0.0,0.0,4.3324,4.3445,0.0,4.5161,4.4776,4.4595,4.4591,4.4591,4.4591,4.456,0.0,4.3937,4.3623,0.0,0.0,0.0,0.0,0.0,0.0,0.0,0.0,0.0,0.0,0.0,0.0,4.3358,4.3697,4.3867,0.0,0.0,0.0,0.0,0.0,0.0,0.0,0.0,0.0,0.0,0.0,0.0,0.0,0.0,0.0,4.2514,4.3342,4.3833,4.3696,4.4549,4.52,4.5391,4.5439,4.5244,4.4715,4.4566,4.4176,4.3477,4.3288,4.3108,4.2955,4.2594,4.245,4.2567,4.237,4.2353,4.2498,4.2963,4.3195,4.3282,4.4436,4.4988,4.5162,4.5685,4.5917,4.5917,4.5917,4.5917,4.5917,4.0649,0.0,0.0,0.0,0.0,0.0,0.0,0.0,0.0,0.0,0.0,0.0,0.0,0.0,0.0,0.0,0.0,0.0,0.0,0.0,4.1643,4.2037,4.2049,4.2202,4.2601,4.2601,4.297,0.0,0.0,0.0,0.0,0.0,0.0,0.0,0.0,0.0,0.0,0.0,4.4512,4.4161,4.4161,0.0,4.5094,4.5087,4.5114,4.5145,4.5484,4.5607,4.5588,4.549,4.5236,0.0,0.0,4.3827,4.3728,0.0,4.329,4.329,0.0,0.0,0.0,4.329,0.0,0.0,0.0,4.3579,4.3698,4.3349,4.3434,4.3327,4.2632,0.0,0.0,0.0,0.0,0.0,0.0,0.0,0.0,0.0,0.0,0.0,4.3284,4.4052,4.4533,4.4533,4.5025,4.5304,4.5304,4.4975,4.4646,4.4296,4.3967,4.3538,4.3001,4.288,4.2749,4.2555,4.2351,4.2257,4.2257,4.2154,4.2092,4.2121,4.2411,4.2557,4.2615,4.3573,4.4146,4.4552,4.554,4.5917,4.5917,4.5917,4.5917,4.5917,4.1243,0.0,0.0,0.0,0.0,0.0,0.0,0.0,0.0,0.0,0.0,0.0,0.0,0.0,0.0,0.0,0.0,0.0,0.0,0.0,0.0,4.317,4.3205,4.3256,4.3403,4.3402,4.3771,0.0,0.0,0.0,0.0,0.0,0.0,0.0,0.0,0.0,0.0,0.0,0.0,4.5001,0.0,4.5084,4.5026,4.5434,4.5607,4.5669,4.6069,4.6203,4.6203,4.6177,0.0,4.5647,4.4528,4.4268,0.0,0.0,0.0,0.0,0.0,0.0,0.0,0.0,0.0,4.3439,0.0,0.0,0.0,4.3319,0.0,0.0,0.0,0.0,0.0,0.0,0.0,0.0,0.0,0.0,0.0,0.0,0.0,0.0,4.4296,4.4796,4.5035,4.4915,4.5035,4.5035,4.4915,4.4386,4.4117,4.4117,4.3539,4.315,4.2941,4.2749,4.2555,4.2331,4.2175,4.2092,4.2092,4.2092,4.2092,4.2092,4.2092,4.2092,4.215,4.2876,4.3515,4.4095,4.5256,4.5801,4.5917,4.5917,4.5917,4.5917,4.2136,4.2098,0.0,0.0,0.0,0.0,0.0,0.0,0.0,0.0,0.0,0.0,0.0,0.0,0.0,0.0,0.0,0.0,4.3931,0.0,0.0,4.3197,4.3197,4.3498,4.4162,4.4186,4.4534,4.5267,0.0,0.0,0.0,0.0,0.0,0.0,4.4088,0.0,0.0,0.0,4.411,0.0,4.4742,4.5499,0.0,4.5806,4.5607,4.5545,4.5022,4.4837,4.4887,0.0,4.5557,4.5423,0.0,4.5253,0.0,0.0,0.0,0.0,0.0,0.0,0.0,0.0,4.3758,0.0,0.0,0.0,4.4027,4.3409,0.0,0.0,0.0,0.0,0.0,0.0,0.0,0.0,0.0,0.0,0.0,0.0,4.4116,0.0,0.0,4.4356,4.4177,4.3579,4.4087,4.4147,4.3579,4.3439,4.3409,4.3409,4.318,4.295,4.2749,4.2535,4.2331,4.2133,4.2113,4.2092,4.2092,4.2092,4.2092,4.2092,4.2092,4.2092,4.2179,4.3398,4.3921,4.4066,4.4756,4.5395,4.5917,4.5917,4.5917,4.5917,4.2875,0.0,0.0,0.0,0.0,0.0,0.0,0.0,0.0,0.0,0.0,0.0,0.0,0.0,0.0,0.0,0.0,4.3138,0.0,0.0,0.0,0.0,4.4492,4.463,4.4932,4.459,4.4558,4.4877,4.4228,0.0,0.0,0.0,0.0,0.0,4.4248,0.0,4.4438,0.0,0.0,0.0,0.0,0.0,0.0,4.5722,4.5853,4.6142,4.5865,4.5775,4.5727,0.0,4.5881,0.0,0.0,0.0,0.0,0.0,0.0,0.0,0.0,0.0,0.0,0.0,0.0,0.0,4.3439,0.0,4.3638,0.0,0.0,0.0,0.0,0.0,0.0,0.0,4.4207,0.0,0.0,0.0,0.0,0.0,0.0,0.0,4.3698,0.0,4.4027,4.3349,4.3938,4.3997,4.3319,4.329,4.325,4.315,4.3021,4.287,4.2535,4.2453,4.229,4.2092,4.2092,4.2092,4.2092,4.2092,4.2295,4.2615,4.2615,4.2847,4.3224,4.3776,4.4204,4.4552,4.4814,4.5308,4.5917,4.5917,4.5917,4.5917,4.3505,0.0,0.0,0.0,0.0,0.0,0.0,0.0,0.0,0.0,0.0,0.0,4.2358,4.3194,0.0,0.0,0.0,4.4643,0.0,0.0,4.4772,4.515,4.514,0.0,0.0,4.464,4.4516,4.4514,0.0,0.0,0.0,0.0,0.0,0.0,0.0,4.465,4.4614,0.0,0.0,4.5626,4.5576,4.5465,4.533,4.533,4.5761,4.6326,4.6326,4.6432,4.6496,4.5786,4.6132,0.0,4.4961,0.0,0.0,0.0,0.0,0.0,4.5077,0.0,0.0,0.0,0.0,0.0,0.0,0.0,0.0,0.0,0.0,0.0,0.0,0.0,0.0,0.0,0.0,4.4117,0.0,0.0,0.0,0.0,0.0,0.0,0.0,4.4446,4.4476,4.3638,4.4207,4.4207,4.3349,4.329,4.321,4.3001,4.2941,4.2749,4.2392,4.2351,4.2257,4.2092,4.1814,4.171,4.1689,4.1409,4.168,4.2343,4.2545,4.304,4.3747,4.4095,4.4501,4.493,4.5104,4.5482,4.5917,4.5917,4.5917,4.5895,4.4026,4.3957,0.0,0.0,0.0,0.0,0.0,0.0,0.0,0.0,0.0,0.0,0.0,0.0,0.0,0.0,0.0,4.7582,4.7582,0.0,4.5123,0.0,0.0,4.4082,0.0,0.0,4.4514,4.4597,0.0,0.0,0.0,0.0,0.0,0.0,0.0,4.545,4.5497,4.5768,4.5522,4.492,4.4721,4.4622,4.4622,0.0,4.5053,4.5638,4.5638,0.0,0.0,4.6268,4.603,0.0,0.0,0.0,0.0,0.0,0.0,0.0,0.0,0.0,0.0,4.4093,0.0,0.0,0.0,0.0,4.3469,0.0,0.0,0.0,0.0,0.0,0.0,0.0,0.0,0.0,0.0,0.0,0.0,0.0,0.0,0.0,0.0,4.5822,4.5702,4.4356,4.4885,4.4706,4.3349,4.329,4.321,4.3001,4.2809,4.2607,4.2392,4.2216,4.2113,4.2092,4.1099,4.0646,4.0625,3.9716,3.9804,4.0702,4.1343,4.2174,4.3129,4.4378,4.4901,4.4937,4.5627,4.5888,4.5917,4.5917,4.5917,4.585,0.0,0.0,0.0,0.0,0.0,0.0,0.0,4.3342,0.0,0.0,0.0,0.0,0.0,0.0,4.8548,0.0,0.0,4.8804,4.7836,4.7257,0.0,0.0,0.0,4.5321,0.0,0.0,0.0,0.0,0.0,0.0,0.0,0.0,0.0,0.0,0.0,4.5833,0.0,0.0,0.0,0.0,0.0,4.4868,4.5207,0.0,0.0,4.5596,4.5615,4.5618,0.0,4.5415,4.5251,4.4982,4.4219,4.4457,4.4918,4.434,4.4024,0.0,0.0,0.0,4.3973,4.4494,0.0,0.0,0.0,0.0,0.0,0.0,0.0,0.0,0.0,0.0,0.0,0.0,0.0,0.0,0.0,0.0,0.0,0.0,0.0,0.0,0.0,0.0,0.0,4.4182,4.4301,4.3972,4.2969,4.291,4.2809,4.2607,4.2555,4.2412,4.2216,4.2133,4.2092,4.2092,4.1078,4.0603,4.0582,3.9651,3.9801,4.0858,4.11,4.222,4.3823,4.3626,4.4332,4.5502,4.5018,4.527,4.5798,4.511,4.5064,4.5155,4.4347,0.0,0.0,0.0,0.0,0.0,0.0,0.0,0.0,0.0,4.6898,0.0,4.9436,0.0,5.0661,0.0,5.0636,4.9933,4.7936,4.7736,0.0,4.5059,4.5775,0.0,0.0,0.0,0.0,0.0,0.0,4.4404,0.0,0.0,0.0,0.0,0.0,0.0,0.0,0.0,4.5998,0.0,0.0,4.4799,0.0,0.0,4.5015,4.5777,0.0,4.5344,4.5361,4.486,4.4611,4.4299,4.3315,4.364,4.4204,4.3379,4.3275,4.3495,4.3717,4.3606,0.0,4.4105,4.4534,0.0,4.4242,0.0,0.0,0.0,0.0,0.0,0.0,0.0,0.0,0.0,0.0,0.0,0.0,4.3519,0.0,0.0,0.0,0.0,0.0,0.0,4.5108,4.408,4.3908,4.356,4.2738,4.2688,4.2607,4.2412,4.2392,4.229,4.2092,4.1752,4.1577,4.1556,4.0216,3.9607,3.9585,3.863,3.8914,4.0147,4.0385,4.1591,4.3369,4.2972,4.3583,4.4712,4.3937,4.4055,4.4591,4.4289,4.3984,4.3535,0.0,0.0,0.0,0.0,4.3879,0.0,0.0,0.0,4.6326,0.0,4.8093,4.9639,5.122,5.1988,5.2077,5.1338,5.1897,0.0,4.8167,4.7902,0.0,0.0,4.5685,4.5356,4.4771,0.0,0.0,0.0,0.0,0.0,0.0,0.0,0.0,0.0,4.6988,0.0,4.526,4.6408,4.6028,4.4652,4.4614,4.4491,4.4286,4.4184,4.4989,4.6011,4.5111,4.5212,4.558,4.4626,4.408,4.3794,4.3573,4.3348,4.306,4.2792,4.2313,4.2015,4.2557,4.2313,4.2093,4.305,0.0,0.0,0.0,0.0,4.5239,0.0,0.0,0.0,0.0,0.0,0.0,0.0,0.0,0.0,0.0,0.0,0.0,0.0,0.0,0.0,0.0,4.5653,4.5378,4.4089,4.3755,4.3357,0.0,4.2668,4.2566,4.2392,4.2392,4.229,4.2092,4.1141,4.0667,4.0646,3.8765,3.7864,3.7818,3.6877,3.723,3.8619,3.9288,4.0412,4.1808,4.2403,4.2719,4.2768,4.245,4.2301,4.2398,4.3409,4.2641,4.1119,4.5865,4.5736,4.5599,0.0,4.524,4.4859,0.0,0.0,0.0,0.0,5.128,5.2999,5.5101,5.4922,5.4379,5.3704,5.3707,0.0,0.0,0.0,0.0,4.7421,4.7249,4.6665,4.5543,4.6018,0.0,4.5525,0.0,0.0,4.5805,0.0,0.0,0.0,0.0,0.0,4.526,4.6408,4.6307,4.5272,4.4576,4.4869,0.0,0.0,4.4046,4.478,4.4785,4.4756,4.4665,4.437,4.3661,4.2801,4.2572,4.2299,4.2014,4.1744,4.1591,4.1485,4.1644,4.1565,4.1705,4.2695,4.3121,4.3332,0.0,0.0,0.0,0.0,0.0,0.0,0.0,0.0,0.0,0.0,0.0,0.0,0.0,0.0,0.0,4.3579,0.0,0.0,4.5244,4.4798,4.4315,4.3815,4.3116,4.2588,4.2278,0.0,4.2236,4.2175,4.2175,4.2154,4.2092,4.1835,4.1702,4.171,3.9738,3.8832,3.8814,3.7565,3.7407,3.8181,3.8814,3.9946,4.1332,4.0742,4.142,4.2695,4.164,4.0968,4.0716,4.1591,4.1093,3.9981,4.6874,0.0,0.0,4.6636,0.0,0.0,4.6439,0.0,0.0,5.0833,5.2724,0.0,5.5621,5.5608,5.5217,5.4495,5.4062,0.0,0.0,0.0,0.0,4.8832,4.8469,4.7802,4.6758,4.6779,0.0,4.5805,0.0,0.0,4.6234,0.0,0.0,0.0,0.0,4.6601,0.0,4.6106,4.6228,4.5929,4.47,0.0,0.0,4.3885,4.3445,4.37,4.3883,4.386,4.3654,4.3545,4.3052,4.2406,4.205,4.1825,4.1645,4.1373,4.1299,4.1299,4.1299,4.1299,4.1423,4.2016,4.2479,4.2855,4.3046,4.371,4.4283,0.0,0.0,0.0,0.0,0.0,0.0,0.0,0.0,0.0,0.0,0.0,0.0,0.0,4.3878,0.0,4.4436,4.4091,4.3646,4.3175,4.2831,4.2499,4.2142,0.0,4.2353,4.2121,4.2644,4.2455,4.1451,4.1582,4.1193,4.0207,3.8675,3.8083,3.83,3.7537,3.7663,3.8391,3.8743,3.955,4.0516,3.9929,4.0313,4.1169,4.016,3.9494,3.9183,3.9622,3.9416,3.887,0.0,0.0,0.0,0.0,0.0,0.0,0.0,4.9167,0.0,5.1479,0.0,5.4788,5.4843,5.5229,5.5169,5.4372,0.0,5.2713,5.1225,5.1121,5.0805,5.007,4.9299,4.8592,4.7909,4.7182,0.0,0.0,0.0,0.0,0.0,0.0,0.0,0.0,0.0,0.0,0.0,4.5788,4.599,4.6303,4.4849,4.4461,4.462,4.3612,4.3097,4.2925,4.2925,4.2925,4.2855,4.2614,4.2511,4.2373,4.1905,4.1755,4.1704,4.1479,4.1481,4.1508,4.1508,4.1508,4.1508,4.1455,4.2073,4.2706,4.2625,4.3273,4.377,4.3338,4.3608,4.374,0.0,0.0,0.0,0.0,0.0,0.0,0.0,0.0,0.0,0.0,0.0,0.0,4.3449,4.3582,4.3355,4.2483,4.2703,4.2644,4.2121,0.0,4.2644,4.2121,4.3166,4.289,4.1049,4.104,4.0136,3.8421,3.726,3.6923,3.7379,3.741,3.7964,3.8894,3.8969,3.9271,3.9697,3.9671,3.9439,3.9128,3.8605,3.8262,3.8,3.8,3.8,3.8,0.0,0.0,0.0,0.0,0.0,4.9851,5.132,5.214,5.3134,5.4616,5.5685,5.654,5.713,5.608,5.506,5.4362,5.4079,0.0,0.0,0.0,0.0,5.0836,4.9572,4.8592,4.7909,4.7182,4.6487,0.0,0.0,0.0,0.0,0.0,0.0,0.0,0.0,0.0,4.6478,4.6438,0.0,4.5398,4.4889,4.4562,4.427,4.3322,4.2961,4.2925,4.2925,4.2925,4.29,4.2833,4.2552,4.2161,4.2048,4.2069,4.2109,4.2056,4.2343,4.271,4.271,4.271,4.2605,4.216,4.2181,4.2176,4.1677,4.1721,4.2039,4.2728,4.2545,4.2422,4.3087,0.0,0.0,0.0,0.0,0.0,0.0,0.0,0.0,0.0,0.0,4.4206,0.0,4.3767,4.3416,4.2707,4.2406,4.2208,4.2121,0.0,4.2208,0.0,4.2324,0.0,0.0,0.0,4.1028,4.1657,3.9316,3.8275,3.8357,3.8536,3.8718,3.8919,3.9371,3.9597,3.9697,3.9439,3.905,3.8552,3.8447,3.8262,3.8,3.8,3.8,3.8,0.0,0.0,0.0,0.0,0.0,0.0,0.0,5.4523,0.0,5.4972,5.5621,5.5895,5.5407,5.532,5.4991,5.4248,5.3819,5.3281,5.2597,5.1891,5.1342,5.0994,4.9963,0.0,4.7909,4.7561,4.6866,4.5805,0.0,0.0,0.0,0.0,0.0,0.0,0.0,4.6647,0.0,0.0,0.0,4.5648,4.5054,4.462,4.4203,4.3249,4.2925,4.2925,4.2925,4.3101,4.3278,4.2695,4.2534,4.2531,4.2248,4.2365,4.2605,4.2605,4.2814,4.2997,4.2997,4.2997,4.2918,4.2683,4.2605,4.2526,4.2239,4.1977,4.1894,4.2394,4.199,4.1751,4.2399,4.2962,0.0,0.0,0.0,0.0,0.0,0.0,0.0,0.0,0.0,0.0,0.0,0.0,0.0,0.0,0.0,4.2411,4.2121,0.0,4.2411,0.0,0.0,0.0,4.1531,0.0,4.0354,3.9325,3.8352,3.801,3.8293,3.8691,3.9044,3.9346,3.9572,3.962,3.9439,3.9024,3.8657,3.8394,3.8238,3.8106,3.8,3.8,3.8,3.8,0.0,4.9554,0.0,0.0,5.1223,0.0,5.4978,5.5994,5.6082,5.5057,5.5253,5.494,5.3493,5.4366,5.4725,5.3946,5.3534,5.3186,5.2902,5.1828,5.1153,5.0994,5.0311,4.9343,4.813,4.7972,4.7277,0.0,0.0,0.0,0.0,0.0,0.0,0.0,0.0,0.0,0.0,0.0,4.6283,4.5828,4.5011,4.4442,4.3911,4.318,4.2925,4.2925,4.2925,4.3251,4.3548,4.2488,4.2572,4.3082,4.2599,4.2787,4.3206,4.3206,4.3258,4.3363,4.3363,4.3363,4.3336,4.3206,4.3206,4.318,4.3023,4.2657,4.2343,4.2212,4.1716,4.1465,4.1932,4.2752,0.0,0.0,0.0,0.0,0.0,0.0,0.0,0.0,0.0,0.0,4.3298,0.0,0.0,0.0,0.0,4.2644,4.2295,4.2731,4.2789,0.0,0.0,4.2616,4.0138,0.0,3.9674,3.7291,3.7482,3.7764,3.8216,3.8818,3.9296,3.9697,3.9697,3.9516,3.9154,3.8631,3.8368,3.8291,3.808,3.8,3.8,3.8,3.8,3.8,0.0,0.0,0.0,0.0,0.0,0.0,5.5219,5.5926,5.6385,5.653,5.588,5.5089,5.4278,5.4206,5.3935,5.325,5.3692,5.3471,5.2207,5.1986,5.1638,5.1026,5.0311,4.9564,4.8825,4.8193,4.7498,0.0,0.0,0.0,0.0,0.0,0.0,0.0,0.0,0.0,0.0,4.6362,4.5743,4.491,4.4486,4.3817,4.3015,4.2922,4.2925,4.2925,4.2925,4.3134,4.33,4.2395,4.2816,4.3667,4.3384,4.3546,4.3834,4.3834,4.4173,4.4538,4.4538,4.4538,4.4407,4.3964,4.3834,4.3677,4.3101,4.2945,4.2788,4.2291,4.1716,4.1596,4.2544,4.2317,4.2281,0.0,0.0,0.0,0.0,0.0,0.0,0.0,0.0,0.0,0.0,4.482,0.0,0.0,4.2944,4.2382,4.2876,4.2963,4.2963,4.2905,4.3021,4.3092,4.3109,4.1132,4.0121,4.0097,3.9167,3.8768,3.8843,3.9396,3.9647,3.9697,3.9697,3.9387,3.8815,3.8526,3.8262,3.8027,3.8,3.8,3.8,3.8,3.8,3.8,0.0,0.0,0.0,0.0,0.0,0.0,0.0,5.5768,5.5247,5.5078,5.513,5.4871,5.4083,5.4041,5.3818,5.3155,5.2934,5.2428,5.1448,5.1006,5.0607,5.0342,5.007,4.9596,4.8908,4.8225,4.753,0.0,0.0,0.0,0.0,0.0,0.0,0.0,0.0,4.5906,4.5788,4.607,4.531,4.3903,4.4197,4.3748,4.2925,4.2925,4.2925,4.2925,4.2925,4.3467,4.4084,4.338,4.3568,4.3991,4.3362,4.3729,4.4382,4.4382,4.4512,4.4695,4.4695,4.4695,4.4643,4.4434,4.4382,4.433,4.4068,4.3781,4.3494,4.3258,4.2474,4.1842,4.1898,4.2169,4.2399,0.0,0.0,0.0,0.0,0.0,0.0,0.0,0.0,0.0,0.0,0.0,0.0,0.0,0.0,4.2905,4.3573,4.2876,4.2789,4.3573,0.0,4.1571,4.1525,3.9938,3.8938,3.8522,3.8792,3.8894,3.8919,3.9472,3.962,3.9439,3.9232,3.8919,3.8552,3.8289,3.808,3.8,3.8,3.8,3.8,3.8,3.8,3.8,5.5394,0.0,5.4663,0.0,5.5603,5.5569,5.679,5.5277,5.4011,5.4103,5.4107,5.3978,5.3626,5.3922,5.3818,5.3155,5.2618,5.2049,5.1342,5.0627,5.0196,5.0196,5.0006,0.0,4.9205,4.8541,4.794,4.7403,4.7227,0.0,0.0,0.0,0.0,0.0,4.5609,4.5486,4.5472,4.5371,4.466,4.3601,4.3804,4.3621,4.316,4.3146,4.326,4.344,4.3429,4.4034,4.4696,4.4042,4.415,4.4441,4.3729,4.4042,4.4695,4.4695,4.4695,4.4695,4.4695,4.4695,4.4695,4.4695,4.4695,4.4695,4.4695,4.4408,4.4095,4.3938,4.2997,4.2081,4.1638,4.1999,4.2293,4.213,0.0,0.0,0.0,0.0,0.0,0.0,4.274,4.3036,4.222,4.2873,0.0,0.0,0.0,4.2589,4.3509,4.2786,4.2528,0.0,0.0,0.0,4.0011,3.9222,3.8451,3.7713,3.8693,3.9145,3.9145,3.9547,3.9568,3.9284,3.8945,3.8657,3.8394,3.8106,3.8,3.8,3.8,3.8,3.8,3.8,3.8,3.8,5.6434,5.6234,5.6062,5.6699,5.6346,5.6231,5.6985,5.4391,5.2867,5.4368,5.3111,5.2324,5.3049,5.3692,5.3818,5.3155,5.3092,5.2776,5.2049,5.1374,5.0994,0.0,0.0,4.9912,4.988,4.9236,4.8876,4.8876,0.0,0.0,4.6202,0.0,4.5976,4.6533,4.5635,4.5583,4.6045,4.4128,4.3708,4.4191,4.3275,4.3282,4.3785,4.38,4.4177,4.4677,4.469,4.4857,4.497,4.4092,4.4414,4.5153,4.4803,4.4695,4.4695,4.4695,4.4695,4.4695,4.4695,4.4695,4.4695,4.4695,4.4695,4.4695,4.4695,4.4695,4.4538,4.4017,4.2997,4.2186,4.2186,4.1715,4.1647,4.2622,0.0,0.0,0.0,0.0,0.0,0.0,4.3514,4.3817,4.1096,4.285,0.0,0.0,0.0,0.0,0.0,0.0,0.0,4.0291,4.1118,0.0,3.9614,3.9444,3.9224,3.8894,3.9446,3.9697,3.9697,3.9697,3.9568,3.9284,3.8945,3.8657,3.8394,3.8106,3.8,3.8,3.8,3.8,3.8,3.8,3.8,3.8,5.6884,5.703,5.7193,5.6853,5.7056,5.6984,5.6042,5.4604,5.3639,5.3564,5.266,5.2328,5.3225,5.3673,5.3679,0.0,5.3123,5.2586,0.0,5.1121,5.0773,5.0279,5.0038,4.9912,4.9912,4.9236,4.883,4.8706,0.0,0.0,0.0,4.6366,4.5877,4.5625,4.5145,4.4683,4.4201,4.404,4.373,4.3346,4.3472,4.3642,4.3837,4.4271,4.4519,4.4703,4.4684,4.4874,4.5045,4.4569,4.4758,4.5126,4.4829,4.4695,4.4695,4.4695,4.4695,4.4695,4.4695,4.4695,4.4695,4.4695,4.4695,4.4695,4.4695,4.4695,4.4538,4.4017,4.3284,4.2631,4.2264,4.1716,4.1398,4.1746,4.1242,0.0,0.0,0.0,0.0,0.0,4.0829,4.1159,4.0266,4.0979,0.0,0.0,0.0,0.0,0.0,0.0,0.0,0.0,4.0003,0.0,3.959,3.9257,3.9018,3.8894,3.9421,3.9697,3.9697,3.9491,3.9258,3.8945,3.8657,3.8394,3.8106,3.8027,3.8,3.8,3.8,3.8,3.8,3.8,3.8,3.8,5.7398,5.7584,5.7757,5.7277,5.6892,5.6352,5.553,5.3834,5.2581,5.2353,5.1609,5.141,5.2156,5.2862,0.0,5.2975,5.2723,5.2124,5.1089,5.0742,5.0374,4.9912,4.9912,4.9912,4.9912,4.9489,0.0,4.8985,4.8086,4.7548,4.7442,4.6215,4.558,4.5419,4.4871,4.4259,4.3687,4.3745,4.3452,4.2949,4.3539,4.3931,4.4184,4.4803,4.518,4.539,4.5377,4.5406,4.539,4.5128,4.513,4.5126,4.4829,4.4695,4.4695,4.4695,4.4695,4.4695,4.4695,4.4695,4.4695,4.4695,4.4695,4.4695,4.4695,4.4695,4.459,4.4278,4.3729,4.318,4.2579,4.203,4.1559,4.1325,4.0985,4.0541,3.9967,0.0,0.0,0.0,0.0,0.0,0.0,3.9549,3.9662,0.0,0.0,0.0,0.0,0.0,0.0,3.9329,3.8877,3.8733,3.8991,3.8942,3.8994,3.9195,3.9521,3.9645,3.9542,3.9362,3.905,3.8631,3.8473,3.8238,3.8,3.8,3.8,3.8,3.8,3.8,3.8,3.8,3.8,3.8,5.7848,5.7863,5.787,0.0,5.5996,0.0,5.5399,5.2405,5.0279,5.0944,5.0335,4.9965,5.0279,5.1547,5.2381,5.2501,0.0,0.0,0.0,5.0374,4.9943,4.9912,4.9912,4.9912,4.9912,4.9892,4.9793,4.9636,4.7658,4.6902,4.7287,4.5669,4.5232,4.5776,4.4737,4.4283,4.4208,4.3273,4.2925,4.3027,4.3615,4.4207,4.4836,4.5445,4.6003,4.6509,4.6482,4.6245,4.5927,4.5662,4.5395,4.5099,4.4776,4.4695,4.4695,4.4695,4.4695,4.4695,4.4695,4.4695,4.4695,4.4695,4.4695,4.4695,4.4695,4.4695,4.4695,4.4695,4.4278,4.3729,4.3101,4.2552,4.2003,4.1402,4.1299,4.109,4.0463,0.0,0.0,0.0,0.0,0.0,0.0,3.8535,3.8228,0.0,0.0,0.0,0.0,0.0,3.8817,3.6528,3.7865,3.8431,3.8065,3.8668,3.922,3.9697,3.9697,3.9542,3.9284,3.9258,3.8919,3.8421,3.8394,3.8236,3.8,3.8,3.8,3.8,3.8,3.8,3.8,3.8,3.8,3.8,0.0,0.0,5.7538,5.6405,5.5727,5.5154,5.461,5.2805,5.1518,5.1518,5.1334,5.1083,5.0648,5.1367,5.1543,5.0703,5.1957,5.2492,5.1828,5.1101,5.0469,4.9912,4.9912,4.9912,4.9912,4.9753,4.9743,4.9916,4.8932,4.8536,4.8619,4.669,4.5865,4.5953,4.4549,4.3922,4.3866,4.3197,4.3155,4.3642,4.426,4.4859,4.5445,4.6056,4.6402,4.6482,4.6218,4.5954,4.5662,4.5395,4.5099,4.4776,4.4722,4.4695,4.4695,4.4695,4.4695,4.4695,4.4695,4.4695,4.4695,4.4695,4.4695,4.4695,4.4695,4.4695,4.4695,4.4695,4.4278,4.3729,4.3101,4.2552,4.2003,4.1402,4.1299,4.109,4.0463,3.9939,0.0,0.0,3.8233,3.7614,3.7337,3.7147,3.7039,0.0,0.0,0.0,3.7009,3.7948,3.8023,3.7034,3.8185,3.8767,3.8693,3.922,3.9572,3.9697,3.949,3.9362,3.9284,3.8815,3.8552,3.8394,3.8159,3.8053,3.8,3.8,3.8,3.8,3.8,3.8,3.8,3.8,3.8,3.8,5.74,5.7348,5.7255,5.6776,5.5495,5.4346,5.3868,5.2418,5.1136,5.0362,5.0578,5.0684,5.0417,5.07,5.0986,5.1076,5.1528,5.158,5.0938,5.0965,5.0836,5.0405,5.0621,5.0718,5.0718,5.0051,4.949,4.9024,4.8162,4.7736,4.7689,4.6171,4.545,4.5428,4.4588,4.4214,4.4184,4.3857,4.3903,4.426,4.4879,4.5303,4.5657,4.6269,4.6509,4.6456,4.6112,4.5821,4.5555,4.5287,4.4991,4.4695,4.4695,4.4695,4.4695,4.4695,4.4695,4.4695,4.4695,4.4695,4.4695,4.4695,4.4695,4.4695,4.4695,4.4695,4.4695,4.4695,4.4487,4.4016,4.3154,4.2762,4.2291,4.143,4.1299,4.1193,4.0855,4.0306,0.0,3.9014,3.8295,3.7727,3.7353,3.6996,3.6884,3.7185,3.6984,0.0,3.7185,3.7713,3.7739,3.7235,3.8316,3.8894,3.8894,3.9446,3.9645,3.9516,3.9362,3.9154,3.8893,3.8552,3.8342,3.8212,3.8053,3.8,3.8,3.8,3.8,3.8,3.8,3.8,3.8,3.8,3.8,3.8,5.771,5.7125,5.6801,5.7273,5.4978,5.3074,5.3202,5.171,5.0188,4.9186,4.9604,5.0016,5.0083,5.0195,5.0774,5.2032,5.1078,5.0299,5.0055,5.0646,5.1051,5.1051,5.1444,5.1654,5.1654,5.0481,4.9284,4.8016,4.6926,4.6402,4.6378,4.5415,4.4963,4.4963,4.4893,4.4841,4.4826,4.4752,4.4765,4.4882,4.54,4.5658,4.579,4.6295,4.6509,4.6456,4.6086,4.5768,4.5555,4.5234,4.4937,4.4695,4.4695,4.4695,4.4695,4.4695,4.4695,4.4695,4.4695,4.4695,4.4695,4.4695,4.4695,4.4695,4.4695,4.4695,4.4695,4.4695,4.4695,4.4355,4.3206,4.2997,4.2631,4.1482,4.1299,4.1299,4.1299,0.0,4.0106,3.9393,3.8997,3.8449,3.7773,3.7481,3.7336,3.7336,3.6909,3.6833,3.7311,3.7839,3.7914,3.7487,3.8467,3.9019,3.9019,3.9445,3.9542,3.9284,3.9206,3.8893,3.8421,3.8368,3.8236,3.8,3.8,3.8,3.8,3.8,3.8,3.8,3.8,3.8,3.8,3.8,3.8,3.8,5.6988,5.6386,5.5665,5.5042,5.3518,5.2487,5.2909,5.1172,5.0167,5.1089,5.1324,5.1188,5.0645,5.1097,5.1317,5.099,5.0925,5.12,5.1901,5.1507,5.1246,5.1246,5.1298,5.134,5.134,5.072,4.9766,4.8502,4.7957,4.7715,4.769,4.6675,4.6237,4.621,4.567,4.5467,4.5413,4.4924,4.4974,4.5463,4.5571,4.5917,4.6348,4.6455,4.6509,4.643,4.5875,4.5662,4.5528,4.4938,4.4722,4.4695,4.4695,4.4695,4.4695,4.4695,4.4695,4.4695,4.4695,4.4695,4.4695,4.4695,4.4695,4.4695,4.4695,4.4695,4.4695,4.4695,4.4695,4.4355,4.3206,4.2997,4.2631,4.1482,4.1299,4.1299,4.1299,0.0,4.0016,3.9888,3.9032,3.8408,3.8307,3.8037,3.7889,3.7889,3.7789,3.7789,3.7864,3.8441,3.8718,3.8642,3.9245,3.9597,3.9597,3.944,3.9336,3.9284,3.8788,3.85,3.8394,3.8183,3.8027,3.8,3.8,3.8,3.8,3.8,3.8,3.8,3.8,3.8,3.8,3.8,3.8,3.8,5.6895,5.6196,5.5431,5.4601,5.3474,5.2629,5.2442,5.1788,5.1282,5.118,5.1484,5.1593,5.126,5.1195,5.1313,5.1744,5.1524,5.1725,5.2516,5.2135,5.189,5.189,5.1585,5.0827,4.9556,4.9283,4.8612,4.7449,4.7274,4.7183,4.7183,4.6717,4.6509,4.6481,4.621,4.6098,4.6065,4.58,4.5816,4.6091,4.6074,4.6242,4.6509,4.6509,4.6509,4.643,4.5822,4.5609,4.5528,4.4884,4.4695,4.4695,4.4695,4.4695,4.4695,4.4695,4.4695,4.4695,4.4695,4.4695,4.4695,4.4695,4.4695,4.4695,4.4695,4.4695,4.4695,4.4695,4.4695,4.4355,4.3206,4.2997,4.2631,4.1482,4.1299,0.0,0.0,4.0738,4.0254,3.9672,3.9447,3.9145,3.8717,3.8542,3.8467,3.8467,3.8191,3.814,3.8492,3.8743,3.9044,3.9321,3.9572,3.9645,3.949,3.9362,3.9128,3.8815,3.8526,3.8342,3.8159,3.8053,3.8,3.8,3.8,3.8,3.8,3.8,3.8,3.8,3.8,3.8,3.8,3.8,3.8,3.7947,5.6644,5.5656,5.4737,5.4279,5.3281,5.2485,5.2228,5.2337,5.2133,5.1279,5.1606,5.1929,5.1938,5.1458,5.159,5.2614,5.2236,5.2144,5.2667,5.2458,5.2346,5.2455,5.1789,5.0324,4.8047,4.7996,4.7515,4.6509,4.6509,4.6509,4.6509,4.6509,4.6509,4.6509,4.6509,4.6509,4.6509,4.6509,4.6509,4.6509,4.6509,4.6509,4.6509,4.6509,4.6456,4.6297,4.5795,4.5555,4.5421,4.4884,4.4695,4.4695,4.4695,4.4695,4.4695,4.4695,4.4695,4.4695,4.4695,4.4695,4.4695,4.4695,4.4695,4.4695,4.4695,4.4695,4.4695,4.4695,4.4695,4.4355,4.3206,4.2997,4.2631,4.1482,0.0,0.0,0.0,4.0846,4.0489,3.9601,3.9778,3.9752,3.9145,3.9095,3.9095,3.9095,3.8642,3.8592,3.907,3.9095,3.9245,3.9595,3.962,3.9491,3.9284,3.9154,3.8867,3.8421,3.8342,3.8185,3.8,3.8,3.8,3.8,3.8,3.8,3.8,3.8,3.8,3.8,3.8,3.8,3.8,3.8,3.7894,3.7708,5.581,5.4035,5.2708,5.3112,5.2003,5.1431,5.251,5.2162,5.1955,5.2499,5.2614,5.2637,5.2622,5.2583,5.2606,5.2676,5.2645,5.2645,5.2676,5.2284,5.2208,5.2659,5.1666,5.0132,4.8047,4.7996,4.7515,4.6509,4.6509,4.6509,4.6509,4.6509,4.6509,4.6509,4.6509,4.6509,4.6509,4.6509,4.6509,4.6509,4.6509,4.6509,4.6509,4.6509,4.6297,4.598,4.5715,4.5448,4.518,4.4803,4.4695,4.4695,4.4695,4.4695,4.4695,4.4695,4.4695,4.4695,4.4695,4.4695,4.4695,4.4695,4.4695,4.4695,4.4695,4.4695,4.4695,4.4695,4.4695,4.4355,4.3206,4.2997,4.2631,4.1482,0.0,0.0,4.0946,4.0694,4.0415,4.0083,3.9853,3.9698,3.9647,3.9647,3.9647,3.9647,3.9597,3.9597,3.9622,3.9647,3.9544,3.9336,3.931,3.931,3.9284,3.8762,3.8447,3.8421,3.8133,3.8,3.8,3.8,3.8,3.8,3.8,3.8,3.8,3.8,3.8,3.8,3.8,3.8,3.8,3.8,3.7628,3.7147,5.6367,5.489,5.3511,5.3188,5.2597,5.2144,5.2074,5.2209,5.2413,5.2667,5.2676,5.2676,5.2676,5.2676,5.2676,5.2676,5.2676,5.2594,5.2269,5.2117,5.1479,5.0329,4.9582,4.8496,4.7105,4.7079,4.6899,4.6509,4.6509,4.6509,4.6509,4.6509,4.6509,4.6509,4.6509,4.6509,4.6509,4.6509,4.6509,4.6509,4.6509,4.6509,4.6509,4.6509,4.6297,4.5954,4.5715,4.5421,4.5153,4.4803,4.4695,4.4695,4.4695,4.4695,4.4695,4.4695,4.4695,4.4695,4.4695,4.4695,4.4695,4.4695,4.4695,4.4695,4.4695,4.4695,4.4695,4.4695,4.4695,4.4355,4.3206,4.2997,4.2631,4.1482,0.0,4.0946,4.0694,4.0415,4.016,3.9878,3.9774,3.9697,3.9697,3.9697,3.9697,3.9697,3.9697,3.9697,3.9697,3.9542,3.9388,3.9284,3.8945,3.8736,3.8736,3.8526,3.8342,3.8133,3.8053,3.8,3.8,3.8,3.8,3.8,3.8,3.8,3.8,3.8,3.8,3.8,3.8,3.7761,3.7441,3.7441,3.7093,3.6549,5.6474,5.5111,5.3814,5.3216,5.2784,5.2432,5.2082,5.2379,5.2676,5.2676,5.2676,5.2676,5.2676,5.2676,5.2676,5.2676,5.2374,5.2124,5.2025,5.1363,5.0335,4.8869,4.8299,4.7541,4.6535,4.6509,4.6509,4.6509,4.6509,4.6509,4.6509,4.6509,4.6509,4.6509,4.6509,4.6509,4.6509,4.6509,4.6509,4.6509,4.6509,4.6509,4.6509,4.6376,4.6166,4.5821,4.5582,4.5287,4.5018,4.4776,4.4695,4.4695,4.4695,4.4695,4.4695,4.4695,4.4695,4.4695,4.4695,4.4695,4.4695,4.4695,4.4695,4.4695,4.4695,4.4695,4.4695,4.4695,4.4695,4.4355,4.3206,4.2997,4.2579,4.1355,4.1022,4.0795,4.0415,4.0211,4.0006,3.9723,3.9697,3.9697,3.9697,3.9697,3.9697,3.9697,3.9697,3.9671,3.9594,3.9284,3.9102,3.9024,3.8552,3.8265,3.8265,3.8265,3.8159,3.8,3.8,3.8,3.8,3.8,3.8,3.8,3.8,3.8,3.8,3.8,3.8,3.7974,3.7788,3.7441,3.7089,3.6904,3.6499,3.5977,5.569,5.4283,5.3133,5.2931,5.2242,5.1923,5.2592,5.2676,5.2676,5.2676,5.2676,5.2676,5.2676,5.2676,5.2706,5.2706,5.1727,5.1379,5.1956,4.9999,4.8795,4.8795,4.8299,4.7515,4.6535,4.6509,4.6509,4.6509,4.6509,4.6509,4.6509,4.6509,4.6509,4.6509,4.6509,4.6509,4.6509,4.6509,4.6509,4.6509,4.6509,4.6509,4.6482,4.6139,4.5821,4.5555,4.5287,4.4991,4.4695,4.4695,4.4695,4.4695,4.4695,4.4695,4.4695,4.4695,4.4695,4.4695,4.4695,4.4695,4.4695,4.4695,4.4695,4.4695,4.4695,4.4695,4.4695,4.4695,4.4695,4.4355,4.3206,4.2997,4.2527,4.1128,4.0921,4.0719,4.016,4.0109,4.0006,3.9723,3.9697,3.9697,3.9697,3.9697,3.9697,3.9697,3.9697,3.9594,3.931,3.8971,3.8684,3.8421,3.8157,3.8,3.8,3.8,3.8,3.8,3.8,3.8,3.8,3.8,3.8,3.8,3.8,3.8,3.8,3.8,3.8,3.7921,3.7307,3.7093,3.7036,3.6495,3.5922,3.5473,5.6338,5.4999,5.3869,5.3716,5.2973,5.2485,5.2676,5.2676,5.2676,5.2676,5.2676,5.2676,5.2676,5.2676,5.2589,5.2245,5.2275,5.1976,5.1071,4.971,4.8773,4.8415,4.7455,4.6821,4.6509,4.6509,4.6509,4.6509,4.6509,4.6509,4.6509,4.6509,4.6509,4.6509,4.6509,4.6509,4.6509,4.6509,4.6509,4.6509,4.6509,4.6509,4.6482,4.6139,4.5821,4.5555,4.5287,4.4991,4.4695,4.4695,4.4695,4.4695,4.4695,4.4695,4.4695,4.4695,4.4695,4.4695,4.4695,4.4695,4.4695,4.4695,4.4695,4.4695,4.4695,4.4695,4.4695,4.4695,4.4408,4.3912,4.3127,4.2554,4.1879,4.1025,4.0593,4.0287,4.0134,3.9929,3.98,3.9723,3.9697,3.9697,3.9697,3.9697,3.9697,3.9697,3.9542,3.9284,3.8971,3.8684,3.85,3.8421,3.8157,3.8,3.8,3.8,3.8,3.8,3.8,3.8,3.8,3.8,3.8,3.8,3.8,3.8,3.8,3.8,3.7735,3.7358,3.717,3.6607,3.5945,3.6115,3.5781,3.5313,5.6251,5.5304,5.4388,5.3622,5.3057,5.2676,5.2676,5.2676,5.2676,5.2676,5.2676,5.2676,5.2676,5.2922,5.2788,5.2067,5.2222,5.1768,5.0395,4.9705,4.9109,4.8585,4.7644,4.7052,4.6862,4.6617,4.6509,4.6509,4.6509,4.6509,4.6509,4.6509,4.6509,4.6509,4.6509,4.6509,4.6509,4.6509,4.6509,4.6509,4.6509,4.6509,4.6456,4.6007,4.5742,4.5555,4.5153,4.4857,4.4695,4.4695,4.4695,4.4695,4.4695,4.4695,4.4695,4.4695,4.4695,4.4695,4.4695,4.4695,4.4695,4.4695,4.4695,4.4695,4.4695,4.4695,4.4643,4.4434,4.404,4.3492,4.2684,4.2216,4.1647,4.0746,4.0492,4.0311,3.998,3.98,3.9697,3.9697,3.9697,3.9697,3.9697,3.9697,3.9671,3.9568,3.9258,3.8971,3.8657,3.85,3.8368,3.8262,3.808,3.8,3.8,3.8,3.8,3.8,3.8,3.8,3.8,3.8,3.8,3.8,3.8,3.7841,3.7628,3.7628,3.7281,3.6742,3.6526,3.6009,3.5423,3.5435,3.537,3.5277,5.5639,5.5243,5.4661,5.2995,5.2676,5.2676,5.2676,5.2676,5.2676,5.2676,5.2676,5.2706,5.2768,5.3253,5.3137,5.2127,5.1725,5.1087,5.0041,4.9988,4.9698,4.914,4.8518,4.7948,4.7486,4.6889,4.6536,4.6509,4.6509,4.6509,4.6509,4.6509,4.6509,4.6509,4.6509,4.6509,4.6509,4.6509,4.6509,4.6509,4.6509,4.6482,4.6403,4.5822,4.5609,4.5502,4.4911,4.4695,4.4695,4.4695,4.4695,4.4695,4.4695,4.4695,4.4695,4.4695,4.4695,4.4695,4.4695,4.4695,4.4695,4.4643,4.4616,4.4643,4.4695,4.4695,4.4538,4.4017,4.3699,4.3149,4.2009,4.1956,4.1642,4.0338,4.0489,4.0537,3.9799,3.9697,3.9697,3.9697,3.9697,3.9697,3.9697,3.9671,3.9542,3.9232,3.8945,3.8657,3.8394,3.8368,3.8238,3.8,3.8,3.8,3.8,3.8,3.8,3.8,3.8,3.8,3.8,3.8,3.8,3.8,3.7947,3.7601,3.7116,3.7062,3.6688,3.6145,3.5598,3.5378,3.5268,3.4752,3.4856,3.5343,5.5504,5.4741,5.3956,5.2886,5.2676,5.2676,5.2676,5.2676,5.2676,5.2676,5.2676,5.2891,5.3414,5.2822,5.2347,5.2343,5.1955,5.1437,5.0718,5.0689,5.0207,4.9145,4.8518,4.8165,4.8029,4.7486,4.697,4.6509,4.6509,4.6509,4.6509,4.6509,4.6509,4.6509,4.6509,4.6509,4.6509,4.6509,4.6509,4.6509,4.6509,4.6351,4.6087,4.5715,4.5475,4.5234,4.483,4.4695,4.4695,4.4695,4.4695,4.4695,4.4695,4.4695,4.4695,4.4695,4.4695,4.4695,4.4695,4.4695,4.459,4.4173,4.4068,4.4173,4.459,4.4695,4.4538,4.4017,4.3646,4.3096,4.2009,4.1465,4.0948,4.021,4.0005,3.99,3.9723,3.9697,3.9697,3.9697,3.9697,3.9697,3.9697,3.9491,3.9154,3.8631,3.8526,3.8368,3.808,3.808,3.8053,3.8,3.8,3.8,3.8,3.8,3.8,3.8,3.8,3.8,3.8,3.8,3.8,3.7974,3.7495,3.7224,3.7066,3.6657,3.6118,3.5571,3.5461,3.5102,3.4724,3.4956,3.5364,3.5961,5.5469,5.4592,5.3729,5.2855,5.2676,5.2676,5.2676,5.2676,5.2676,5.2676,5.2983,5.3322,5.366,5.327,5.2877,5.252,5.2316,5.1836,5.0984,5.1174,5.0793,4.9577,4.9222,4.8788,4.8192,4.7948,4.7351,4.6509,4.6509,4.6509,4.6509,4.6509,4.6509,4.6509,4.6509,4.6509,4.6509,4.6509,4.6509,4.6509,4.6509,4.6297,4.5954,4.5715,4.5421,4.5153,4.4803,4.4695,4.4695,4.4695,4.4695,4.4695,4.4695,4.4695,4.4695,4.4695,4.4695,4.4695,4.4695,4.4695,4.4616,4.4356,4.4095,4.3964,4.4251,4.3988,4.3621,4.3335,4.2938,4.2388,4.1517,4.1457,4.1242,4.0408,4.0378,4.03,3.9772,3.9697,3.9697,3.9697,3.9697,3.9645,3.9517,3.9128,3.8736,3.8421,3.8289,3.8133,3.8,3.8,3.8,3.8,3.8,3.8,3.8,3.8,3.8,3.8,3.8,3.8,3.8,3.8,3.7841,3.7548,3.7227,3.6796,3.6282,3.5982,3.5516,3.4963,3.4963,3.4791,3.4528,3.4797,3.5343,3.6093,5.5445,5.4476,5.3533,5.2833,5.2676,5.2676,5.2676,5.2676,5.2737,5.2883,5.3353,5.376,5.3883,5.3953,5.3528,5.2404,5.2489,5.2112,5.0989,5.1458,5.1266,5.0038,5.001,4.9466,4.8382,4.8327,4.7731,4.6509,4.6509,4.6509,4.6509,4.6509,4.6509,4.6509,4.6509,4.6509,4.6509,4.6509,4.6509,4.6509,4.6456,4.6218,4.5901,4.5635,4.5368,4.5072,4.4776,4.4695,4.4695,4.4695,4.4695,4.4695,4.4695,4.4695,4.4695,4.4695,4.4695,4.4695,4.4695,4.4695,4.4669,4.451,4.4145,4.378,4.3779,4.3151,4.2553,4.2423,4.2129,4.1707,4.1022,4.1619,4.1858,4.0827,4.0926,4.0851,3.9973,3.9747,3.9697,3.9697,3.9671,3.9516,3.918,3.871,3.8394,3.8342,3.813,3.8,3.8,3.8,3.8,3.8,3.8,3.8,3.8,3.8,3.8,3.8,3.799,3.8038,3.8118,3.8038,3.7738,3.7348,3.7064,3.6392,3.5518,3.534,3.4958,3.4507,3.4594,3.4616,3.4637,3.4812,3.5343,3.6071,5.5336,5.3975,5.2833,5.2698,5.2676,5.2676,5.2676,5.2676,5.2891,5.3476,5.3629,5.396,5.4642,5.4044,5.2908,5.1265,5.203,5.2112,5.0989,5.1458,5.1266,5.0038,5.001,4.9656,4.9005,4.8978,4.8137,4.6509,4.6509,4.6509,4.6509,4.6509,4.6509,4.6509,4.6509,4.6509,4.6509,4.6509,4.6509,4.6482,4.6192,4.5901,4.5635,4.5368,4.5045,4.4749,4.4722,4.4695,4.4695,4.4695,4.4695,4.4695,4.4695,4.4695,4.4695,4.4695,4.4695,4.4695,4.4695,4.4695,4.4536,4.3773,4.3511,4.3406,4.3164,4.286,4.2423,4.1698,4.2048,4.2163,4.1098,4.1619,4.1984,4.1302,4.0851,4.0549,4.0399,3.9998,3.9697,3.9697,3.9516,3.9128,3.8579,3.8447,3.8291,3.8053,3.8027,3.8,3.8,3.8,3.8,3.8,3.8,3.8,3.8,3.8,3.8,3.8024,3.7943,3.8183,3.8668,3.8156,3.8092,3.832,3.6853,3.6168,3.5927,3.4995,3.4568,3.4528,3.4971,3.5102,3.5212,3.6085,3.6246,3.6115,5.4674,5.3565,5.2676,5.2676,5.2676,5.2676,5.2676,5.2676,5.2922,5.3599,5.4029,5.431,5.443,5.358,5.2434,5.1045,5.1649,5.1649,5.0488,5.0962,5.0906,5.0038,5.001,4.971,4.9114,4.9087,4.8544,4.7459,4.716,4.6997,4.6997,4.6644,4.6509,4.6509,4.6509,4.6509,4.6509,4.6509,4.6376,4.6218,4.606,4.5742,4.5368,4.5234,4.4991,4.4695,4.4695,4.4695,4.4695,4.4695,4.4695,4.4695,4.4695,4.4695,4.4695,4.4695,4.4695,4.4695,4.4695,4.4378,4.4009,4.3926,4.3299,4.2725,4.2762,4.2406,4.2103,4.2047,4.2238,4.2225,4.172,4.2192,4.2361,4.1453,4.1102,4.0725,4.0149,3.9718,3.9388,3.9206,3.8971,3.8832,3.8861,3.8459,3.8251,3.8431,3.8166,3.8,3.8,3.8,3.8,3.8,3.8,3.8,3.8,3.8,3.7958,3.7946,3.7911,3.8056,3.8275,3.7952,3.7732,3.7548,3.6539,3.592,3.5537,3.4793,3.4507,3.455,3.5037,3.5212,3.5299,3.602,3.618,3.6093]},{"header":{"parameterUnit":"m.s-1","parameterCategory":1,"la1":30.6,"la2":28.766,"lo1":-90.7593,"lo2":-88.6598,"dy":0.0162,"dx":0.0183,"nx":116,"ny":114,"refTime":"2023-11-20T06:00:00:Z","depth":0,"parameterNumber":3,"parameterNumberName":"V-component_of_WINDS"},"data":[0.0,0.0,0.0,0.0,0.0,0.0,0.0,0.0,0.0,0.0,0.0,0.0,0.0,0.0,0.0,0.0,0.0,0.0,0.0,0.0,0.0,0.0,0.0,0.0,0.0,0.0,0.0,0.0,0.0,0.0,0.0,0.0,0.0,0.0,0.0,0.0,0.0,0.0,0.0,0.0,0.0,0.0,0.0,0.0,0.0,0.0,0.0,0.0,0.0,0.0,0.0,0.0,0.0,0.0,0.0,0.0,0.0,0.0,0.0,0.0,0.0,0.0,0.0,0.0,0.0,0.0,0.0,0.0,0.0,0.0,0.0,0.0,0.0,0.0,0.0,0.0,0.0,0.0,0.0,0.0,0.0,0.0,0.0,0.0,0.0,0.0,0.0,0.0,0.0,0.0,0.0,0.0,0.0,0.0,0.0,0.0,0.0,0.0,0.0,0.0,0.0,0.0,0.0,0.0,0.0,0.0,0.0,0.0,0.0,0.0,0.0,0.0,0.0,0.0,0.0,0.0,0.0,0.0,0.0,0.0,0.0,0.0,0.0,0.0,0.0,0.0,0.0,0.0,0.0,0.0,0.0,0.0,0.0,0.0,0.0,0.0,0.0,0.0,0.0,0.0,0.0,0.0,0.0,0.0,0.0,0.0,0.0,0.0,0.0,0.0,0.0,0.0,0.0,0.0,0.0,0.0,0.0,0.0,0.0,0.0,0.0,0.0,0.0,0.0,0.0,0.0,0.0,0.0,0.0,0.0,0.0,0.0,0.0,0.0,0.0,0.0,0.0,0.0,0.0,0.0,0.0,0.0,0.0,0.0,0.0,0.0,0.0,0.0,0.0,0.0,0.0,0.0,0.0,0.0,0.0,0.0,0.0,0.0,0.0,0.0,0.0,0.0,0.0,0.0,0.0,0.0,0.0,0.0,0.0,0.0,0.0,0.0,0.0,0.0,0.0,0.0,0.0,0.0,0.0,0.0,0.0,0.0,0.0,0.0,0.0,0.0,0.0,0.0,0.0,0.0,0.0,0.0,0.0,0.0,0.0,0.0,0.0,0.0,0.0,0.0,0.0,0.0,0.0,0.0,0.0,0.0,0.0,0.0,0.0,0.0,0.0,0.0,0.0,0.0,0.0,0.0,0.0,0.0,0.0,0.0,0.0,0.0,0.0,0.0,0.0,0.0,0.0,0.0,0.0,0.0,0.0,0.0,0.0,0.0,0.0,0.0,0.0,0.0,0.0,0.0,0.0,0.0,0.0,0.0,0.0,0.0,0.0,0.0,0.0,0.0,0.0,0.0,0.0,0.0,0.0,0.0,0.0,0.0,0.0,0.0,0.0,0.0,0.0,0.0,0.0,0.0,0.0,0.0,0.0,0.0,0.0,0.0,0.0,0.0,0.0,0.0,0.0,0.0,0.0,0.0,0.0,0.0,0.0,0.0,0.0,0.0,0.0,0.0,0.0,0.0,0.0,0.0,0.0,0.0,0.0,0.0,0.0,0.0,0.0,0.0,0.0,0.0,0.0,0.0,0.0,0.0,0.0,0.0,0.0,0.0,0.0,0.0,0.0,0.0,0.0,0.0,0.0,0.0,0.0,0.0,0.0,0.0,0.0,0.0,0.0,0.0,0.0,0.0,0.0,0.0,0.0,0.0,0.0,0.0,0.0,0.0,0.0,0.0,0.0,0.0,0.0,0.0,0.0,0.0,0.0,0.0,0.0,0.0,0.0,0.0,0.0,0.0,0.0,0.0,0.0,0.0,0.0,0.0,0.0,0.0,0.0,0.0,0.0,0.0,0.0,0.0,0.0,0.0,0.0,0.0,0.0,0.0,0.0,0.0,0.0,0.0,0.0,0.0,0.0,0.0,0.0,0.0,0.0,0.0,0.0,0.0,0.0,0.0,0.0,0.0,0.0,0.0,0.0,0.0,0.0,0.0,0.0,0.0,0.0,0.0,0.0,0.0,0.0,0.0,0.0,0.0,0.0,0.0,0.0,0.0,0.0,0.0,0.0,0.0,0.0,0.0,0.0,0.0,0.0,0.0,0.0,0.0,0.0,0.0,0.0,0.0,0.0,0.0,0.0,0.0,0.0,0.0,0.0,0.0,0.0,0.0,0.0,0.0,0.0,0.0,0.0,0.0,0.0,0.0,0.0,0.0,0.0,0.0,0.0,0.0,0.0,0.0,0.0,0.0,0.0,0.0,0.0,0.0,0.0,0.0,0.0,0.0,0.0,0.0,0.0,0.0,0.0,0.0,0.0,0.0,0.0,0.0,0.0,0.0,0.0,0.0,0.0,0.0,0.0,0.0,0.0,0.0,0.0,0.0,0.0,0.0,0.0,0.0,0.0,0.0,0.0,0.0,0.0,0.0,0.0,0.0,0.0,0.0,0.0,0.0,0.0,0.0,0.0,0.0,0.0,0.0,0.0,0.0,0.0,0.0,0.0,0.0,0.0,0.0,0.0,0.0,0.0,0.0,0.0,0.0,0.0,0.0,0.0,0.0,0.0,0.0,0.0,0.0,0.0,0.0,0.0,0.0,0.0,0.0,0.0,0.0,0.0,0.0,0.0,0.0,0.0,0.0,0.0,0.0,0.0,0.0,0.0,0.0,0.0,0.0,0.0,0.0,0.0,0.0,0.0,0.0,0.0,0.0,0.0,0.0,0.0,0.0,0.0,0.0,0.0,0.0,0.0,0.0,0.0,0.0,0.0,0.0,0.0,0.0,0.0,0.0,0.0,0.0,0.0,0.0,0.0,0.0,0.0,0.0,0.0,0.0,0.0,0.0,0.0,0.0,0.0,0.0,0.0,0.0,0.0,0.0,0.0,0.0,0.0,0.0,0.0,0.0,0.0,0.0,0.0,0.0,0.0,0.0,0.0,0.0,0.0,0.0,0.0,0.0,0.0,0.0,0.0,0.0,0.0,0.0,0.0,0.0,0.0,0.0,0.0,0.0,0.0,0.0,0.0,0.0,0.0,0.0,0.0,0.0,0.0,0.0,0.0,0.0,0.0,0.0,0.0,0.0,0.0,0.0,0.0,0.0,0.0,0.0,0.0,0.0,0.0,0.0,0.0,0.0,0.0,0.0,0.0,0.0,0.0,0.0,0.0,0.0,0.0,0.0,0.0,0.0,0.0,0.0,0.0,0.0,0.0,0.0,0.0,0.0,0.0,0.0,0.0,0.0,0.0,0.0,0.0,0.0,0.0,0.0,0.0,0.0,0.0,0.0,0.0,0.0,0.0,0.0,0.0,0.0,0.0,0.0,0.0,0.0,0.0,0.0,0.0,0.0,0.0,0.0,0.0,0.0,0.0,0.0,0.0,0.0,0.0,0.0,0.0,0.0,0.0,0.0,0.0,0.0,0.0,0.0,0.0,0.0,0.0,0.0,0.0,0.0,0.0,0.0,0.0,0.0,0.0,0.0,0.0,0.0,0.0,0.0,0.0,0.0,0.0,0.0,0.0,0.0,0.0,0.0,0.0,0.0,0.0,0.0,0.0,0.0,0.0,0.0,0.0,0.0,0.0,0.0,0.0,0.0,0.0,0.0,0.0,0.0,0.0,0.0,0.0,0.0,0.0,0.0,0.0,0.0,0.0,0.0,0.0,0.0,0.0,0.0,0.0,0.0,0.0,0.0,0.0,0.0,0.0,0.0,0.0,0.0,0.0,0.0,0.0,0.0,0.0,0.0,0.0,0.0,0.0,0.0,0.0,0.0,0.0,0.0,0.0,0.0,0.0,0.0,0.0,0.0,0.0,0.0,0.0,0.0,0.0,0.0,0.0,0.0,0.0,0.0,0.0,0.0,0.0,0.0,0.0,0.0,0.0,0.0,0.0,0.0,0.0,0.0,0.0,0.0,0.0,0.0,0.0,0.0,0.0,0.0,0.0,0.0,0.0,0.0,0.0,0.0,0.0,0.0,0.0,0.0,0.0,0.0,0.0,0.0,0.0,0.0,0.0,0.0,0.0,0.0,0.0,0.0,0.0,0.0,0.0,0.0,0.0,0.0,0.0,0.0,0.0,0.0,0.0,0.0,0.0,0.0,0.0,0.0,0.0,0.0,0.0,0.0,0.0,0.0,0.0,0.0,0.0,0.0,0.0,0.0,0.0,0.0,0.0,0.0,0.0,0.0,0.0,0.0,0.0,0.0,0.0,0.0,0.0,0.0,0.0,0.0,0.0,0.0,0.0,0.0,0.0,0.0,0.0,0.0,0.0,0.0,0.0,0.0,0.0,0.0,0.0,0.0,0.0,0.0,0.0,0.0,0.0,0.0,0.0,0.0,0.0,0.0,0.0,0.0,0.0,0.0,0.0,0.0,0.0,0.0,0.0,0.0,0.0,0.0,0.0,0.0,0.0,0.0,0.0,0.0,0.0,0.0,0.0,0.0,0.0,0.0,0.0,0.0,0.0,0.0,0.0,0.0,0.0,0.0,0.0,0.0,0.0,0.0,0.0,0.0,0.0,0.0,0.0,0.0,0.0,0.0,0.0,0.0,0.0,0.0,0.0,0.0,0.0,0.0,0.0,0.0,0.0,0.0,0.0,0.0,0.0,0.0,0.0,0.0,0.0,0.0,0.0,0.0,0.0,0.0,0.0,0.0,0.0,0.0,0.0,0.0,0.0,0.0,0.0,0.0,0.0,0.0,0.0,0.0,0.0,0.0,0.0,0.0,0.0,0.0,0.0,0.0,0.0,0.0,0.0,0.0,0.0,0.0,0.0,0.0,0.0,0.0,0.0,0.0,0.0,0.0,0.0,0.0,0.0,0.0,0.0,0.0,0.0,0.0,0.0,0.0,0.0,0.0,0.0,0.0,0.0,0.0,0.0,0.0,0.0,0.0,0.0,0.0,0.0,0.0,0.0,0.0,0.0,0.0,0.0,0.0,0.0,0.0,0.0,0.0,0.0,0.0,0.0,0.0,0.0,0.0,0.0,0.0,0.0,0.0,0.0,0.0,0.0,0.0,0.0,0.0,0.0,0.0,0.0,0.0,0.0,0.0,0.0,0.0,0.0,0.0,0.0,0.0,0.0,0.0,0.0,0.0,0.0,0.0,0.0,0.0,0.0,0.0,0.0,0.0,0.0,0.0,0.0,0.0,0.0,0.0,0.0,0.0,0.0,0.0,0.0,0.0,0.0,0.0,0.0,0.0,0.0,0.0,0.0,0.0,0.0,0.0,0.0,0.0,0.0,0.0,0.0,0.0,0.0,0.0,0.0,0.0,0.0,0.0,0.0,0.0,0.0,0.0,0.0,0.0,0.0,0.0,0.0,0.0,0.0,0.0,0.0,0.0,0.0,0.0,0.0,0.0,0.0,0.0,0.0,0.0,0.0,0.0,0.0,0.0,0.0,0.0,0.0,0.0,0.0,0.0,0.0,0.0,0.0,0.0,0.0,0.0,0.0,0.0,0.0,0.0,0.0,0.0,0.0,0.0,0.0,0.0,0.0,0.0,0.0,0.0,0.0,0.0,0.0,0.0,0.0,0.0,0.0,0.0,0.0,0.0,0.0,0.0,0.0,0.0,0.0,0.0,0.0,0.0,0.0,0.0,0.0,0.0,0.0,0.0,0.0,0.0,0.0,0.0,0.0,0.0,0.0,0.0,0.0,0.0,0.0,0.0,0.0,0.0,0.0,0.0,0.0,0.0,0.0,0.0,0.0,0.0,0.0,0.0,0.0,0.0,0.0,0.0,0.0,0.0,0.0,0.0,0.0,0.0,0.0,0.0,0.0,0.0,0.0,0.0,0.0,0.0,0.0,0.0,0.0,0.0,0.0,0.0,0.0,0.0,0.0,0.0,0.0,0.0,0.0,0.0,0.0,0.0,0.0,0.0,0.0,0.0,0.0,0.0,0.0,0.0,0.0,0.0,0.0,0.0,0.0,0.0,0.0,0.0,0.0,0.0,0.0,0.0,0.0,0.0,0.0,0.0,0.0,0.0,0.0,0.0,0.0,0.0,0.0,0.0,0.0,0.0,0.0,0.0,0.0,0.0,0.0,0.0,0.0,0.0,0.0,0.0,0.0,0.0,0.0,0.0,0.0,0.0,0.0,0.0,0.0,0.0,0.0,0.0,0.0,0.0,0.0,0.0,0.0,0.0,0.0,0.0,0.0,0.0,1.9052,0.0,0.0,0.0,0.0,0.0,0.0,0.0,0.0,0.0,0.0,0.0,0.0,0.0,0.0,0.0,0.0,0.0,0.0,0.0,0.0,0.0,0.0,0.0,0.0,0.0,0.0,0.0,0.0,0.0,0.0,0.0,0.0,0.0,0.0,0.0,0.0,0.0,0.0,0.0,0.0,0.0,0.0,0.0,0.0,0.0,0.0,0.0,0.0,0.0,0.0,0.0,0.0,0.0,0.0,0.0,0.0,0.0,0.0,0.0,0.0,0.0,0.0,0.0,0.0,0.0,0.0,0.0,0.0,0.0,0.0,0.0,0.0,0.0,0.0,0.0,0.0,0.0,0.0,0.0,0.0,0.0,0.0,0.0,0.0,0.0,0.0,0.0,0.0,0.0,0.0,0.0,0.0,0.0,0.0,0.0,0.0,0.0,0.0,0.0,0.0,0.0,0.0,0.0,0.0,0.0,0.0,0.0,0.0,0.0,0.0,0.0,0.0,0.0,0.0,0.0,0.0,1.9539,0.0,0.0,0.0,0.0,0.0,0.0,0.0,0.0,0.0,0.0,0.0,0.0,0.0,0.0,0.0,0.0,0.0,0.0,0.0,0.0,0.0,0.0,0.0,0.0,0.0,0.0,0.9549,1.0002,1.0128,1.1213,1.2112,1.268,1.3278,1.3802,1.4254,0.0,0.0,0.0,0.0,0.0,0.0,0.0,0.0,0.0,0.0,0.0,0.0,0.0,0.0,0.0,0.0,0.0,0.0,0.0,0.0,0.0,0.0,0.0,0.0,0.0,0.0,0.0,0.0,0.0,0.0,0.0,0.0,0.0,0.0,0.0,0.0,0.0,0.0,0.0,0.0,0.0,0.0,0.0,0.0,0.0,0.0,0.0,0.0,0.0,0.0,0.0,0.0,0.0,0.0,0.0,0.0,0.0,0.0,0.0,0.0,0.0,0.0,0.0,0.0,0.0,0.0,0.0,0.0,0.0,0.0,0.0,0.0,0.0,2.3534,2.3958,2.4398,2.4244,2.4827,2.5779,2.2589,2.2005,2.3271,0.0,0.0,0.0,0.0,0.0,0.0,0.0,0.0,0.0,0.0,0.0,0.0,0.0,0.0,0.0,0.0,0.0,0.0,0.0,0.0,0.0,0.0,0.9211,0.9497,0.9497,1.0105,1.0541,1.0681,1.1343,1.2023,1.268,1.348,1.4228,1.4874,1.5333,0.0,0.0,0.0,0.0,2.327,2.3335,2.3849,2.4561,2.2318,0.0,0.0,0.0,0.0,0.0,0.0,0.0,0.0,0.0,0.0,0.0,0.0,0.0,0.0,0.0,0.0,0.0,0.0,0.0,0.0,0.0,0.0,0.0,0.0,0.0,0.0,0.0,0.0,0.0,0.0,0.0,0.0,0.0,0.0,0.0,0.0,0.0,0.0,0.0,0.0,0.0,0.0,0.0,2.2602,2.2596,0.0,0.0,0.0,0.0,0.0,0.0,0.0,0.0,0.0,0.0,0.0,0.0,0.0,2.5274,2.5352,2.6904,2.7442,2.699,2.7494,2.7418,2.6843,2.6803,2.7165,2.7688,2.6725,0.0,2.4052,2.385,0.0,0.0,0.0,0.0,0.0,0.0,0.0,0.0,0.0,0.0,0.0,0.0,0.0,0.0,0.0,0.0,0.0,0.0,0.0,0.0,0.0,0.9471,0.9944,0.9944,1.1198,1.1974,1.1874,1.2601,1.3262,1.3741,1.4214,1.476,1.5379,1.5916,0.0,0.0,2.2115,2.3809,2.5101,2.5396,2.5763,2.6147,2.4699,2.3688,2.3103,2.3103,0.0,0.0,0.0,0.0,0.0,0.0,0.0,0.0,0.0,0.0,0.0,0.0,0.0,0.0,0.0,0.0,0.0,0.0,0.0,0.0,0.0,0.0,0.0,0.0,0.0,0.0,0.0,0.0,0.0,0.0,0.0,0.0,0.0,0.0,0.0,0.0,0.0,0.0,0.0,2.3328,2.3812,2.3739,2.4263,2.4386,0.0,0.0,0.0,0.0,0.0,0.0,0.0,0.0,0.0,2.607,2.7095,2.7539,2.7368,2.9031,2.9581,2.9051,2.9893,3.0276,3.0217,3.0217,3.0523,3.1018,3.076,2.9648,2.7854,2.6542,2.5085,2.3653,0.0,0.0,0.0,0.0,2.2103,2.2096,0.0,0.0,0.0,0.0,0.0,0.0,0.0,0.0,0.0,0.0,0.0,0.0,0.9336,1.0314,1.0942,1.0942,1.2478,1.3349,1.3082,1.3607,1.4194,1.4724,1.4915,1.5379,1.6233,1.7418,0.0,0.0,2.4188,2.5739,2.6935,2.7325,2.7589,2.7709,2.7152,2.6045,2.4571,2.4162,2.3537,0.0,0.0,0.0,0.0,0.0,0.0,0.0,0.0,0.0,0.0,0.0,0.0,0.0,0.0,0.0,0.0,0.0,0.0,0.0,0.0,0.0,0.0,0.0,0.0,0.0,0.0,0.0,0.0,0.0,0.0,0.0,0.0,0.0,0.0,0.0,0.0,0.0,0.0,2.4145,2.4705,2.4705,2.5306,2.5498,0.0,0.0,0.0,0.0,0.0,0.0,2.6887,2.7526,2.8076,2.8502,2.9289,2.9627,2.9512,3.0853,3.131,3.0949,3.1719,3.2321,3.2707,3.2707,3.2923,3.3284,3.3284,3.2634,3.1358,2.9196,2.7579,2.6442,2.5879,2.5167,2.4486,2.4687,2.4885,2.5044,0.0,0.0,0.0,0.0,0.0,0.0,0.0,0.0,0.0,0.0,0.0,0.9901,1.0792,1.2114,1.2952,1.2952,1.3847,1.4319,1.4053,1.3709,1.4015,1.5121,1.5362,1.6199,1.7756,2.0505,0.0,2.5103,2.6225,2.7589,2.9148,2.9172,2.9436,2.9938,2.9364,2.8238,2.6633,2.5114,2.4441,2.4297,0.0,0.0,0.0,0.0,0.0,0.0,0.0,0.0,0.0,0.0,0.0,0.0,0.0,0.0,0.0,0.0,0.0,0.0,0.0,0.0,0.0,0.0,0.0,0.0,0.0,0.0,0.0,0.0,0.0,0.0,0.0,0.0,0.0,0.0,0.0,0.0,0.0,0.0,0.0,2.5258,2.6195,0.0,0.0,0.0,0.0,2.7493,2.7565,2.8022,2.9076,2.9175,2.9677,3.0708,3.1286,3.1793,3.2298,3.2875,3.3187,3.3139,3.3188,3.3212,3.326,3.326,3.326,3.3284,3.3284,3.3236,3.3044,3.1384,2.9337,2.7238,2.7195,2.6705,2.6086,2.6846,2.6664,2.6151,0.0,0.0,0.0,0.0,0.0,0.0,0.0,0.0,0.0,0.9041,0.9604,1.0302,1.1168,1.2819,1.4089,1.459,1.5499,1.5898,1.5541,1.5133,1.5389,1.6437,1.6686,1.7838,2.0096,2.2169,2.409,2.5805,2.8554,3.0537,3.1783,3.3119,3.3828,3.4007,3.3466,3.2546,3.1174,2.795,2.5955,2.497,2.4626,2.3761,0.0,0.0,0.0,0.0,0.0,0.0,0.0,0.0,0.0,0.0,0.0,0.0,0.0,0.0,0.0,0.0,0.0,0.0,0.0,0.0,0.0,0.0,0.0,0.0,0.0,0.0,0.0,0.0,0.0,0.0,0.0,0.0,0.0,0.0,0.0,0.0,0.0,2.7277,2.7998,0.0,2.8186,2.833,2.8502,2.8715,2.9364,2.9938,3.0323,3.0975,3.1529,3.1913,3.2755,3.314,3.302,3.3861,3.4078,3.3742,3.4102,3.427,3.427,3.427,3.427,3.427,3.427,3.4054,3.3717,3.3117,3.1805,3.011,2.9754,2.9232,2.8717,2.9011,2.9138,2.9183,0.0,0.0,0.0,0.0,0.0,0.0,0.0,0.0,0.0,0.9316,1.0408,1.1491,1.2344,1.4209,1.5588,1.6119,1.6736,1.6854,1.6341,1.6032,1.6189,1.687,1.8023,1.9848,2.2383,2.4025,2.5799,2.7724,3.0478,3.2437,3.3676,3.5193,3.5991,3.617,3.5824,3.5297,3.447,3.117,2.8475,2.6358,2.5979,2.4994,2.3753,0.0,0.0,0.0,0.0,0.0,0.0,0.0,0.0,0.0,0.0,0.0,0.0,0.0,0.0,0.0,0.0,0.0,0.0,0.0,0.0,0.0,0.0,0.0,0.0,0.0,0.0,0.0,0.0,0.0,0.0,0.0,0.0,0.0,0.0,0.0,2.8238,2.8955,2.9677,3.0058,2.9845,3.0158,3.0374,3.0374,3.1214,3.1791,3.1937,3.2803,3.338,3.3549,3.4366,3.4751,3.4607,3.5112,3.5256,3.5087,3.5256,3.5328,3.5328,3.5328,3.5328,3.5328,3.5328,3.5135,3.4823,3.4823,3.3982,3.2682,3.1984,3.1502,3.119,3.119,3.1406,3.1671,0.0,0.0,0.0,0.0,0.0,0.0,0.0,0.9237,0.9769,1.0308,1.1955,1.3456,1.4417,1.6305,1.7513,1.7532,1.7513,1.7165,1.6412,1.6245,1.6262,1.6444,1.9373,2.2123,2.4561,2.6153,2.8282,3.0968,3.1882,3.3176,3.4852,3.5262,3.5789,3.6336,3.6363,3.6341,3.6227,3.4718,3.2049,2.865,2.7464,2.6316,2.5252,0.0,0.0,0.0,0.0,0.0,0.0,0.0,0.0,0.0,0.0,0.0,0.0,0.0,0.0,0.0,0.0,0.0,0.0,0.0,0.0,0.0,0.0,0.0,0.0,0.0,0.0,0.0,0.0,0.0,0.0,0.0,0.0,0.0,2.8595,2.9484,3.0182,3.0251,3.1165,3.1599,3.1093,3.2008,3.2611,3.2611,3.3116,3.3621,3.4078,3.4631,3.5135,3.564,3.6194,3.6699,3.7204,3.6723,3.6699,3.718,3.6675,3.6411,3.6411,3.6411,3.6411,3.6411,3.6411,3.6411,3.6411,3.6411,3.5809,3.4751,3.3741,3.3308,3.3284,3.3284,3.3284,3.3284,0.0,0.0,0.0,0.0,0.0,0.0,0.0,0.8844,0.9106,0.9744,1.1653,1.3415,1.4646,1.6665,1.8045,1.8338,1.7844,1.747,1.7392,1.6557,1.7094,1.9446,2.2011,2.4443,2.6772,2.8022,2.9926,3.2489,3.4238,3.5869,3.742,3.8628,3.9305,3.9471,3.9913,3.9733,3.9083,3.872,3.7083,3.4384,3.027,2.7757,2.6388,0.0,0.0,0.0,0.0,0.0,0.0,0.0,0.0,0.0,0.0,0.0,0.0,0.0,0.0,0.0,0.0,0.0,0.0,0.0,0.0,0.0,0.0,0.0,0.0,0.0,0.0,0.0,0.0,0.0,0.0,0.0,0.0,3.0684,3.0299,3.1144,3.225,3.3357,3.3766,3.4054,3.4294,3.4583,3.4919,3.5304,3.5809,3.6338,3.6867,3.7036,3.718,3.7324,3.7469,3.7613,3.7784,3.7613,3.7421,3.7204,3.7036,3.6771,3.6411,3.6411,3.6411,3.6411,3.6411,3.6411,3.6411,3.6411,3.6242,3.5881,3.4799,3.3958,3.3284,3.3284,3.3284,3.3284,0.0,0.0,0.0,0.0,0.0,0.0,0.0,0.8923,0.9292,1.008,1.2261,1.4181,1.5358,1.7207,1.8375,1.8448,1.7951,1.7536,1.7315,1.7403,1.8726,2.1567,2.3915,2.6234,2.8486,3.0076,3.1946,3.4114,3.5878,3.7424,3.876,4.0083,4.0828,4.1109,4.1727,4.172,4.1176,4.0786,3.9785,3.8082,3.3953,3.115,2.9366,2.8217,2.744,2.6887,2.6123,2.5955,2.5925,2.4812,0.0,0.0,0.0,0.0,0.0,0.0,0.0,0.0,0.0,0.0,0.0,0.0,0.0,0.0,0.0,0.0,0.0,0.0,0.0,0.0,0.0,0.0,0.0,0.0,3.1625,3.2779,3.314,3.3741,3.4487,3.5352,3.5881,3.617,3.6266,3.6699,3.6988,3.706,3.7565,3.7902,3.8,3.819,3.8334,3.8334,3.8551,3.8767,3.8984,3.8767,3.8503,3.8214,3.7974,3.7709,3.7421,3.718,3.7204,0.0,3.7156,3.706,3.706,3.706,3.694,0.0,0.0,0.0,0.0,0.0,3.4463,3.427,0.0,0.0,0.0,0.0,0.0,0.0,0.0,0.9198,0.9862,1.0875,1.3184,1.5103,1.6055,1.7587,1.8411,1.8063,1.7802,1.7453,1.6959,1.8654,2.0773,2.3137,2.5451,2.7731,3.0005,3.2247,3.4177,3.5833,3.7161,3.8396,3.9496,4.0439,4.1193,4.1733,4.2424,4.2705,4.2638,4.1819,4.1169,4.0455,3.801,3.5573,3.3165,3.1141,3.0062,2.9532,2.8454,2.7488,2.6622,2.5973,0.0,0.0,0.0,0.0,0.0,0.0,0.0,0.0,0.0,0.0,0.0,0.0,0.0,0.0,0.0,0.0,0.0,0.0,0.0,0.0,0.0,0.0,0.0,0.0,3.3284,3.4871,3.6362,3.6795,3.6867,3.6699,3.7565,3.7974,3.7517,3.8334,3.8719,3.8313,3.8719,3.8815,3.8385,0.0,0.0,0.0,0.0,4.0018,4.0475,4.0018,3.9753,3.9681,3.9224,3.8933,3.886,3.8334,3.8383,3.8836,3.8238,3.8022,3.8096,3.8024,3.7735,3.7228,3.6627,3.6411,3.6411,3.6411,3.6098,3.5664,0.0,0.0,0.0,0.0,0.0,0.0,0.0,0.8883,0.9442,1.0821,1.2607,1.4181,1.5218,1.6762,1.7697,1.7623,1.7153,1.7428,0.0,0.0,2.2226,2.528,2.721,2.9529,3.2228,3.409,3.5995,3.793,3.9114,4.0172,4.1155,4.1886,4.2311,4.2452,4.3048,4.3329,4.3357,4.365,4.344,4.2762,4.1435,3.8588,3.4896,3.2822,3.1961,3.1745,3.0684,3.0419,3.0395,2.8979,2.845,2.8234,2.7349,0.0,0.0,0.0,0.0,0.0,0.0,0.0,0.0,0.0,0.0,0.0,0.0,0.0,0.0,0.0,0.0,0.0,0.0,0.0,0.0,3.2898,3.5016,3.6843,3.7591,3.9176,3.9777,3.8503,3.8912,3.9248,3.9152,3.932,3.9585,3.9898,4.0018,4.0234,4.0547,4.0667,4.0739,4.0739,4.0836,4.0932,4.1028,4.0932,4.0667,4.0234,0.0,0.0,3.9441,3.8912,3.896,3.9393,3.8407,3.8238,3.8623,3.8166,3.7952,3.776,3.6771,3.6411,3.6411,3.6411,3.6338,3.6194,0.0,0.0,0.0,0.0,0.0,0.0,0.0,0.8791,0.9323,1.0808,1.2277,1.3616,1.4678,1.5881,1.6549,1.6421,1.67,0.0,0.0,2.1841,2.3996,2.6863,2.9291,3.1508,3.3466,3.5768,3.7618,3.9021,3.9967,4.1035,4.2121,4.2452,4.2761,4.3076,4.3666,4.3947,4.3975,4.4284,4.4228,4.3854,4.2837,4.0792,3.8159,3.6048,3.4747,3.3958,3.314,3.2683,3.2297,3.0949,3.0323,2.9893,2.8835,2.7969,2.72,0.0,0.0,0.0,0.0,0.0,0.0,0.0,0.0,0.0,0.0,0.0,0.0,0.0,0.0,3.0254,0.0,0.0,3.4006,3.5064,3.6795,3.8286,3.908,4.0331,4.0691,3.9369,4.0138,4.0691,4.0427,4.0403,4.0619,4.1177,4.1201,4.1321,4.1586,4.161,4.161,4.161,4.1345,4.1201,4.1201,4.1201,4.0908,4.0403,4.0403,4.0258,3.9994,3.9437,3.9513,3.9946,3.8864,3.8551,3.874,3.8214,3.8,3.7952,3.7397,3.7204,3.7204,3.7204,3.7036,3.6771,0.0,0.0,0.0,0.0,0.0,0.0,0.0,0.0,0.9297,1.0808,1.193,1.302,1.415,1.4925,1.5367,1.5366,1.6728,0.0,0.0,2.3276,2.5509,2.8193,3.0845,3.2895,3.4219,3.6828,3.8612,3.9474,4.0531,4.1587,4.2621,4.2846,4.3188,4.3694,4.42,4.4401,4.4401,4.4401,4.4401,4.4303,4.3467,4.2477,4.1314,3.9365,3.7444,3.5664,3.5039,3.4102,3.2996,3.2152,3.1358,3.0612,2.9845,2.9172,2.8474,2.7493,2.7042,0.0,0.0,0.0,0.0,0.0,0.0,0.0,0.0,0.0,2.9268,3.0347,3.1069,3.1913,3.3332,3.4583,3.5857,3.7132,3.8431,3.9585,4.0427,4.1129,4.1153,4.0186,4.1321,4.1995,4.1562,4.1514,4.1706,4.2116,4.2164,4.2116,4.2019,4.2091,4.2116,4.1995,4.1586,4.1369,4.1369,4.1244,4.098,4.0547,4.0547,4.0547,4.0523,3.9994,4.0042,4.0499,3.9537,3.8981,3.8791,3.8334,3.807,3.8,3.8,3.8,3.8,3.8,3.7735,3.7324,0.0,0.0,0.0,0.0,0.0,0.0,0.0,0.0,0.0,1.0795,1.1328,1.2037,1.33,1.3842,1.4516,1.5567,0.0,0.0,2.2376,2.3971,2.6175,2.9206,3.074,3.253,3.4665,3.6557,3.8107,3.9333,4.1374,4.2452,4.2621,4.3694,4.4228,4.4312,4.4369,4.4401,4.4401,4.4401,4.4401,4.4401,4.4256,4.3563,4.2474,4.1286,3.8944,3.6194,3.5159,3.3838,3.2563,3.2442,3.1408,3.0251,3.0612,3.0034,2.91,2.8502,0.0,2.6873,2.6753,2.6801,2.6994,2.7493,2.7974,2.8595,0.0,0.0,3.0949,3.201,3.2972,3.3862,3.4511,3.629,3.7685,3.788,3.9613,4.0956,4.1076,4.1995,4.2404,4.1803,4.2308,4.2669,4.2621,4.2621,4.2645,4.2693,4.2693,4.2501,4.2019,4.2452,4.2477,4.2019,4.1947,4.1923,4.1923,4.1442,4.1177,4.11,4.11,4.11,4.1076,4.0547,4.0595,4.1105,4.0475,3.9681,3.8788,3.8743,3.8431,3.8,3.8,3.8,3.8,3.8,3.7976,3.7856,0.0,0.0,0.0,0.0,0.0,0.0,0.0,0.0,0.0,0.0,1.0638,1.1334,1.2053,1.3022,1.4081,0.0,0.0,0.0,2.253,2.4678,2.7047,2.9802,3.1993,3.381,3.5226,3.695,3.8451,3.9807,4.1023,4.2133,4.3132,4.3638,4.4059,4.4401,4.4401,4.4401,4.4401,4.4766,4.471,4.4429,4.4766,4.3702,4.176,4.0681,3.8259,3.5376,3.4607,3.3549,0.0,0.0,3.1117,3.066,3.119,3.0419,2.9244,2.9027,2.819,0.0,2.7757,2.783,0.0,0.0,2.9484,3.0182,3.124,3.213,3.302,3.4078,3.5136,3.6218,3.737,3.8575,3.9585,0.0,4.1345,4.214,4.214,4.2525,4.2597,4.2067,4.2477,4.2789,4.2789,4.2789,4.291,4.3168,4.3192,4.3096,4.288,4.3072,4.3096,4.288,4.2621,4.2452,4.2452,4.1947,4.1682,4.1658,4.1369,4.1201,4.1201,4.0956,4.0812,4.0715,4.0499,3.997,3.9272,3.9272,3.896,3.8479,3.8479,3.8262,3.8,3.8,3.8,3.7976,0.0,0.0,0.0,0.0,0.0,0.0,0.0,0.0,0.0,0.0,0.0,1.0859,1.1605,1.2812,1.4024,0.0,0.0,0.0,0.0,2.4724,2.7162,2.9688,3.2156,3.3956,3.5039,3.672,3.8355,3.9887,4.0758,4.1958,4.3497,4.3666,4.3975,4.4401,4.4401,4.4401,4.4429,4.4879,4.4795,4.4429,4.4879,4.3492,4.1086,3.9838,3.7304,3.4286,3.3618,3.2611,0.0,0.0,3.0155,3.0107,3.066,3.0034,2.9076,2.9076,2.8526,2.8046,2.8551,0.0,0.0,3.0446,3.1264,3.2034,3.3116,3.415,3.5183,3.6265,3.7228,3.8262,3.9585,4.0258,4.0908,4.1851,4.2332,4.2621,4.2765,4.2549,4.2212,4.1827,4.1995,4.2188,4.2332,4.2741,4.312,4.3481,4.3619,4.3673,4.3529,4.3619,4.3643,4.3475,4.3168,4.3006,4.3006,4.2477,4.2212,4.2212,4.1827,4.1562,4.1418,4.1273,4.098,4.0619,4.0619,4.0306,3.9826,3.9826,3.9513,3.9005,3.8836,3.8575,3.8217,3.8152,3.8106,3.8106,0.0,0.0,0.0,0.0,0.0,0.0,0.0,0.0,0.0,0.0,0.0,0.0,0.0,0.0,0.0,0.0,0.0,0.0,0.0,2.3815,2.6063,2.8632,3.0261,3.1926,3.372,3.5465,3.7264,3.9121,4.0913,4.2374,4.3497,4.4116,4.4397,4.4401,4.4401,4.4401,4.4401,4.4401,4.4401,4.4401,4.4401,4.3134,4.1024,3.9429,3.6522,3.3226,3.214,0.0,0.0,0.0,2.8214,2.7902,2.843,2.8551,0.0,2.8502,2.8502,2.8575,0.0,0.0,3.0422,3.2034,3.3165,3.4198,3.5256,3.6338,3.7421,3.8476,3.9125,3.9705,4.0258,4.0812,4.1369,4.1923,4.2019,4.2212,4.2717,4.1899,4.1249,4.1249,4.0763,4.0667,0.0,4.2591,4.3505,4.3505,4.3979,4.4051,4.3553,4.4003,4.4051,4.3529,4.3505,4.3481,4.3481,4.3006,4.2765,4.2765,4.2741,4.2477,4.1971,4.1442,4.1201,4.1201,4.1201,4.086,4.0379,4.0379,4.0066,3.9537,3.8981,3.8788,3.8719,3.8483,3.8394,3.8394,0.0,0.0,0.0,0.0,0.0,0.0,0.0,0.0,0.0,0.0,0.0,0.0,0.0,0.0,0.0,0.0,0.0,0.0,0.0,2.319,2.5601,2.7159,2.9665,3.1507,3.2624,3.3908,3.5552,3.7511,3.9192,4.0608,4.1791,4.3192,4.3807,4.3835,4.4228,4.4401,4.4429,4.4823,4.3933,4.231,4.2696,4.0918,3.7813,3.5881,3.3726,3.144,0.0,0.0,0.0,0.0,2.6791,2.6772,2.7685,0.0,2.6983,2.7325,2.9311,3.1215,3.0539,0.0,3.4085,3.5402,3.5672,3.6154,3.8357,3.8823,3.9008,3.9705,3.9441,3.9248,3.9777,3.9729,3.9898,4.0787,4.1827,4.2477,4.2284,4.226,4.173,4.0306,4.0282,0.0,0.0,0.0,0.0,4.3457,4.3667,4.3835,4.4027,4.4189,4.4244,4.4051,4.4027,4.4027,4.4027,4.3529,4.3265,4.3241,4.2597,4.1995,4.1466,4.1297,4.1201,4.1201,4.1201,4.1105,4.0908,4.0908,4.0595,4.0114,3.9946,3.9441,3.8818,3.8922,3.8819,3.8684,0.0,0.0,0.0,0.0,0.0,0.0,0.0,0.0,0.0,0.0,0.0,0.0,0.0,0.0,0.0,0.0,0.0,0.0,0.0,0.0,2.3709,2.5325,2.7598,2.9238,3.0085,3.1368,3.2889,3.4594,3.6607,3.8202,3.9414,4.1072,4.1952,4.2177,4.257,4.2721,4.262,4.3037,4.1773,3.9555,3.9955,3.7938,3.4552,3.3018,3.1212,0.0,0.0,0.0,0.0,2.5925,2.5805,2.5925,2.6628,2.6832,2.7011,2.8041,3.0603,3.3239,3.3676,3.5271,3.7232,3.9051,3.9146,3.9238,4.1004,4.0941,4.0425,4.015,3.9272,3.8575,3.8719,3.831,3.831,3.9369,4.0407,4.1177,4.1394,4.1394,4.098,4.0018,3.985,3.9705,0.0,0.0,0.0,4.2615,4.3192,4.3643,4.4003,4.422,4.4285,4.4285,4.4285,4.4285,4.4285,4.3955,4.3667,4.3505,4.2693,4.1995,4.149,4.1297,4.1201,4.1201,4.1201,4.1201,4.1201,4.1201,4.1066,4.0813,4.062,4.0072,3.9434,3.9484,3.9308,3.8971,0.0,0.0,0.0,0.0,0.0,0.0,0.0,0.0,0.0,0.0,0.0,0.0,0.0,0.0,0.0,0.0,0.0,0.0,0.0,0.0,0.0,2.3091,2.4256,2.5302,2.6375,2.8056,2.9491,3.0639,3.3301,3.5168,3.6313,3.7901,3.8953,3.9515,3.962,3.9485,3.9229,3.9229,3.8064,3.626,3.626,3.4365,3.1453,3.0911,0.0,0.0,0.0,0.0,0.0,0.0,0.0,0.0,0.0,2.669,2.8566,3.0482,3.2452,3.4714,3.8137,3.916,3.9926,4.2648,4.323,4.3101,4.3108,4.2549,4.1531,3.994,3.868,3.774,0.0,0.0,3.6726,3.7784,3.8072,3.8722,4.0282,3.9681,3.9417,0.0,0.0,0.0,0.0,0.0,0.0,4.1177,0.0,4.3505,4.3553,4.4027,4.4285,4.4285,4.4261,4.4268,4.4268,4.4244,4.3955,4.3433,4.2982,4.2477,4.1947,4.1442,4.1201,4.1201,4.1201,4.1201,4.1201,4.1201,4.1373,4.1558,4.1075,4.0731,4.0518,4.0271,3.9831,3.9334,0.0,0.0,0.0,0.0,0.0,0.0,0.0,0.0,0.0,0.0,0.0,0.0,0.0,0.0,0.0,0.0,0.0,0.0,0.0,0.0,0.0,0.0,0.0,0.0,0.0,0.0,0.0,0.0,0.0,3.1096,3.2096,3.4241,3.5385,3.5695,3.711,3.7365,3.6784,3.6784,3.5301,3.2916,0.0,3.1468,2.9207,0.0,0.0,0.0,0.0,0.0,0.0,0.0,0.0,0.0,0.0,2.8306,2.9719,3.2304,3.5307,3.8063,3.9283,4.1368,4.3519,4.4681,4.3961,4.3284,4.4493,4.2733,4.0622,3.9756,3.8039,3.6284,0.0,0.0,0.0,3.7286,3.9083,0.0,4.2019,4.2254,0.0,4.1658,0.0,4.1124,4.1033,4.098,0.0,0.0,4.2308,4.3289,4.4051,4.4244,4.4285,4.4285,4.3907,4.3691,4.3691,4.3361,4.2934,4.2404,4.226,4.1923,4.1418,4.1273,4.1201,4.1201,4.1201,4.1201,4.1201,4.143,4.1549,4.161,4.174,4.1485,4.1105,4.1235,4.0699,3.9932,0.0,0.0,0.0,0.0,0.0,0.0,0.0,0.0,0.0,0.0,0.0,0.0,0.0,0.0,0.0,0.0,0.0,0.0,0.0,0.0,0.0,0.0,0.0,0.0,0.0,0.0,0.0,0.0,0.0,0.0,0.0,3.0109,3.1244,3.1684,3.2745,3.3134,3.2962,3.2896,0.0,0.0,0.0,0.0,0.0,0.0,0.0,0.0,0.0,0.0,0.0,0.0,0.0,2.7077,2.8614,2.9985,3.1658,3.4721,0.0,4.075,4.2556,4.4771,4.6737,4.7371,4.6332,4.5136,4.5022,4.2648,3.9981,3.8416,3.6401,0.0,0.0,0.0,0.0,0.0,0.0,0.0,4.1562,4.2158,4.2447,0.0,4.1947,0.0,4.1562,4.1345,4.1297,0.0,4.2116,4.2717,4.3265,4.3529,4.3649,4.3649,4.3337,4.3168,4.3168,4.2934,4.2525,4.1995,4.1995,4.173,4.1201,4.1201,4.1201,4.1201,0.0,4.1258,4.1402,4.1549,4.1749,4.2004,4.2199,4.2047,4.169,4.1856,4.1212,4.029,0.0,0.0,0.0,0.0,0.0,0.0,0.0,0.0,0.0,0.0,0.0,0.0,0.0,0.0,0.0,0.0,0.0,0.0,0.0,0.0,0.0,0.0,0.0,0.0,0.0,0.0,0.0,0.0,0.0,0.0,0.0,0.0,0.0,0.0,0.0,0.0,0.0,0.0,0.0,0.0,0.0,0.0,0.0,0.0,0.0,0.0,0.0,0.0,0.0,0.0,2.795,2.833,3.0136,3.192,3.403,3.7484,4.0308,4.3003,4.6296,4.8147,4.9232,4.9649,4.878,4.7214,4.4727,4.2086,3.9377,3.6597,0.0,3.3181,3.2513,3.3038,3.3906,3.4944,0.0,3.8815,4.0571,4.1196,4.1851,4.2789,4.2091,4.1682,4.2067,4.1634,4.1514,4.1971,4.1995,4.2043,4.2091,4.2549,4.2765,4.2693,4.2693,4.2645,4.2573,4.2573,4.2356,4.1899,4.1899,4.1658,4.1201,4.1201,4.1201,4.1201,4.123,0.0,4.1606,4.1692,4.2033,4.2485,4.2541,4.2463,4.2313,4.2313,4.1658,4.0727,0.0,0.0,0.0,0.0,0.0,0.0,0.0,0.0,0.0,0.0,0.9089,0.0,0.0,0.0,0.0,0.0,0.0,0.0,0.0,0.0,0.0,0.0,0.0,0.0,0.0,0.0,0.0,0.0,0.0,0.0,0.0,0.0,0.0,0.0,0.0,0.0,0.0,0.0,0.0,0.0,0.0,0.0,0.0,0.0,0.0,0.0,0.0,0.0,0.0,0.0,2.9316,3.0184,3.2942,3.4737,3.6504,4.0007,4.2606,4.4706,4.6651,4.8477,4.9593,4.8668,4.7516,4.5895,4.315,4.0341,0.0,0.0,3.436,3.3338,3.2091,3.3588,3.5419,3.6586,0.0,0.0,0.0,0.0,4.3168,0.0,0.0,0.0,0.0,0.0,0.0,0.0,0.0,4.2188,4.2621,4.2741,4.2597,4.214,4.214,4.1923,4.149,4.149,4.1442,4.1345,4.1345,4.1297,4.1201,4.1201,4.1201,4.1201,4.1406,0.0,4.1635,4.2146,4.24,4.2513,4.2818,4.2883,4.2864,4.2864,4.2462,4.1833,0.0,0.0,0.0,0.0,0.0,0.0,0.0,0.0,0.0,0.0,0.8199,0.9436,0.0,0.0,0.0,0.0,0.0,0.0,0.0,0.0,0.0,0.0,0.0,0.0,0.0,0.0,0.0,0.0,0.0,0.0,0.0,0.0,0.0,0.0,0.0,0.0,0.0,0.0,0.0,0.0,0.0,0.0,0.0,0.0,0.0,0.0,0.0,0.0,0.0,0.0,2.9818,3.1421,3.4256,3.5891,3.7436,4.0542,4.2787,4.4769,4.7058,4.8343,4.8817,4.7957,4.6519,4.4456,4.1093,0.0,0.0,0.0,3.3267,3.2516,3.1807,0.0,0.0,0.0,0.0,0.0,0.0,0.0,0.0,0.0,0.0,0.0,0.0,0.0,0.0,0.0,0.0,4.2404,4.238,4.238,4.214,4.161,4.1586,4.1466,4.1201,4.1201,4.1201,4.1201,4.1201,4.1201,4.1201,4.1201,4.1287,4.143,4.1549,0.0,4.2089,4.2372,4.2597,4.279,4.2958,4.3014,4.3014,4.3014,4.2663,4.2162,0.0,0.0,0.0,0.0,0.0,0.0,0.0,0.5905,0.6136,0.681,0.7414,0.8479,1.0363,1.0637,1.1113,0.0,0.0,0.0,0.0,0.0,0.0,0.0,0.0,0.0,0.0,0.0,0.0,0.0,0.0,0.0,0.0,0.0,0.0,0.0,0.0,0.0,0.0,0.0,0.0,0.0,0.0,0.0,0.0,0.0,0.0,0.0,0.0,0.0,0.0,0.0,2.9701,3.1623,3.415,3.6146,3.795,4.0066,4.2335,4.463,4.6908,4.7785,4.7909,4.7028,4.5278,4.2774,3.905,3.691,0.0,0.0,3.2174,3.1717,3.1717,0.0,0.0,0.0,0.0,0.0,0.0,0.0,0.0,0.0,0.0,0.0,0.0,0.0,0.0,0.0,0.0,0.0,4.2043,4.1899,4.1634,4.1196,4.1201,4.1201,4.1201,4.1201,4.1201,4.1201,4.1201,4.1201,4.1201,4.1258,4.1402,4.1606,4.1749,0.0,0.0,4.2569,4.2737,4.3014,4.3014,4.3014,4.3014,4.3014,4.2738,4.2336,0.0,0.0,0.0,0.0,0.0,0.0,0.0,0.5905,0.6136,0.681,0.6957,0.771,0.9585,1.0184,1.0794,0.0,0.0,0.0,0.0,0.0,0.0,0.0,0.0,0.0,0.0,0.0,0.0,0.0,0.0,0.0,0.0,0.0,0.0,0.0,0.0,0.0,0.0,0.0,0.0,0.0,0.0,0.0,0.0,0.0,0.0,0.0,0.0,0.0,0.0,0.0,0.0,2.9893,3.2082,3.5497,3.8692,3.896,0.0,0.0,4.5569,4.6858,4.7574,4.538,4.3205,4.0723,3.7362,0.0,0.0,3.2145,3.1761,3.1717,3.1717,3.2176,0.0,0.0,0.0,3.6819,0.0,0.0,0.0,0.0,0.0,0.0,0.0,0.0,0.0,0.0,0.0,0.0,4.2043,4.1538,4.1249,4.1201,4.1201,4.1201,4.1201,4.1201,4.1201,4.1201,4.1201,4.1201,4.1201,4.1435,4.1578,4.1635,4.2174,0.0,0.0,4.2846,4.2986,4.3014,4.3014,4.3014,4.3014,4.3014,4.2964,4.2864,0.0,0.0,0.0,0.0,0.0,0.0,0.0,0.6202,0.6301,0.6556,0.6982,0.7697,0.8843,0.9724,1.0514,0.0,0.0,0.0,0.0,0.0,0.0,0.0,0.0,0.0,0.0,0.0,0.0,0.0,0.0,0.0,0.0,0.0,0.0,0.0,0.0,0.0,0.0,0.0,0.0,0.0,0.0,0.0,0.0,0.0,0.0,0.0,0.0,0.0,0.0,0.0,0.0,0.0,2.98,3.2348,0.0,0.0,4.021,4.3172,4.4548,4.5595,4.586,4.4077,4.1843,3.9297,3.616,0.0,3.3052,3.194,3.1717,3.1717,3.1717,3.1863,3.2441,0.0,0.0,0.0,0.0,0.0,0.0,0.0,0.0,0.0,0.0,0.0,0.0,0.0,0.0,0.0,4.2501,4.2284,4.2019,4.1706,4.1369,4.1201,4.1201,4.1201,4.1287,4.1435,4.1435,4.1545,4.1769,4.1859,4.2001,4.2146,4.24,0.0,0.0,4.2933,4.3014,4.3014,4.3014,4.3014,4.3014,4.3014,4.3014,4.2964,0.0,0.0,0.0,0.0,0.0,0.0,0.64,0.64,0.64,0.64,0.686,0.7459,0.8238,0.9253,1.0097,1.0662,0.0,0.0,0.0,0.0,0.0,0.0,0.0,0.0,0.0,0.0,0.0,0.0,0.0,0.0,0.0,0.0,0.0,0.0,0.0,0.0,0.0,0.0,0.0,0.0,0.0,0.0,0.0,0.0,0.0,0.0,0.0,0.0,0.0,0.0,0.0,0.0,0.0,0.0,0.0,0.0,3.8022,4.089,4.2827,4.3888,4.4104,4.2806,4.044,3.7783,0.0,0.0,3.2435,3.1825,3.1717,3.1717,3.1717,3.1717,3.2032,0.0,0.0,3.3717,3.6555,0.0,0.0,0.0,0.0,0.0,0.0,0.0,0.0,0.0,0.0,0.0,4.2573,4.2549,4.238,4.2019,4.149,4.1201,4.1201,4.1201,4.1344,4.1606,4.1606,4.1777,4.211,4.2171,4.2312,4.2509,4.2597,0.0,0.0,4.3014,4.309,4.3212,4.3065,4.3115,4.324,4.3065,4.3014,4.3014,0.0,0.0,0.0,0.0,0.0,0.0,0.0,0.64,0.64,0.64,0.64,0.6797,0.779,0.8814,0.9564,0.9968,0.0,0.0,0.0,0.0,0.0,0.0,0.0,0.0,0.0,0.0,0.0,0.0,0.0,0.0,0.0,0.0,0.0,0.0,0.0,0.0,0.0,0.0,0.0,0.0,0.0,0.0,2.53,0.0,0.0,0.0,0.0,0.0,0.0,0.0,0.0,0.0,0.0,2.8883,2.9749,0.0,3.5545,3.908,4.0166,4.161,4.2549,4.149,3.8818,3.6146,0.0,0.0,3.1717,3.1717,3.1717,3.1717,3.1717,3.1717,3.2032,3.3139,3.3307,0.0,3.6122,0.0,0.0,0.0,0.0,0.0,0.0,0.0,0.0,0.0,0.0,0.0,4.2043,4.2019,4.2019,4.1995,4.149,4.1201,4.1201,4.1201,4.1344,4.1606,4.1606,4.1777,4.211,4.2369,4.2485,0.0,0.0,0.0,0.0,4.3014,4.3288,4.374,4.3215,4.3313,4.374,4.3215,4.3014,4.3014,0.0,0.0,0.0,0.0,0.0,0.0,0.0,0.64,0.6367,0.6284,0.635,0.6714,0.7536,0.8693,0.9598,1.0097,0.0,0.0,0.0,0.0,0.0,0.0,0.0,0.0,0.0,0.0,0.0,0.0,0.0,0.0,0.0,0.0,0.0,0.0,0.0,0.0,0.0,0.0,0.0,0.0,0.0,2.53,2.53,0.0,0.0,0.0,0.0,0.0,0.0,0.0,0.0,0.0,0.0,0.0,0.0,3.0013,3.3021,3.6217,3.694,3.8575,3.9729,3.8286,3.6603,3.5039,3.4006,0.0,3.1717,3.1717,3.1717,3.1717,3.1717,3.1717,3.2032,3.3139,3.3284,0.0,0.0,0.0,0.0,0.0,0.0,0.0,0.0,0.0,0.0,0.0,0.0,0.0,4.2525,4.2188,4.1995,4.1995,4.149,4.1201,4.1201,4.1373,4.1631,4.1944,4.2118,4.2372,4.2734,4.2818,4.2846,0.0,0.0,0.0,0.0,4.3014,4.3115,4.324,4.3065,4.3115,4.324,4.3065,4.3014,4.3014,0.0,0.0,0.0,0.0,0.0,0.0,0.0,0.64,0.6367,0.6284,0.635,0.6581,0.7035,0.8399,0.9337,0.9439,0.0,0.0,0.0,0.0,0.0,0.0,0.0,0.0,0.0,0.0,0.0,0.0,0.0,0.0,0.0,0.0,0.0,0.0,0.0,0.0,0.0,0.0,0.0,0.0,2.53,2.53,2.53,0.0,0.0,0.0,0.0,0.0,0.0,0.0,0.0,0.0,0.0,0.0,0.0,0.0,3.0783,3.3045,0.0,3.6265,3.7394,3.6603,3.5424,0.0,0.0,0.0,3.1717,3.1717,3.1717,3.1717,3.1717,3.1717,3.2032,3.3139,3.3284,0.0,0.0,0.0,0.0,0.0,0.0,0.0,0.0,0.0,0.0,0.0,0.0,0.0,4.2477,4.2088,4.1856,4.1856,4.1427,4.123,4.1344,4.1521,4.1806,4.2256,4.2425,4.2678,4.3014,4.3014,4.3014,0.0,0.0,0.0,0.0,4.3014,4.314,4.3291,4.309,4.314,4.3291,4.309,4.3014,4.2964,0.0,0.0,0.0,0.0,0.0,0.0,0.0,0.0,0.0,0.0,0.6383,0.6389,0.6369,0.799,0.8835,0.0,0.0,0.0,0.0,0.0,0.0,0.0,0.0,0.0,0.0,0.0,0.0,1.8808,1.9192,1.9815,2.0665,0.0,0.0,0.0,0.0,0.0,0.0,2.4915,2.5182,2.5306,2.53,2.53,0.0,0.0,0.0,0.0,0.0,0.0,0.0,0.0,0.0,0.0,0.0,0.0,0.0,0.0,0.0,0.0,0.0,3.4438,0.0,0.0,0.0,0.0,0.0,0.0,0.0,3.1717,3.1717,3.1717,3.1717,3.1741,3.208,3.3139,3.3308,0.0,0.0,0.0,0.0,0.0,0.0,0.0,0.0,0.0,0.0,0.0,0.0,0.0,4.2049,4.1807,4.1635,4.1635,4.1402,4.1373,4.1635,4.1663,4.1948,4.2485,4.2513,4.2681,4.3014,4.3039,4.3039,0.0,0.0,0.0,0.0,4.3014,4.3288,4.3689,4.319,4.3288,4.3689,4.319,4.2989,4.2864,0.0,0.0,0.0,0.0,0.0,0.0,0.0,0.0,0.0,0.0,0.6235,0.6306,0.6051,0.7686,0.8633,0.0,0.0,0.0,0.0,0.0,0.0,0.0,0.0,0.0,0.0,0.0,0.0,1.6924,1.7885,1.8899,1.995,2.0892,0.0,0.0,0.0,2.3807,2.4526,2.4915,2.5171,2.5301,2.5288,2.53,0.0,0.0,0.0,0.0,2.6083,2.6574,0.0,0.0,0.0,0.0,0.0,0.0,0.0,0.0,2.8595,2.8955,3.011,0.0,3.2032,3.2176,3.2224,3.2224,0.0,0.0,0.0,0.0,0.0,3.1717,3.1717,3.2032,3.2515,3.3188,3.3621,3.4054,0.0,0.0,0.0,0.0,0.0,0.0,0.0,0.0,0.0,0.0,0.0,4.1904,4.2845,4.2314,4.1972,4.1972,4.1915,4.1915,4.1972,4.2199,4.2344,4.2485,4.2737,4.293,4.3014,4.3413,4.3388,0.0,0.0,0.0,4.3014,4.3014,4.309,4.319,4.3065,4.309,4.3162,4.3065,4.2738,4.2389,0.0,0.0,0.0,0.0,0.0,0.0,0.0,0.0,0.0,0.0,0.0,0.0,0.0,0.0,0.0,0.0,0.0,0.0,0.0,0.0,0.0,0.0,0.0,0.0,0.0,0.0,0.0,0.0,0.0,1.8878,0.0,0.0,0.0,0.0,0.0,2.405,2.4557,2.4654,2.4904,2.5295,2.5306,0.0,0.0,0.0,0.0,0.0,2.6137,2.67,0.0,2.8194,2.8502,2.8502,0.0,0.0,0.0,0.0,2.8502,2.8551,2.8859,2.9532,3.0299,3.078,3.1117,3.1404,0.0,0.0,0.0,0.0,0.0,3.1789,3.2032,3.2298,3.2755,3.3501,3.3838,0.0,0.0,0.0,0.0,0.0,0.0,0.0,0.0,0.0,0.0,0.0,0.0,4.2197,4.2998,4.2581,4.2284,4.2284,4.2425,4.2425,4.2284,4.2453,4.2569,4.2709,4.293,4.3014,4.3014,4.3288,4.3263,0.0,0.0,0.0,4.3014,4.3014,4.3014,4.3014,4.3014,4.3014,4.2964,4.2713,4.2436,4.2137,0.0,0.0,0.0,0.0,0.0,0.0,0.0,0.0,0.0,0.0,0.0,0.0,0.0,0.0,0.0,0.0,0.0,0.0,0.0,0.0,0.0,0.0,0.0,0.0,0.0,0.0,0.0,0.0,0.0,0.0,0.0,0.0,2.2465,0.0,2.3809,2.4332,2.4533,2.435,2.4642,2.5235,2.5264,0.0,0.0,0.0,0.0,0.0,0.0,0.0,0.0,2.8247,2.8502,2.8502,2.8502,0.0,0.0,0.0,0.0,0.0,2.8619,2.9003,2.9629,3.054,3.0901,3.1141,3.1597,0.0,0.0,0.0,0.0,0.0,0.0,0.0,0.0,0.0,0.0,0.0,0.0,0.0,0.0,0.0,0.0,0.0,0.0,0.0,0.0,0.0,0.0,4.2648,4.3189,4.2981,4.2765,4.2569,4.2874,4.2874,4.2569,4.2569,4.2709,4.3014,4.3014,4.3014,4.3014,4.309,4.309,4.3014,0.0,0.0,4.3014,4.3014,4.3014,4.3014,4.3014,4.2964,4.2813,4.2389,4.2085,4.1783,0.0,0.0,0.0,0.0,0.0,0.0,0.0,0.0,0.0,0.0,0.0,0.0,0.0,0.0,0.0,0.0,0.0,0.0,0.0,0.0,0.0,0.0,0.0,0.0,0.0,0.0,0.0,0.0,0.0,0.0,1.8745,1.9934,2.1731,2.3981,2.4127,2.4219,2.4268,2.4575,2.4778,2.4903,2.52,0.0,0.0,0.0,0.0,0.0,0.0,0.0,0.0,2.8247,2.8502,2.8502,2.8502,0.0,0.0,0.0,0.0,0.0,2.9051,2.9556,3.0034,3.0179,3.0901,3.1597,3.1693,0.0,0.0,0.0,0.0,0.0,0.0,0.0,0.0,0.0,0.0,0.0,0.0,0.0,0.0,0.0,0.0,0.0,0.0,0.0,0.0,0.0,0.0,4.411,4.4647,4.4463,4.3932,4.2933,4.2986,4.2986,4.293,4.293,4.2958,4.3014,4.3014,4.3014,4.3014,4.3463,4.3413,4.3039,0.0,4.3413,4.3014,4.3014,4.3014,4.3014,4.3014,4.2713,4.2286,4.2238,4.1607,4.0703,0.0,0.0,0.0,0.0,0.0,0.0,0.0,0.0,0.0,0.0,0.0,0.0,0.0,0.0,0.0,0.0,0.0,0.0,0.0,0.0,0.0,0.0,0.0,0.0,0.0,0.0,0.0,0.0,0.0,1.9209,2.0421,2.1708,2.2529,2.2942,2.3797,2.4214,2.4205,2.4413,2.4713,2.507,0.0,0.0,0.0,0.0,0.0,0.0,0.0,0.0,0.0,0.0,2.8502,2.8502,2.8502,0.0,0.0,0.0,0.0,0.0,2.8811,2.946,3.0179,3.0468,3.1117,3.1717,3.1717,0.0,0.0,0.0,0.0,0.0,0.0,0.0,0.0,0.0,0.0,0.0,0.0,0.0,0.0,0.0,0.0,0.0,0.0,0.0,0.0,0.0,0.0,0.0,4.4844,4.4772,4.4179,4.3042,4.3014,4.3014,4.3014,4.3014,4.3014,4.3014,4.3014,4.3014,4.3014,4.3266,4.324,4.3014,0.0,4.324,4.3014,4.3014,4.3014,4.2964,4.2688,4.2439,4.2137,4.1668,4.099,4.0309,0.0,0.0,0.0,0.0,0.0,0.0,0.0,0.0,0.0,0.0,0.0,0.0,0.0,0.0,0.0,0.0,0.0,0.0,0.0,0.0,0.0,0.0,0.0,0.0,0.0,0.0,1.7385,1.8331,1.9069,2.0446,2.2392,2.2841,2.2807,2.237,2.2855,2.3464,2.4208,2.419,2.4621,2.5294,0.0,0.0,0.0,0.0,0.0,0.0,0.0,0.0,0.0,0.0,0.0,0.0,0.0,0.0,0.0,2.8502,2.8502,2.8551,2.8811,2.9556,3.0419,3.0949,0.0,3.1791,3.2152,0.0,0.0,0.0,0.0,0.0,0.0,0.0,0.0,0.0,0.0,0.0,0.0,0.0,0.0,0.0,0.0,0.0,0.0,0.0,0.0,0.0,0.0,0.0,4.5529,4.5449,4.4832,4.3434,4.3406,4.3268,4.3014,4.3014,4.3014,4.3014,4.3014,4.3014,4.3014,4.3014,4.3014,4.3014,4.3014,4.2939,4.2813,4.2964,4.2939,4.2763,4.2336,4.2034,4.171,4.0967,4.049,4.0262,0.0,0.0,0.0,0.0,0.0,0.0,0.0,0.0,0.0,0.0,0.0,0.0,0.0,0.0,0.0,0.0,0.0,0.0,0.0,0.0,0.0,0.0,0.0,0.0,0.0,1.7265,1.7968,1.8656,2.0076,2.1698,2.3425,2.0859,2.1208,2.3888,2.0954,2.1344,2.4205,2.4191,2.4627,2.5291,2.5307,0.0,0.0,0.0,0.0,0.0,0.0,0.0,0.0,0.0,0.0,0.0,0.0,0.0,2.8502,2.8502,2.8502,2.8715,2.9701,3.0395,3.0973,3.1524,3.1669,0.0,3.3501,0.0,0.0,0.0,0.0,0.0,0.0,0.0,0.0,0.0,0.0,0.0,0.0,0.0,0.0,0.0,0.0,0.0,0.0,0.0,0.0,0.0,0.0,0.0,4.7768,4.7768,4.6764,4.4643,4.4587,4.407,4.3014,4.3014,4.3014,4.3014,4.3014,4.3014,4.3014,4.3014,4.3014,4.3014,4.3014,4.2713,4.2313,4.2788,4.2713,4.2235,4.2238,4.1557,4.0577,4.0285,4.0287,4.0491,0.0,0.0,0.0,0.0,0.0,0.0,0.0,0.0,0.0,0.0,0.0,0.0,0.0,0.0,0.0,0.0,0.0,0.0,0.0,0.0,0.0,0.0,0.0,1.5655,1.748,1.8256,1.9115,2.0147,2.0655,2.1165,2.1699,2.2565,0.0,0.0,2.0151,2.1456,2.4971,2.2298,2.2764,2.5205,2.4299,2.5287,0.0,0.0,0.0,0.0,0.0,0.0,0.0,0.0,2.8502,2.8502,2.8502,2.8502,2.8502,2.8502,2.8502,2.8667,2.9388,3.0251,3.1021,3.1573,0.0,0.0,0.0,0.0,0.0,0.0,0.0,0.0,0.0,0.0,0.0,0.0,0.0,0.0,0.0,0.0,0.0,0.0,0.0,0.0,0.0,0.0,0.0,0.0,0.0,0.0,4.8047,4.7996,4.6971,4.4778,4.4697,4.4152,4.3014,4.3014,4.3014,4.3014,4.3014,4.3014,4.3014,4.3014,4.3014,4.3014,4.3014,4.2889,4.2713,4.2914,4.2889,4.2637,4.1907,4.1059,4.0259,4.0313,4.0516,4.0795,0.0,0.0,0.0,0.0,0.0,0.0,0.0,0.0,0.0,0.0,0.0,0.0,0.0,0.0,0.0,0.0,0.0,0.0,0.0,0.0,0.0,0.0,0.0,1.6903,1.8351,1.8669,1.9491,2.0843,2.0796,2.0645,2.0414,0.0,0.0,0.0,2.0544,2.1559,2.3933,2.1985,2.2326,2.4112,2.3377,2.4593,0.0,0.0,0.0,0.0,0.0,0.0,0.0,0.0,2.8502,2.8502,2.8502,2.8502,2.8502,2.8502,2.8659,2.894,2.9433,3.0245,3.1156,0.0,0.0,0.0,0.0,0.0,0.0,0.0,0.0,0.0,0.0,0.0,0.0,0.0,0.0,0.0,0.0,0.0,0.0,0.0,0.0,0.0,0.0,0.0,0.0,0.0,0.0,0.0,0.0,4.8198,4.7126,4.5262,4.4886,4.4152,4.3014,4.3014,4.2914,4.2738,4.2738,4.2838,4.3014,4.3014,4.3014,4.2989,4.2813,4.2637,4.2459,4.2459,4.2359,4.216,4.146,4.0737,4.0134,4.0491,4.0744,4.0946,0.0,0.0,0.0,0.0,0.0,0.0,0.0,0.0,0.0,0.0,0.0,0.0,0.0,0.0,0.0,0.0,0.0,0.0,0.0,0.0,0.0,0.0,0.0,1.8374,1.9167,1.8444,1.8837,2.0495,2.0504,2.0347,2.0083,1.956,0.0,0.0,2.219,2.1279,2.0729,2.384,2.3843,2.182,2.2777,2.3144,2.3555,0.0,0.0,0.0,0.0,0.0,0.0,0.0,2.8502,2.8502,2.8502,2.8502,2.8522,2.8502,2.9044,2.9675,3.0025,3.064,3.1423,0.0,0.0,0.0,0.0,0.0,0.0,0.0,0.0,0.0,0.0,0.0,0.0,0.0,0.0,0.0,0.0,0.0,0.0,0.0,0.0,0.0,0.0,0.0,0.0,0.0,0.0,0.0,0.0,4.8628,4.7459,4.6319,4.5262,4.4152,4.2989,4.2989,4.2713,4.2213,4.2213,4.2462,4.2989,4.2989,4.2989,4.2964,4.2411,4.1831,4.1302,4.1302,4.0976,4.0552,4.0816,4.0565,4.0185,4.0693,4.0921,4.0946,0.0,0.0,0.0,0.0,0.0,0.0,0.0,0.0,0.0,0.0,0.0,0.0,0.0,0.0,0.0,0.0,0.0,0.0,0.0,0.0,0.0,0.0,0.0,0.0,0.0,0.0,2.0666,2.0843,2.0619,2.0361,0.0,0.0,0.0,2.179,0.0,0.0,2.2789,2.3306,2.3759,2.4318,2.6161,2.6907,2.7027,0.0,0.0,0.0,0.0,0.0,0.0,0.0,0.0,0.0,2.8502,2.8763,2.902,2.8774,2.9286,2.9994,3.025,3.1037,0.0,0.0,0.0,0.0,0.0,0.0,0.0,0.0,0.0,0.0,0.0,0.0,0.0,0.0,0.0,0.0,0.0,0.0,0.0,0.0,0.0,0.0,0.0,0.0,0.0,0.0,0.0,0.0,0.0,4.8628,4.7459,4.6319,4.4864,4.3532,4.2464,4.2032,4.1704,4.1553,4.1553,4.1856,4.2411,4.2007,4.2032,4.2386,4.1831,4.1478,4.1302,4.1302,4.1109,4.0789,4.0894,4.0798,4.0694,4.0846,4.1022,4.1173,0.0,0.0,0.0,0.0,0.0,0.0,0.0,0.0,0.0,0.0,0.0,0.0,0.0,0.0,0.0,0.0,0.0,0.0,0.0,0.0,0.0,0.0,0.0,0.0,0.0,1.9985,2.0613,0.0,0.0,0.0,0.0,0.0,0.0,2.1042,0.0,2.2009,0.0,2.2625,2.3356,2.4865,2.6448,2.7645,2.8328,0.0,0.0,0.0,0.0,0.0,0.0,0.0,0.0,0.0,2.8518,2.8839,2.9217,2.9136,2.978,3.0553,3.0817,3.1733,0.0,0.0,0.0,0.0,0.0,0.0,0.0,0.0,0.0,0.0,0.0,0.0,0.0,0.0,0.0,0.0,0.0,0.0,0.0,0.0,0.0,0.0,0.0,0.0,0.0,0.0,0.0,0.0,0.0,4.7998,4.68,4.6319,4.4281,4.2842,4.2213,4.1831,4.1455,4.0976,4.0976,4.1178,4.1532,4.1352,4.1503,4.1806,4.1227,4.0851,4.065,4.0782,4.0738,4.0591,4.0798,4.0901,4.0921,4.1022,4.1147,4.1299,0.0,0.0,0.0,0.0,0.0,0.0,0.0,0.0,0.0,0.0,0.0,0.0,0.0,0.0,0.0,0.0,0.0,0.0,0.0,0.0,0.0,0.0,0.0,0.0,0.0,0.0,0.0,0.0,0.0,0.0,0.0,0.0,2.0717,2.092,0.0,2.1361,0.0,2.2043,2.2882,2.4057,2.464,2.6302,2.8146,2.4836,0.0,0.0,0.0,0.0,0.0,0.0,0.0,0.0,2.8578,2.8849,2.9297,2.9573,3.0405,3.1294,3.16,0.0,0.0,0.0,0.0,0.0,0.0,0.0,0.0,0.0,0.0,0.0,0.0,0.0,0.0,0.0,0.0,0.0,0.0,0.0,0.0,0.0,0.0,0.0,0.0,0.0,0.0,0.0,0.0,0.0,0.0,4.6999,4.5694,4.6131,4.3534,4.2085,4.2062,4.2011,4.1456,4.0424,4.0424,4.0424,4.0424,4.0926,4.1152,4.1127,4.0625,4.0149,3.9723,3.9981,4.0109,4.0185,4.0719,4.0921,4.0972,4.1198,4.1299,4.1299,0.0,0.0,0.0,0.0,0.0,0.0,0.0,0.0,0.0,0.0,0.0,0.0,0.0,0.0,0.0,0.0,0.0,0.0,0.0,0.0,0.0,0.0,0.0,0.0,0.0,0.0,0.0,0.0,0.0,0.0,0.0,0.0,0.0,2.092,0.0,2.1636,2.1754,2.2555,2.3321,2.4015,2.4428,2.6162,2.842,2.7632,2.781,0.0,0.0,0.0,0.0,0.0,0.0,0.0,2.8717,2.9375,3.013,3.0137,3.1095,3.2164,3.2417,3.3145,0.0,0.0,0.0,0.0,0.0,0.0,0.0,0.0,0.0,0.0,0.0,0.0,0.0,0.0,0.0,0.0,0.0,0.0,0.0,0.0,0.0,0.0,0.0,0.0,0.0,0.0,0.0,0.0,4.889,4.6701,4.5288,4.4988,4.2706,4.1277,4.0877,4.045,4.0099,0.0,3.9873,3.9873,3.9873,3.9998,4.0049,4.0049,3.9923,3.9798,3.9723,3.9981,4.0211,4.044,4.077,4.1022,4.1198,4.1299,4.1299,4.1299,0.0,0.0,0.0,0.0,0.0,0.0,0.0,0.0,0.0,0.0,0.0,0.0,0.0,0.0,0.0,0.0,0.0,0.0,0.0,0.0,0.0,0.0,0.0,0.0,0.0,0.0,0.0,0.0,0.0,0.0,0.0,0.0,0.0,2.1313,0.0,2.1687,2.1731,2.2224,2.3154,2.4277,2.4188,2.5211,2.6904,2.8073,2.8495,2.8494,2.8511,0.0,0.0,0.0,0.0,0.0,0.0,0.0,3.0604,3.0956,3.1487,3.2099,3.2713,0.0,0.0,0.0,0.0,0.0,0.0,0.0,0.0,0.0,0.0,0.0,0.0,0.0,0.0,0.0,0.0,0.0,0.0,0.0,0.0,0.0,0.0,0.0,0.0,0.0,0.0,0.0,0.0,4.8004,4.7525,4.5647,4.4356,4.3846,4.1927,4.0775,4.0499,4.0224,3.9948,3.9697,3.9697,3.9697,3.9697,3.9697,3.9697,3.9697,3.9697,3.9774,3.9904,4.0185,4.044,4.0719,4.0997,4.1173,4.1299,4.1299,4.1299,4.1299,0.0,0.0,0.0,0.0,0.0,0.0,0.0,0.0,0.0,0.0,0.0,0.0,0.0,0.0,0.0,0.0,0.0,0.0,0.0,0.0,0.0,0.0,0.0,0.0,0.0,0.0,0.0,0.0,0.0,0.0,0.0,0.0,0.0,2.1687,0.0,0.0,2.1687,2.1687,2.2745,2.4347,2.3751,2.4194,2.5437,2.743,2.838,2.8643,2.8643,2.8715,2.8859,2.9292,0.0,0.0,0.0,0.0,3.0974,3.1628,3.1762,3.1917,3.2918,0.0,3.6204,0.0,0.0,0.0,0.0,0.0,0.0,0.0,0.0,0.0,0.0,0.0,0.0,0.0,0.0,0.0,0.0,0.0,0.0,0.0,0.0,0.0,0.0,0.0,0.0,0.0,0.0,4.7659,4.6364,4.4646,4.3477,4.2965,4.136,4.0475,4.0349,4.0349,4.0149,3.9697,3.9697,3.9697,3.9697,3.9697,3.9697,3.9697,3.9749,3.9878,4.0134,4.044,4.0694,4.0946,4.1198,4.1299,4.1299,4.1299,4.1299,4.1299,0.0,0.0,0.0,0.0,0.0,0.0,0.0,0.0,0.0,0.0,0.0,0.0,0.0,0.0,0.0,0.0,0.0,0.0,1.3103,0.0,0.0,1.6737,1.8373,1.9192,0.0,0.0,0.0,0.0,0.0,0.0,0.0,0.0,0.0,2.1687,0.0,0.0,0.0,2.1687,2.2438,2.3493,2.272,2.4071,2.6562,2.6828,0.0,0.0,0.0,2.9484,2.9893,2.9965,3.001,0.0,0.0,0.0,3.1491,3.154,3.2013,3.268,0.0,0.0,3.7419,0.0,0.0,0.0,0.0,0.0,0.0,0.0,0.0,0.0,0.0,0.0,0.0,0.0,0.0,0.0,0.0,0.0,0.0,0.0,0.0,0.0,0.0,0.0,0.0,0.0,4.6847,4.6378,4.6703,4.474,4.3372,4.2841,4.1312,4.03,3.9798,3.9798,3.9772,3.9697,3.9697,3.9697,3.9697,3.9697,3.9697,3.9723,3.9955,4.0083,4.0134,4.0643,4.0871,4.0946,4.1198,4.1299,4.1299,4.1299,4.1299,4.1299,0.0,0.0,0.0,0.0,0.0,0.0,0.0,0.0,0.0,0.0,0.0,0.0,0.0,0.0,0.0,1.2831,1.2799,1.2794,1.2982,1.4694,1.5807,1.6023,1.8134,1.9309,1.9292,0.0,0.0,0.0,0.0,0.0,0.0,2.2162,2.2128,0.0,0.0,0.0,0.0,0.0,0.0,2.4057,2.3934,2.5508,0.0,0.0,0.0,0.0,0.0,0.0,0.0,3.0443,3.054,3.0676,3.1333,0.0,0.0,0.0,3.2157,0.0,3.389,3.5485,3.7219,0.0,0.0,0.0,0.0,0.0,0.0,0.0,0.0,0.0,0.0,0.0,0.0,0.0,0.0,0.0,0.0,0.0,0.0,0.0,0.0,0.0,0.0,0.0,0.0,0.0,4.6534,4.6108,4.544,4.3969,4.2771,4.1938,4.0696,3.9948,3.9697,3.9697,3.9697,3.9697,3.9697,3.9697,3.9723,3.9852,3.9826,3.9723,3.9981,4.0185,4.0338,4.0744,4.0997,4.1122,4.1248,4.1299,4.1299,4.1299,4.1299,4.1299,0.0,0.0,0.0,0.0,0.0,0.0,0.0,0.0,0.0,0.0,0.0,0.0,0.0,0.0,0.0,0.0,1.2787,1.2847,1.306,1.5098,1.6016,1.5383,1.7891,1.9292,1.9292,0.0,0.0,0.0,0.0,0.0,2.1717,2.316,2.3407,0.0,2.2199,0.0,0.0,0.0,0.0,0.0,0.0,0.0,0.0,0.0,0.0,0.0,0.0,0.0,0.0,0.0,0.0,0.0,0.0,0.0,0.0,0.0,0.0,0.0,0.0,0.0,3.6466,3.8165,4.0491,0.0,0.0,0.0,0.0,0.0,0.0,0.0,0.0,0.0,0.0,0.0,0.0,0.0,0.0,0.0,0.0,0.0,0.0,0.0,0.0,0.0,0.0,0.0,4.633,4.5924,4.4387,4.3368,4.2306,4.1219,4.0211,3.9697,3.9697,3.9697,3.9697,3.9697,3.9697,3.9749,3.9826,4.0006,4.0032,3.9929,4.0185,4.0415,4.0618,4.0896,4.1122,4.1299,4.1299,4.1299,4.1299,4.1299,4.1299,4.1299,0.0,0.0,0.0,0.0,0.0,0.0,0.0,0.0,0.0,0.0,0.0,0.0,0.0,1.2664,1.3505,1.3532,1.3532,1.3566,1.3553,1.5113,1.5944,1.5771,1.8029,0.0,1.9292,0.0,0.0,0.0,0.0,0.0,2.1778,2.4926,2.5968,2.5134,2.3547,2.284,2.2821,0.0,0.0,0.0,0.0,0.0,0.0,0.0,0.0,0.0,0.0,0.0,0.0,0.0,0.0,0.0,0.0,0.0,0.0,0.0,0.0,0.0,0.0,3.4787,0.0,3.665,0.0,0.0,0.0,0.0,0.0,0.0,0.0,0.0,0.0,0.0,0.0,0.0,0.0,0.0,0.0,0.0,0.0,0.0,0.0,0.0,0.0,0.0,0.0,0.0,4.5946,4.5458,4.4359,4.3368,4.2306,4.1219,4.0211,3.9697,3.9697,3.9697,3.9697,3.9697,3.9697,3.9826,4.0083,4.0109,4.0236,4.0466,4.0744,4.0871,4.0921,4.1173,4.1299,4.1299,4.1299,4.1299,4.1299,4.1299,4.1299,4.1299,0.0,0.0,0.0,0.0,0.0,0.0,0.0,0.0,0.0,0.0,0.0,0.0,0.0,1.2694,1.334,1.334,1.4006,1.4427,1.4427,1.6229,1.7335,1.745,1.8653,1.9546,2.006,0.0,0.0,0.0,0.0,2.1687,2.1766,2.4538,2.5935,2.6064,2.4066,2.3196,2.329,2.3217,0.0,0.0,0.0,0.0,0.0,0.0,0.0,0.0,0.0,0.0,0.0,0.0,0.0,0.0,0.0,0.0,0.0,0.0,0.0,0.0,0.0,0.0,0.0,3.6449,3.8003,3.9516,0.0,0.0,0.0,0.0,0.0,0.0,0.0,0.0,0.0,0.0,0.0,0.0,0.0,0.0,0.0,0.0,0.0,0.0,0.0,0.0,0.0,0.0,0.0,4.5429,4.4359,4.3368,4.2306,4.1219,4.0211,3.9697,3.9697,3.9697,3.9547,3.9195,3.9547,3.9675,3.9601,4.0109,4.0491,4.077,4.1022,4.1047,4.0921,4.1173,4.1299,4.1299,4.1299,4.1299,4.1299,4.1299,4.1299,4.1299,0.0,0.0,0.0,0.0,0.0,0.0,0.0,0.0,0.0,0.0,0.0,0.0,0.0,0.0,1.338,1.3494,1.4368,1.5034,1.5239,1.7053,1.8018,1.7849,1.896,1.9983,2.0868,0.0,0.0,0.0,0.0,0.0,0.0,0.0,2.5445,2.6123,2.4386,0.0,0.0,0.0,0.0,2.5381,0.0,0.0,2.9738,0.0,0.0,0.0,0.0,0.0,0.0,0.0,0.0,0.0,0.0,0.0,0.0,0.0,0.0,0.0,0.0,0.0,0.0,0.0,0.0,3.8469,0.0,0.0,0.0,0.0,0.0,0.0,0.0,0.0,0.0,0.0,0.0,0.0,0.0,0.0,0.0,0.0,0.0,0.0,0.0,0.0,0.0,0.0,0.0,0.0,4.3867,4.3177,4.2159,4.0743,4.0057,3.9697,3.9697,3.9521,3.9245,3.8894,3.9146,3.9323,3.9447,4.0055,4.0589,4.1047,4.1198,4.1198,4.1047,4.1249,4.1299,4.1299,4.1299,4.1299,4.1299,4.1299,4.1299,4.1299,0.0,0.0,0.0,0.0,0.0,0.0,0.0,0.0,0.0,0.0,0.0,0.0,0.0,0.0,0.0,1.4145,1.4755,1.5393,1.604,1.7534,1.7903,1.686,1.8939,2.06,2.1685,0.0,0.0,0.0,0.0,0.0,0.0,0.0,2.4604,0.0,2.4562,2.4235,2.426,0.0,2.6209,2.8311,0.0,2.9046,3.2517,0.0,0.0,0.0,3.3283,3.2947,0.0,0.0,0.0,0.0,0.0,0.0,0.0,0.0,0.0,0.0,0.0,0.0,0.0,0.0,0.0,0.0,3.9997,0.0,4.0105,0.0,0.0,0.0,0.0,0.0,0.0,0.0,0.0,0.0,0.0,0.0,0.0,0.0,0.0,0.0,0.0,0.0,0.0,0.0,4.585,4.4897,4.2864,4.2719,4.179,3.9749,3.9672,3.9672,3.9647,3.9145,3.8869,3.8843,3.8539,3.8836,3.9669,3.9868,4.0451,4.1247,4.1272,4.1273,4.1273,4.1273,4.1299,4.1299,4.1299,4.1299,4.1299,4.1299,4.1299,4.1299,0.0,0.0,0.0,0.0,0.0,0.0,0.0,0.0,0.0,0.0,0.0,0.0,0.0,0.0,0.0,1.5763,1.7167,1.8112,1.8296,1.9291,1.9876,1.9877,2.0214,2.0797,2.1676,0.0,0.0,0.0,0.0,0.0,0.0,0.0,0.0,0.0,2.471,2.4875,2.5087,2.5034,0.0,0.0,2.8418,2.9743,0.0,0.0,0.0,0.0,0.0,3.2875,0.0,0.0,3.2987,3.3215,0.0,0.0,0.0,0.0,0.0,0.0,3.5357,0.0,0.0,0.0,0.0,0.0,3.7847,3.8348,3.904,0.0,0.0,0.0,0.0,0.0,0.0,0.0,0.0,0.0,0.0,0.0,0.0,0.0,0.0,0.0,0.0,0.0,0.0,0.0,4.4055,4.3081,4.1716,4.0945,4.0109,3.917,3.912,3.8919,3.8467,3.8316,3.804,3.7688,3.8185,3.8429,3.8491,3.9118,3.9646,4.0071,4.0463,4.0646,4.0672,4.1116,4.1299,4.1299,4.1299,4.1299,4.1299,4.1299,4.1299,4.1299,0.0,0.0,0.0,0.0,0.0,0.0,0.0,0.0,0.0,0.0,0.0,0.0,0.0,0.0,0.0,1.699,1.8375,1.926,1.9436,2.0268,2.0921,2.1324,2.1131,2.1218,2.1687,0.0,0.0,0.0,0.0,0.0,0.0,0.0,0.0,0.0,0.0,0.0,0.0,0.0,0.0,0.0,2.964,0.0,0.0,3.3408,3.3807,0.0,0.0,0.0,3.3861,3.3428,3.3516,0.0,0.0,0.0,0.0,0.0,0.0,0.0,0.0,0.0,0.0,0.0,0.0,0.0,3.7531,3.7636,3.7999,0.0,0.0,0.0,0.0,0.0,0.0,0.0,0.0,0.0,0.0,0.0,0.0,0.0,0.0,0.0,0.0,4.3915,4.359,4.3364,4.2989,4.233,4.1244,4.0033,3.922,3.8894,3.8668,3.8341,3.8015,3.7887,3.7683,3.7355,3.7817,3.8056,3.8196,3.8744,3.922,3.9625,3.9939,4.0069,4.0122,4.0672,4.1064,4.1299,4.1299,4.1299,4.1299,4.1299,4.1299,4.1299,0.0,0.0,0.0,0.0,0.0,0.0,0.0,0.0,0.0,0.0,0.0,0.0,0.0,0.0,0.0,0.0,1.8984,1.9618,1.9991,2.0727,2.1324,2.1668,2.1687,2.1705,2.1697,0.0,0.0,0.0,0.0,0.0,0.0,0.0,0.0,0.0,0.0,0.0,0.0,0.0,0.0,3.0498,3.0849,3.2304,0.0,0.0,3.5357,0.0,3.4799,3.4799,3.4655,3.3765,3.3778,0.0,0.0,0.0,0.0,0.0,3.6405,0.0,0.0,0.0,0.0,0.0,0.0,0.0,3.8077,3.7375,3.7126,3.9329,0.0,0.0,0.0,0.0,0.0,0.0,0.0,0.0,0.0,0.0,0.0,0.0,0.0,0.0,4.1882,4.2229,4.2265,4.1771,4.2037,4.1848,4.0887,3.9524,3.8768,3.8718,3.8191,3.7889,3.7838,3.7603,3.7519,3.7543,3.7505,3.7764,3.8303,3.8538,3.8896,3.9416,3.947,3.952,3.9547,4.015,4.0698,4.1194,4.1273,4.1299,4.1299,4.1299,4.1299,4.1299,0.859,0.0,0.0,0.0,0.0,0.0,0.0,0.0,0.0,0.0,0.0,0.0,0.0,0.0,0.0,0.0,0.0,2.1264,2.1314,2.1492,2.1636,2.1709,2.1687,2.1703,2.1689,2.1689,0.0,0.0,0.0,0.0,0.0,0.0,0.0,0.0,0.0,0.0,0.0,0.0,0.0,3.0406,3.2111,0.0,3.5843,3.5259,3.492,3.4799,3.4799,3.4799,3.4775,0.0,3.4871,3.5325,0.0,0.0,0.0,0.0,0.0,0.0,0.0,0.0,0.0,0.0,0.0,0.0,3.6868,3.6952,3.7054,0.0,0.0,0.0,0.0,0.0,0.0,0.0,0.0,0.0,0.0,0.0,0.0,0.0,0.0,0.0,4.128,4.0639,4.0166,4.0084,3.937,3.8861,3.8639,3.834,3.7965,3.7562,3.7436,3.7232,3.6969,3.689,3.6981,3.7217,3.7395,3.7557,3.7661,3.7941,3.8135,3.8266,3.8684,3.8893,3.8972,3.9967,4.0463,4.062,4.109,4.1299,4.1299,4.1299,4.1299,4.1299,0.9385,0.0,0.0,0.0,0.0,0.0,0.0,0.0,0.0,0.0,0.0,0.0,0.0,0.0,0.0,0.0,0.0,0.0,0.0,0.0,2.2026,2.2117,2.2094,2.1969,2.1706,2.1706,2.2101,0.0,0.0,0.0,0.0,0.0,0.0,0.0,0.0,0.0,0.0,0.0,3.3618,3.4078,3.3886,0.0,3.5549,3.5305,3.5208,3.5232,3.5496,3.5592,3.5617,3.5741,3.6063,0.0,0.0,3.6249,3.6733,0.0,3.6405,3.6405,0.0,0.0,0.0,3.6405,0.0,0.0,0.0,3.6607,3.6708,3.6455,3.726,3.8039,3.8176,0.0,0.0,0.0,0.0,0.0,0.0,0.0,0.0,0.0,0.0,0.0,3.9144,3.8931,3.8797,3.8797,3.8285,3.8015,3.8015,3.7739,3.7462,3.721,3.6934,3.6776,3.6686,3.6826,3.7038,3.732,3.7551,3.7716,3.7716,3.7831,3.79,3.7926,3.8187,3.8318,3.837,3.9233,3.9705,4.0071,4.0959,4.1299,4.1299,4.1299,4.1299,4.1299,1.0259,0.0,0.0,0.0,0.0,0.0,0.0,0.0,0.0,0.0,0.0,0.0,0.0,0.0,0.0,0.0,0.0,0.0,0.0,0.0,0.0,2.2563,2.2581,2.2398,2.2026,2.2114,2.2847,0.0,0.0,0.0,0.0,0.0,0.0,0.0,0.0,0.0,0.0,0.0,0.0,3.722,0.0,3.4672,3.5257,3.5497,3.5592,3.564,3.5953,3.6098,3.6098,3.6321,0.0,3.6799,3.6503,3.6695,0.0,0.0,0.0,0.0,0.0,0.0,0.0,0.0,0.0,3.6531,0.0,0.0,0.0,3.643,0.0,0.0,0.0,0.0,0.0,0.0,0.0,0.0,0.0,0.0,0.0,0.0,0.0,0.0,3.721,3.7588,3.7789,3.7688,3.7789,3.7789,3.7688,3.7286,3.706,3.706,3.6655,3.657,3.6756,3.7038,3.732,3.7575,3.7808,3.79,3.79,3.79,3.79,3.79,3.79,3.79,3.7952,3.8606,3.9181,3.9703,4.0749,4.1194,4.1299,4.1299,4.1299,4.1299,1.0554,1.0545,0.0,0.0,0.0,0.0,0.0,0.0,0.0,0.0,0.0,0.0,0.0,0.0,0.0,0.0,0.0,0.0,2.3297,0.0,0.0,2.2848,2.2848,2.2946,2.3112,2.3649,2.3992,2.4196,0.0,0.0,0.0,0.0,0.0,0.0,2.7851,0.0,0.0,0.0,3.4463,0.0,3.4604,3.5349,0.0,3.5908,3.5592,3.5544,3.5135,3.4991,3.4991,0.0,3.5274,3.5889,0.0,3.7221,0.0,0.0,0.0,0.0,0.0,0.0,0.0,0.0,3.6758,0.0,0.0,0.0,3.6984,3.6505,0.0,0.0,0.0,0.0,0.0,0.0,0.0,0.0,0.0,0.0,0.0,0.0,3.7182,0.0,0.0,3.7261,3.711,3.6607,3.7034,3.7085,3.6607,3.6531,3.6505,3.6505,3.6595,3.6805,3.7038,3.7343,3.7575,3.7854,3.7877,3.79,3.79,3.79,3.79,3.79,3.79,3.79,3.7978,3.9076,3.9547,3.9677,4.0254,4.0829,4.1299,4.1299,4.1299,4.1299,1.1589,0.0,0.0,0.0,0.0,0.0,0.0,0.0,0.0,0.0,0.0,0.0,0.0,0.0,0.0,0.0,0.0,2.2876,0.0,0.0,0.0,0.0,2.3657,2.373,2.3828,2.4053,2.4762,2.5942,2.8791,0.0,0.0,0.0,0.0,0.0,3.0446,0.0,3.1807,0.0,0.0,0.0,0.0,0.0,0.0,3.5762,3.5784,3.605,3.5833,3.5884,3.6008,0.0,3.6129,0.0,0.0,0.0,0.0,0.0,0.0,0.0,0.0,0.0,0.0,0.0,0.0,0.0,3.6531,0.0,3.6658,0.0,0.0,0.0,0.0,0.0,0.0,0.0,3.7135,0.0,0.0,0.0,0.0,0.0,0.0,0.0,3.6708,0.0,3.6984,3.6455,3.6909,3.6959,3.643,3.6405,3.6452,3.657,3.6662,3.6898,3.7343,3.7436,3.7621,3.79,3.79,3.79,3.79,3.79,3.8083,3.837,3.837,3.8579,3.8919,3.9416,3.9758,4.0071,4.0306,4.075,4.1299,4.1299,4.1299,4.1299,1.2809,0.0,0.0,0.0,0.0,0.0,0.0,0.0,0.0,0.0,0.0,0.0,2.2345,2.2936,0.0,0.0,0.0,2.3706,0.0,0.0,2.3962,2.4578,2.435,0.0,0.0,2.4936,2.5864,2.7613,0.0,0.0,0.0,0.0,0.0,0.0,0.0,3.3304,3.4002,0.0,0.0,3.5567,3.5249,3.5202,3.5376,3.5376,3.5712,3.6194,3.6194,3.644,3.6737,3.5933,3.6818,0.0,3.7022,0.0,0.0,0.0,0.0,0.0,3.8585,0.0,0.0,0.0,0.0,0.0,0.0,0.0,0.0,0.0,0.0,0.0,0.0,0.0,0.0,0.0,0.0,3.706,0.0,0.0,0.0,0.0,0.0,0.0,0.0,3.7336,3.7361,3.6658,3.7135,3.7135,3.6455,3.6405,3.6499,3.6686,3.6756,3.7038,3.7505,3.7551,3.7716,3.79,3.8148,3.8262,3.8285,3.853,3.8698,3.8843,3.9028,3.9181,3.939,3.9703,4.0069,4.0411,4.0567,4.0907,4.1299,4.1299,4.1299,4.1324,1.404,1.4256,0.0,0.0,0.0,0.0,0.0,0.0,0.0,0.0,0.0,0.0,0.0,0.0,0.0,0.0,0.0,2.5333,2.5333,0.0,2.4627,0.0,0.0,2.4814,0.0,0.0,2.7613,2.8651,0.0,0.0,0.0,0.0,0.0,0.0,0.0,3.3669,3.4323,3.5,3.5128,3.482,3.4822,3.4823,3.4823,0.0,3.5159,3.5616,3.5616,0.0,0.0,3.5183,3.6696,0.0,0.0,0.0,0.0,0.0,0.0,0.0,0.0,0.0,0.0,3.7451,0.0,0.0,0.0,0.0,3.6556,0.0,0.0,0.0,0.0,0.0,0.0,0.0,0.0,0.0,0.0,0.0,0.0,0.0,0.0,0.0,0.0,3.8492,3.8391,3.7261,3.7663,3.7513,3.6455,3.6405,3.6499,3.6686,3.6968,3.7201,3.7505,3.7762,3.7877,3.79,3.8747,3.9166,3.9188,4.0108,4.0021,3.922,3.9794,3.9543,3.8791,3.9914,4.0385,4.0461,4.1038,4.1273,4.1299,4.1299,4.1299,4.1374,0.0,0.0,0.0,0.0,0.0,0.0,0.0,1.8258,0.0,0.0,0.0,0.0,0.0,0.0,2.5847,0.0,0.0,2.6361,2.6824,2.5692,0.0,0.0,0.0,2.5479,0.0,0.0,0.0,0.0,0.0,0.0,0.0,0.0,0.0,0.0,0.0,3.407,0.0,0.0,0.0,0.0,0.0,3.5015,3.528,0.0,0.0,3.5543,3.52,3.5641,0.0,3.5963,3.8862,4.2315,4.0786,4.1276,4.244,4.2819,4.219,0.0,0.0,0.0,4.105,3.9668,0.0,0.0,0.0,0.0,0.0,0.0,0.0,0.0,0.0,0.0,0.0,0.0,0.0,0.0,0.0,0.0,0.0,0.0,0.0,0.0,0.0,0.0,0.0,3.7527,3.7628,3.7473,3.6902,3.6851,3.6968,3.7201,3.732,3.7482,3.7762,3.7854,3.79,3.79,3.8769,3.921,3.9232,4.0173,4.0901,4.1396,4.1596,4.158,4.1495,4.2545,4.2207,4.106,4.1934,4.1893,4.1373,4.2065,4.2115,4.2016,1.5895,0.0,0.0,0.0,0.0,0.0,0.0,0.0,0.0,0.0,2.4284,0.0,2.5838,0.0,2.7114,0.0,2.7816,2.8036,2.8448,2.763,0.0,2.9017,2.7267,0.0,0.0,0.0,0.0,0.0,0.0,3.2521,0.0,0.0,0.0,0.0,0.0,0.0,0.0,0.0,3.5535,0.0,0.0,3.5356,0.0,0.0,3.6088,3.6699,0.0,3.6924,3.7642,3.7144,3.9948,4.3533,4.2751,4.2978,4.3629,4.3903,4.3511,4.307,4.3289,4.318,0.0,4.1309,4.0674,0.0,3.8417,0.0,0.0,0.0,0.0,0.0,0.0,0.0,0.0,0.0,0.0,0.0,0.0,3.6557,0.0,0.0,0.0,0.0,0.0,0.0,3.8187,3.7648,3.7667,3.7534,3.7111,3.7108,3.7201,3.7482,3.7505,3.7621,3.79,3.8217,3.8349,3.8372,3.9607,4.0216,4.0238,4.1155,4.1959,4.2678,4.2883,4.2974,4.3086,4.392,4.3535,4.2431,4.3177,4.3057,4.2501,4.2816,4.3129,4.3583,0.0,0.0,0.0,0.0,1.7036,0.0,0.0,0.0,2.3255,0.0,2.5035,2.5361,2.5957,2.7027,2.8275,2.9752,3.0189,0.0,3.0318,3.0297,0.0,0.0,2.9775,2.9349,3.0163,0.0,0.0,0.0,0.0,0.0,0.0,0.0,0.0,0.0,3.4611,0.0,3.4184,3.5449,3.5559,3.4847,3.4896,3.5868,3.7284,3.7404,3.8086,3.8994,3.9085,3.9563,3.9973,3.875,4.0127,4.2709,4.4534,4.4644,4.4106,4.4312,4.396,4.3651,4.4213,4.396,4.3304,4.2352,0.0,0.0,0.0,0.0,3.8213,0.0,0.0,0.0,0.0,0.0,0.0,0.0,0.0,0.0,0.0,0.0,0.0,0.0,0.0,0.0,0.0,3.8691,3.8714,3.7697,3.7785,3.7648,0.0,3.7132,3.7248,3.7505,3.7505,3.7621,3.79,3.8702,3.9144,3.9166,4.1029,4.1914,4.1955,4.294,4.3255,4.3126,4.3681,4.3766,4.3578,4.4198,4.4382,4.4336,4.4586,4.4674,4.4581,4.3598,4.4349,4.5869,1.6637,1.6647,1.6907,0.0,1.8163,1.8984,0.0,0.0,0.0,0.0,2.6695,2.7369,2.8913,3.064,3.1515,3.1045,3.227,0.0,0.0,0.0,0.0,3.3747,3.1236,3.0631,3.2411,3.1664,0.0,3.3304,0.0,0.0,3.3317,0.0,0.0,0.0,0.0,0.0,3.4184,3.5449,3.5774,3.545,3.6259,3.7317,0.0,0.0,4.1029,4.1214,3.9928,4.0078,4.1108,4.2337,4.3235,4.4032,4.5009,4.5212,4.5104,4.5407,4.5389,4.5273,4.5446,4.536,4.5018,4.3971,4.3499,4.2956,0.0,0.0,0.0,0.0,0.0,0.0,0.0,0.0,0.0,0.0,0.0,0.0,0.0,0.0,0.0,3.6607,0.0,0.0,3.7965,3.8009,3.7974,3.7836,3.7687,3.7637,3.7693,0.0,3.7739,3.7808,3.7808,3.7831,3.79,3.8125,3.8213,3.8262,4.0087,4.0965,4.1036,4.3119,4.4284,4.4754,4.5395,4.55,4.5255,4.6152,4.565,4.4406,4.5343,4.5951,4.6123,4.5389,4.584,4.6864,1.7061,0.0,0.0,1.9496,0.0,0.0,2.2587,0.0,0.0,2.6957,2.8145,0.0,3.1309,3.2511,3.3548,3.4342,3.4732,0.0,0.0,0.0,0.0,3.5397,3.3546,3.293,3.3933,3.3099,0.0,3.3317,0.0,0.0,3.3591,0.0,0.0,0.0,0.0,3.5196,0.0,3.5458,3.5875,3.6005,3.6848,0.0,0.0,4.1373,4.2507,4.3084,4.2055,4.2079,4.2852,4.4506,4.4875,4.4736,4.539,4.5545,4.5498,4.5798,4.5917,4.5917,4.5917,4.5917,4.5753,4.5155,4.4666,4.4088,4.3187,4.2907,4.2484,0.0,0.0,0.0,0.0,0.0,0.0,0.0,0.0,0.0,0.0,0.0,0.0,0.0,3.6859,0.0,3.7287,3.7574,3.7733,3.7739,3.7893,3.7973,3.7903,0.0,3.8135,3.7926,3.8397,3.8605,3.8485,3.9374,3.978,3.9728,4.1113,4.1926,4.2257,4.366,4.4835,4.5753,4.6121,4.6359,4.6506,4.7062,4.6682,4.5824,4.6711,4.7276,4.7533,4.7168,4.734,4.784,0.0,0.0,0.0,0.0,0.0,0.0,0.0,2.5424,0.0,2.7408,0.0,3.1353,3.3034,3.3679,3.5104,3.7851,0.0,3.6611,3.7089,3.7099,3.687,3.6419,3.5818,3.5263,3.4808,3.428,0.0,0.0,0.0,0.0,0.0,0.0,0.0,0.0,0.0,0.0,0.0,3.5613,3.6053,3.6666,3.7342,3.882,4.0753,4.1886,4.3191,4.4401,4.4401,4.4401,4.4523,4.5399,4.5388,4.5143,4.5631,4.5768,4.5762,4.5966,4.6069,4.615,4.615,4.615,4.615,4.604,4.5316,4.4612,4.4527,4.3843,4.3013,4.2449,4.262,4.2147,0.0,0.0,0.0,0.0,0.0,0.0,0.0,0.0,0.0,0.0,0.0,0.0,3.6579,3.7388,3.7771,3.7462,3.8155,3.8397,3.7926,0.0,3.8397,3.7926,3.8867,3.9345,3.9253,4.0995,4.1881,4.1883,4.2815,4.3567,4.4154,4.4435,4.5194,4.63,4.639,4.6749,4.7309,4.7331,4.7473,4.773,4.8154,4.8427,4.8583,4.8583,4.8583,4.8583,0.0,0.0,0.0,0.0,0.0,2.4855,2.6787,2.7578,2.8289,2.9078,3.0471,3.1907,3.3234,3.6288,3.7886,3.697,3.7998,0.0,0.0,0.0,0.0,3.6892,3.5975,3.5263,3.4808,3.428,3.3775,0.0,0.0,0.0,0.0,0.0,0.0,0.0,0.0,0.0,3.619,3.6241,0.0,3.7841,3.928,4.07,4.2102,4.3464,4.4149,4.4401,4.4401,4.4401,4.4425,4.4598,4.5135,4.566,4.5339,4.601,4.687,4.6708,4.7027,4.7486,4.7486,4.7486,4.7317,4.6772,4.6489,4.6229,4.5733,4.5481,4.5081,4.4102,4.3626,4.2981,4.1699,0.0,0.0,0.0,0.0,0.0,0.0,0.0,0.0,0.0,0.0,3.7258,0.0,3.7712,3.77,3.7206,3.7725,3.8004,3.7926,0.0,3.8004,0.0,3.8109,0.0,0.0,0.0,4.023,4.1205,4.2439,4.3119,4.3307,4.5119,4.6091,4.633,4.6869,4.7189,4.7309,4.7473,4.7794,4.8197,4.8281,4.8427,4.8583,4.8583,4.8583,4.8583,0.0,0.0,0.0,0.0,0.0,0.0,0.0,2.9335,0.0,3.055,3.1389,3.2638,3.458,3.6876,3.8193,3.8029,3.8566,3.8711,3.8258,3.7701,3.726,3.7007,3.63,0.0,3.4808,3.4555,3.405,3.3317,0.0,0.0,0.0,0.0,0.0,0.0,0.0,3.6036,0.0,0.0,0.0,3.8516,3.9861,4.1157,4.2454,4.3867,4.4401,4.4401,4.4401,4.4828,4.5308,4.4893,4.5313,4.601,4.6005,4.6691,4.7474,4.737,4.755,4.7805,4.7805,4.7805,4.7718,4.7404,4.7317,4.723,4.6963,4.6621,4.6223,4.5711,4.5127,4.4334,4.3004,4.0814,0.0,0.0,0.0,0.0,0.0,0.0,0.0,0.0,0.0,0.0,0.0,0.0,0.0,0.0,0.0,3.8187,3.7926,0.0,3.8187,0.0,0.0,0.0,4.0106,0.0,4.1289,4.2217,4.3207,4.3871,4.4246,4.5653,4.648,4.6839,4.716,4.7374,4.7473,4.7816,4.8112,4.8322,4.8396,4.85,4.8583,4.8583,4.8583,4.8583,0.0,2.1515,0.0,0.0,2.7057,0.0,2.989,3.0719,3.1367,3.1747,3.2344,3.3626,3.5954,3.7103,3.8097,3.9059,3.8895,3.8642,3.8436,3.7655,3.7122,3.7007,3.6553,3.5891,3.4969,3.4854,3.4349,0.0,0.0,0.0,0.0,0.0,0.0,0.0,0.0,0.0,0.0,0.0,3.7689,3.8968,4.0262,4.1579,4.2869,4.3989,4.4401,4.4401,4.4401,4.528,4.6343,4.5463,4.5652,4.6351,4.6795,4.7416,4.7985,4.7985,4.8096,4.8212,4.8212,4.8212,4.8183,4.8038,4.7985,4.7956,4.7834,4.7375,4.6975,4.683,4.633,4.545,4.3947,4.1875,0.0,0.0,0.0,0.0,0.0,0.0,0.0,0.0,0.0,0.0,3.6939,0.0,0.0,0.0,0.0,3.8397,3.8083,3.8475,3.8527,0.0,0.0,3.9871,4.0845,0.0,4.2639,4.3614,4.4374,4.5005,4.5544,4.6211,4.6779,4.7309,4.7309,4.746,4.7709,4.8133,4.8343,4.8355,4.8521,4.8583,4.8583,4.8583,4.8583,4.8583,0.0,0.0,0.0,0.0,0.0,0.0,3.002,3.1722,3.2883,3.2555,3.3659,3.5011,3.6396,3.8088,3.9007,3.8688,3.901,3.8849,3.793,3.777,3.7517,3.703,3.6553,3.6052,3.5474,3.5014,3.4509,0.0,0.0,0.0,0.0,0.0,0.0,0.0,0.0,0.0,0.0,3.7963,3.8767,3.9255,4.1302,4.2965,4.4205,4.435,4.4401,4.4401,4.4401,4.5553,4.6842,4.5763,4.6065,4.6981,4.7242,4.7941,4.8629,4.8629,4.9059,4.9519,4.9519,4.9519,4.9374,4.8774,4.8629,4.8455,4.7921,4.7747,4.7521,4.6917,4.633,4.5543,4.4442,4.363,4.2791,0.0,0.0,0.0,0.0,0.0,0.0,0.0,0.0,0.0,0.0,3.8704,0.0,0.0,3.8413,3.8161,3.8606,3.8684,3.8684,3.8632,3.8736,3.9703,4.1676,4.1674,4.2649,4.4581,4.5607,4.6151,4.6241,4.6899,4.7249,4.7309,4.7309,4.7568,4.7986,4.8218,4.8427,4.8563,4.8583,4.8583,4.8583,4.8583,4.8583,4.8583,0.0,0.0,0.0,0.0,0.0,0.0,0.0,3.2157,3.3196,3.5173,3.6102,3.7055,3.8399,3.8994,3.9101,3.8619,3.8459,3.8091,3.7379,3.7058,3.681,3.6576,3.6419,3.6075,3.5493,3.5037,3.4532,0.0,0.0,0.0,0.0,0.0,0.0,0.0,0.0,3.6475,3.7369,3.7641,3.8913,4.0896,4.144,4.2757,4.4401,4.4401,4.4401,4.4401,4.4401,4.5505,4.6965,4.6928,4.7338,4.7798,4.7686,4.8407,4.9291,4.9291,4.949,4.9693,4.9693,4.9693,4.9635,4.9349,4.9291,4.9233,4.8996,4.8624,4.8252,4.799,4.712,4.6216,4.5424,4.4583,4.3714,0.0,0.0,0.0,0.0,0.0,0.0,0.0,0.0,0.0,0.0,0.0,0.0,0.0,0.0,3.8632,3.9233,3.8606,3.8527,3.9233,0.0,3.9839,4.1615,4.2178,4.3103,4.4461,4.5722,4.63,4.633,4.6988,4.7374,4.7473,4.7645,4.7901,4.8197,4.8406,4.8521,4.8583,4.8583,4.8583,4.8583,4.8583,4.8583,4.8583,2.8263,0.0,2.9487,0.0,3.1659,3.164,3.2417,3.2764,3.3791,3.6236,3.7754,3.8814,3.9365,3.9357,3.9101,3.8619,3.8229,3.7816,3.726,3.6782,3.6511,3.6511,3.6373,0.0,3.5749,3.5267,3.4831,3.444,3.4747,0.0,0.0,0.0,0.0,0.0,3.6158,3.6998,3.824,3.8239,3.9599,4.1785,4.2025,4.3053,4.4499,4.5218,4.5487,4.5477,4.5218,4.6099,4.7409,4.7592,4.8076,4.8605,4.8407,4.8967,4.9693,4.9693,4.9693,4.9693,4.9693,4.9693,4.9693,4.9693,4.9693,4.9693,4.9693,4.932,4.8919,4.8745,4.77,4.6685,4.6243,4.5385,4.4519,4.3865,0.0,0.0,0.0,0.0,0.0,0.0,3.8231,3.8075,3.8224,3.89,0.0,0.0,0.0,3.9671,4.0,3.8822,3.8757,0.0,0.0,0.0,4.2162,4.2897,4.3797,4.4895,4.6061,4.66,4.66,4.7078,4.7417,4.7602,4.788,4.8112,4.8322,4.85,4.8583,4.8583,4.8583,4.8583,4.8583,4.8583,4.8583,4.8583,2.9652,3.0851,3.188,3.2653,3.2327,3.1976,3.1913,3.3699,3.4992,3.4762,3.8146,4.0059,3.8764,3.901,3.9101,3.8619,3.8573,3.8344,3.7816,3.7282,3.7007,0.0,0.0,3.6305,3.6282,3.5772,3.547,3.547,0.0,0.0,3.4816,0.0,3.588,3.6437,3.7494,3.8291,3.8894,4.048,4.1161,4.1389,4.3511,4.4381,4.4654,4.7124,4.8052,4.7962,4.7145,4.7633,4.8436,4.7386,4.8046,4.933,4.9595,4.9693,4.9693,4.9693,4.9693,4.9693,4.9693,4.9693,4.9693,4.9693,4.9693,4.9693,4.9693,4.9693,4.9519,4.8832,4.77,4.6801,4.6801,4.6279,4.5549,4.4475,0.0,0.0,0.0,0.0,0.0,0.0,4.0224,4.0415,4.0828,4.0931,0.0,0.0,0.0,0.0,0.0,0.0,0.0,4.1405,4.0584,0.0,4.3755,4.3855,4.4678,4.63,4.6958,4.7309,4.7309,4.7309,4.7417,4.7602,4.788,4.8112,4.8322,4.85,4.8583,4.8583,4.8583,4.8583,4.8583,4.8583,4.8583,4.8583,3.1612,3.2389,3.2813,3.27,3.2817,3.2941,3.2929,3.3502,3.4668,3.6684,3.87,3.9926,3.9971,3.9761,3.9359,0.0,3.8596,3.8206,0.0,3.7099,3.6847,3.653,3.6396,3.6305,3.6305,3.5772,3.56,3.5835,0.0,0.0,0.0,3.7338,3.7692,3.7568,3.8985,3.9925,4.0458,4.0978,4.2045,4.344,4.4141,4.4411,4.4658,4.7165,4.8108,4.7938,4.6882,4.7133,4.7885,4.7742,4.8419,4.9355,4.9624,4.9693,4.9693,4.9693,4.9693,4.9693,4.9693,4.9693,4.9693,4.9693,4.9693,4.9693,4.9693,4.9693,4.9519,4.8832,4.8072,4.7346,4.6888,4.633,4.5776,4.5458,4.486,0.0,0.0,0.0,0.0,0.0,4.021,4.0096,4.0222,4.089,0.0,0.0,0.0,0.0,0.0,0.0,0.0,0.0,4.2062,0.0,4.3777,4.4961,4.5786,4.63,4.698,4.7309,4.7309,4.743,4.7624,4.788,4.8112,4.8322,4.85,4.8563,4.8583,4.8583,4.8583,4.8583,4.8583,4.8583,4.8583,4.8583,3.2847,3.2995,3.2928,3.2902,3.3178,3.3401,3.3407,3.5085,3.6732,3.7862,3.8934,3.9582,3.9571,3.9609,0.0,3.8799,3.8614,3.8044,3.7076,3.6824,3.6599,3.6305,3.6305,3.6305,3.6305,3.5956,0.0,3.6247,3.6856,3.7484,3.8119,3.8995,3.9318,3.9265,4.0535,4.1317,4.1639,4.2198,4.3168,4.4378,4.4403,4.4949,4.5954,4.7523,4.808,4.7989,4.7246,4.738,4.7989,4.8235,4.8768,4.9355,4.9624,4.9693,4.9693,4.9693,4.9693,4.9693,4.9693,4.9693,4.9693,4.9693,4.9693,4.9693,4.9693,4.9693,4.9577,4.9175,4.8566,4.7956,4.7288,4.6679,4.6156,4.5946,4.5569,4.5075,4.4436,0.0,0.0,0.0,0.0,0.0,0.0,4.1631,4.2116,0.0,0.0,0.0,0.0,0.0,0.0,4.2639,4.2894,4.3444,4.4363,4.5645,4.642,4.6659,4.71,4.7352,4.7439,4.7538,4.7794,4.8133,4.826,4.8396,4.8583,4.8583,4.8583,4.8583,4.8583,4.8583,4.8583,4.8583,4.8583,4.8583,3.3398,3.2821,3.2491,0.0,3.3314,0.0,3.37,3.7857,4.0263,3.8259,3.893,3.9213,3.8103,3.8887,3.9338,3.8982,0.0,0.0,0.0,3.6599,3.6327,3.6305,3.6305,3.6305,3.6305,3.6332,3.6468,3.6812,3.8037,3.8965,3.9723,4.0404,4.0951,4.1398,4.2177,4.2484,4.2506,4.3843,4.4401,4.4411,4.4383,4.5878,4.8081,4.8099,4.8107,4.8108,4.8134,4.8308,4.8556,4.8859,4.9108,4.9379,4.962,4.9693,4.9693,4.9693,4.9693,4.9693,4.9693,4.9693,4.9693,4.9693,4.9693,4.9693,4.9693,4.9693,4.9693,4.9693,4.9175,4.8513,4.7921,4.7259,4.6598,4.5982,4.5917,4.5685,4.4988,0.0,0.0,0.0,0.0,0.0,0.0,4.2939,4.269,0.0,0.0,0.0,0.0,0.0,4.2315,4.3339,4.3272,4.3919,4.5364,4.6031,4.6689,4.7309,4.7309,4.7439,4.7602,4.7624,4.7901,4.8301,4.8322,4.8448,4.8583,4.8583,4.8583,4.8583,4.8583,4.8583,4.8583,4.8583,4.8583,4.8583,0.0,0.0,3.2761,3.1669,3.2539,3.4172,3.6532,3.797,3.8601,3.8078,3.9168,3.9686,3.8907,3.9638,3.973,3.8643,3.8534,3.8269,3.7655,3.7127,3.6668,3.6305,3.6305,3.6305,3.6305,3.6522,3.706,3.8,3.9757,4.0727,4.0932,4.283,4.3429,4.2993,4.4114,4.4355,4.3914,4.4246,4.4396,4.4411,4.4405,4.5899,4.8099,4.811,4.8103,4.8134,4.8333,4.8585,4.8859,4.9108,4.9379,4.962,4.9669,4.9693,4.9693,4.9693,4.9693,4.9693,4.9693,4.9693,4.9693,4.9693,4.9693,4.9693,4.9693,4.9693,4.9693,4.9693,4.9175,4.8513,4.7921,4.7259,4.6598,4.5982,4.5917,4.5685,4.4988,4.4356,0.0,0.0,4.279,4.2609,4.2904,4.3016,4.3367,0.0,0.0,0.0,4.4057,4.4285,4.4324,4.4087,4.5007,4.5692,4.6061,4.6741,4.716,4.7309,4.7482,4.7538,4.7602,4.7986,4.8197,4.8322,4.8459,4.8542,4.8583,4.8583,4.8583,4.8583,4.8583,4.8583,4.8583,4.8583,4.8583,4.8583,3.3391,3.3403,3.3098,3.2204,3.2161,3.3548,3.7413,3.8831,3.9105,3.8123,3.8678,3.9244,3.9523,3.9478,3.93,3.8927,3.8522,3.7993,3.7349,3.7114,3.6892,3.6622,3.6989,3.7188,3.7188,3.8016,3.9059,4.0323,4.2005,4.284,4.2892,4.4635,4.5203,4.4837,4.5671,4.5436,4.4425,4.5021,4.4921,4.4405,4.4392,4.59,4.8113,4.8122,4.8108,4.8159,4.838,4.8656,4.8959,4.9207,4.9477,4.9693,4.9693,4.9693,4.9693,4.9693,4.9693,4.9693,4.9693,4.9693,4.9693,4.9693,4.9693,4.9693,4.9693,4.9693,4.9693,4.9693,4.9407,4.8885,4.7979,4.7491,4.6969,4.6063,4.5917,4.575,4.5424,4.4814,0.0,4.3664,4.3571,4.3496,4.3303,4.3557,4.3908,4.4267,4.4027,0.0,4.4267,4.4945,4.4975,4.4326,4.5613,4.63,4.63,4.6958,4.7352,4.746,4.7538,4.7709,4.7922,4.8197,4.8364,4.8417,4.8542,4.8583,4.8583,4.8583,4.8583,4.8583,4.8583,4.8583,4.8583,4.8583,4.8583,4.8583,3.3403,3.3398,3.3333,3.3066,3.2425,3.3447,3.7817,3.9769,4.019,3.8688,3.8278,3.8639,3.9883,3.9173,3.8872,3.9476,3.8665,3.7817,3.7165,3.722,3.7261,3.7261,3.798,3.8353,3.8353,3.9885,4.1354,4.2762,4.424,4.4957,4.4983,4.6064,4.656,4.656,4.6844,4.608,4.4777,4.5839,4.5553,4.4444,4.4809,4.6209,4.8094,4.8097,4.8108,4.8159,4.8459,4.8706,4.8959,4.9256,4.9526,4.9693,4.9693,4.9693,4.9693,4.9693,4.9693,4.9693,4.9693,4.9693,4.9693,4.9693,4.9693,4.9693,4.9693,4.9693,4.9693,4.9693,4.9693,4.9315,4.8038,4.7805,4.7399,4.6121,4.5917,4.5917,4.5917,0.0,4.4836,4.4477,4.4565,4.4524,4.4178,4.4324,4.4446,4.4446,4.3938,4.3848,4.4416,4.5095,4.5185,4.4625,4.5792,4.645,4.645,4.7061,4.7439,4.7602,4.7666,4.7922,4.8301,4.8343,4.8448,4.8583,4.8583,4.8583,4.8583,4.8583,4.8583,4.8583,4.8583,4.8583,4.8583,4.8583,4.8583,4.8583,3.3401,3.3421,3.2953,3.1539,3.4424,3.7742,4.0324,3.9443,3.9019,4.0501,3.9694,3.9101,3.9613,3.9922,3.9958,3.9614,3.9253,3.9022,3.9066,3.8681,3.8442,3.8442,3.8568,3.8643,3.8643,4.0525,4.2177,4.3624,4.5311,4.6128,4.6154,4.729,4.7828,4.78,4.7344,4.6724,4.6011,4.6217,4.5567,4.4579,4.6678,4.7756,4.81,4.8106,4.8108,4.8185,4.866,4.8859,4.8984,4.9473,4.9669,4.9693,4.9693,4.9693,4.9693,4.9693,4.9693,4.9693,4.9693,4.9693,4.9693,4.9693,4.9693,4.9693,4.9693,4.9693,4.9693,4.9693,4.9693,4.9315,4.8038,4.7805,4.7399,4.6121,4.5917,4.5917,4.5917,0.0,4.523,4.5135,4.5001,4.492,4.4852,4.503,4.5155,4.5155,4.5035,4.5035,4.5125,4.5762,4.6091,4.6001,4.6719,4.7138,4.7138,4.7422,4.7559,4.7602,4.8007,4.8239,4.8322,4.8489,4.8563,4.8583,4.8583,4.8583,4.8583,4.8583,4.8583,4.8583,4.8583,4.8583,4.8583,4.8583,4.8583,4.8583,3.2231,3.2038,3.1802,3.1049,3.5772,3.9659,3.9518,3.9604,4.0066,4.1076,4.0315,3.9857,4.041,4.0178,4.009,4.0427,4.0074,4.0005,4.0388,3.9599,3.9146,3.9146,4.0122,4.1389,4.2842,4.3746,4.4838,4.6122,4.6914,4.7337,4.7337,4.7852,4.8108,4.808,4.78,4.7528,4.7287,4.7272,4.6929,4.6495,4.7659,4.8094,4.8108,4.8108,4.8108,4.8185,4.871,4.8909,4.8984,4.9522,4.9693,4.9693,4.9693,4.9693,4.9693,4.9693,4.9693,4.9693,4.9693,4.9693,4.9693,4.9693,4.9693,4.9693,4.9693,4.9693,4.9693,4.9693,4.9693,4.9315,4.8038,4.7805,4.7399,4.6121,4.5917,0.0,0.0,4.5895,4.5749,4.5687,4.5882,4.5934,4.5734,4.578,4.5843,4.5843,4.5514,4.5454,4.5822,4.6121,4.648,4.6809,4.716,4.7352,4.7482,4.7538,4.773,4.7986,4.8218,4.8364,4.8459,4.8542,4.8583,4.8583,4.8583,4.8583,4.8583,4.8583,4.8583,4.8583,4.8583,4.8583,4.8583,4.8583,4.8583,4.8625,3.1722,3.1169,3.089,3.0905,3.6406,4.0364,3.8956,3.9978,4.1006,4.1202,4.0729,4.0571,4.1128,4.0475,4.0306,4.1153,4.0812,4.0739,4.1148,4.0526,4.0031,3.9888,4.1565,4.3746,4.6348,4.64,4.6948,4.8108,4.8108,4.8108,4.8108,4.8108,4.8108,4.8108,4.8108,4.8108,4.8108,4.8108,4.8108,4.8108,4.8108,4.8108,4.8108,4.8108,4.8159,4.8258,4.8735,4.8959,4.9083,4.9522,4.9693,4.9693,4.9693,4.9693,4.9693,4.9693,4.9693,4.9693,4.9693,4.9693,4.9693,4.9693,4.9693,4.9693,4.9693,4.9693,4.9693,4.9693,4.9693,4.9315,4.8038,4.7805,4.7399,4.6121,0.0,0.0,0.0,4.6269,4.627,4.6213,4.6678,4.6854,4.6548,4.654,4.654,4.654,4.6052,4.5992,4.651,4.654,4.677,4.7344,4.7374,4.743,4.7602,4.7709,4.7943,4.8301,4.8364,4.8438,4.8583,4.8583,4.8583,4.8583,4.8583,4.8583,4.8583,4.8583,4.8583,4.8583,4.8583,4.8583,4.8583,4.8583,4.8666,4.8811,3.3244,3.1948,3.0892,3.0897,3.5783,4.0002,4.0841,4.0525,4.041,4.1109,4.1153,4.1124,4.1206,4.1129,4.11,4.1201,4.1177,4.1177,4.1201,4.1635,4.1667,4.1095,4.2213,4.3965,4.6348,4.64,4.6948,4.8108,4.8108,4.8108,4.8108,4.8108,4.8108,4.8108,4.8108,4.8108,4.8108,4.8108,4.8108,4.8108,4.8108,4.8108,4.8108,4.8108,4.8258,4.8506,4.881,4.9058,4.9305,4.9595,4.9693,4.9693,4.9693,4.9693,4.9693,4.9693,4.9693,4.9693,4.9693,4.9693,4.9693,4.9693,4.9693,4.9693,4.9693,4.9693,4.9693,4.9693,4.9693,4.9315,4.8038,4.7805,4.7399,4.6121,0.0,0.0,4.618,4.6403,4.6646,4.6828,4.7076,4.7258,4.7249,4.7249,4.7249,4.7249,4.7189,4.7189,4.7219,4.7249,4.7336,4.7559,4.7581,4.7581,4.7602,4.8028,4.8281,4.8301,4.848,4.8583,4.8583,4.8583,4.8583,4.8583,4.8583,4.8583,4.8583,4.8583,4.8583,4.8583,4.8583,4.8583,4.8583,4.8583,4.8872,4.9239,3.2054,3.1332,3.1836,3.4789,3.8258,4.0739,4.1144,4.0974,4.0903,4.1148,4.1201,4.1201,4.1201,4.1201,4.1201,4.1201,4.1201,4.1369,4.1716,4.1968,4.2625,4.3799,4.4643,4.582,4.7414,4.744,4.7673,4.8108,4.8108,4.8108,4.8108,4.8108,4.8108,4.8108,4.8108,4.8108,4.8108,4.8108,4.8108,4.8108,4.8108,4.8108,4.8108,4.8108,4.8258,4.8531,4.881,4.9083,4.933,4.9595,4.9693,4.9693,4.9693,4.9693,4.9693,4.9693,4.9693,4.9693,4.9693,4.9693,4.9693,4.9693,4.9693,4.9693,4.9693,4.9693,4.9693,4.9693,4.9693,4.9315,4.8038,4.7805,4.7399,4.6121,0.0,4.618,4.6403,4.6646,4.6866,4.7106,4.7244,4.7309,4.7309,4.7309,4.7309,4.7309,4.7309,4.7309,4.7309,4.7439,4.7516,4.7602,4.788,4.8049,4.8049,4.8218,4.8364,4.848,4.8542,4.8583,4.8583,4.8583,4.8583,4.8583,4.8583,4.8583,4.8583,4.8583,4.8583,4.8583,4.8583,4.8769,4.9015,4.9015,4.928,4.9733,3.1224,3.1339,3.322,3.8134,4.0229,4.1195,4.1197,4.12,4.1201,4.1201,4.1201,4.1201,4.1201,4.1201,4.1201,4.1201,4.1521,4.1834,4.2082,4.2765,4.3852,4.5422,4.6085,4.6922,4.8083,4.8108,4.8108,4.8108,4.8108,4.8108,4.8108,4.8108,4.8108,4.8108,4.8108,4.8108,4.8108,4.8108,4.8108,4.8108,4.8108,4.8108,4.8108,4.8182,4.8384,4.8656,4.8934,4.9207,4.9453,4.962,4.9693,4.9693,4.9693,4.9693,4.9693,4.9693,4.9693,4.9693,4.9693,4.9693,4.9693,4.9693,4.9693,4.9693,4.9693,4.9693,4.9693,4.9693,4.9693,4.9315,4.8038,4.7805,4.7393,4.6182,4.6113,4.6314,4.6646,4.6822,4.6997,4.7287,4.7309,4.7309,4.7309,4.7309,4.7309,4.7309,4.7309,4.7331,4.7396,4.7602,4.7752,4.7816,4.8197,4.8375,4.8375,4.8375,4.8459,4.8583,4.8583,4.8583,4.8583,4.8583,4.8583,4.8583,4.8583,4.8583,4.8583,4.8583,4.8583,4.8604,4.8749,4.9015,4.9331,4.9421,4.9721,5.0148,3.1268,3.2295,3.5085,4.0295,4.1184,4.1209,4.1182,4.1201,4.1201,4.1201,4.1201,4.1201,4.1201,4.1201,4.1225,4.1225,4.2263,4.2684,4.2167,4.4235,4.5502,4.5502,4.6085,4.6948,4.8083,4.8108,4.8108,4.8108,4.8108,4.8108,4.8108,4.8108,4.8108,4.8108,4.8108,4.8108,4.8108,4.8108,4.8108,4.8108,4.8108,4.8108,4.8134,4.8409,4.8656,4.8959,4.9207,4.9477,4.9693,4.9693,4.9693,4.9693,4.9693,4.9693,4.9693,4.9693,4.9693,4.9693,4.9693,4.9693,4.9693,4.9693,4.9693,4.9693,4.9693,4.9693,4.9693,4.9693,4.9693,4.9315,4.8038,4.7805,4.7439,4.6384,4.6202,4.638,4.6814,4.6909,4.6997,4.7287,4.7309,4.7309,4.7309,4.7309,4.7309,4.7309,4.7309,4.7396,4.7581,4.7858,4.8091,4.8301,4.851,4.8583,4.8583,4.8583,4.8583,4.8583,4.8583,4.8583,4.8583,4.8583,4.8583,4.8583,4.8583,4.8583,4.8583,4.8583,4.8583,4.8646,4.9117,4.928,4.9372,4.9773,5.0187,5.0602,3.2732,3.6016,3.9363,4.094,4.1201,4.1191,4.1201,4.1201,4.1201,4.1201,4.1201,4.1201,4.1201,4.1201,4.169,4.2924,4.2949,4.3372,4.4493,4.5952,4.6945,4.737,4.7507,4.775,4.8108,4.8108,4.8108,4.8108,4.8108,4.8108,4.8108,4.8108,4.8108,4.8108,4.8108,4.8108,4.8108,4.8108,4.8108,4.8108,4.8108,4.8108,4.8134,4.8409,4.8656,4.8959,4.9207,4.9477,4.9693,4.9693,4.9693,4.9693,4.9693,4.9693,4.9693,4.9693,4.9693,4.9693,4.9693,4.9693,4.9693,4.9693,4.9693,4.9693,4.9693,4.9693,4.9693,4.9693,4.932,4.8769,4.795,4.7573,4.7128,4.6319,4.6491,4.6756,4.6887,4.7062,4.7222,4.7287,4.7309,4.7309,4.7309,4.7309,4.7309,4.7309,4.7439,4.7602,4.7858,4.8091,4.8239,4.8301,4.851,4.8583,4.8583,4.8583,4.8583,4.8583,4.8583,4.8583,4.8583,4.8583,4.8583,4.8583,4.8583,4.8583,4.8583,4.8583,4.879,4.9128,4.927,4.9641,5.0219,5.0866,5.1339,5.1804,3.6095,3.904,4.1218,4.1192,4.122,4.1201,4.1201,4.1201,4.1201,4.1201,4.1201,4.1201,4.1201,4.1394,4.213,4.3689,4.4112,4.5001,4.6534,4.7271,4.7945,4.8532,4.8748,4.8724,4.8474,4.8221,4.8108,4.8108,4.8108,4.8108,4.8108,4.8108,4.8108,4.8108,4.8108,4.8108,4.8108,4.8108,4.8108,4.8108,4.8108,4.8108,4.8159,4.8534,4.8785,4.8959,4.933,4.9547,4.9693,4.9693,4.9693,4.9693,4.9693,4.9693,4.9693,4.9693,4.9693,4.9693,4.9693,4.9693,4.9693,4.9693,4.9693,4.9693,4.9693,4.9693,4.9635,4.9349,4.9073,4.8568,4.7719,4.7664,4.7437,4.6616,4.6941,4.725,4.707,4.7222,4.7309,4.7309,4.7309,4.7309,4.7309,4.7309,4.7331,4.7417,4.7624,4.7858,4.8112,4.8239,4.8343,4.8427,4.8521,4.8583,4.8583,4.8583,4.8583,4.8583,4.8583,4.8583,4.8583,4.8583,4.8583,4.8583,4.8583,4.8708,4.8872,4.8872,4.9138,4.9541,4.9701,5.0077,5.0589,5.1199,5.1765,5.23,3.9916,4.0924,4.105,4.1172,4.1201,4.1201,4.1201,4.1201,4.1201,4.1201,4.1201,4.1225,4.1273,4.1794,4.2694,4.3982,4.5762,4.7224,4.8219,4.8273,4.8572,4.9247,4.9751,4.9705,4.912,4.8502,4.8137,4.8108,4.8108,4.8108,4.8108,4.8108,4.8108,4.8108,4.8108,4.8108,4.8108,4.8108,4.8108,4.8108,4.8108,4.8134,4.821,4.871,4.8909,4.9009,4.9498,4.9693,4.9693,4.9693,4.9693,4.9693,4.9693,4.9693,4.9693,4.9693,4.9693,4.9693,4.9693,4.9693,4.9693,4.9635,4.9606,4.9635,4.9693,4.9693,4.9519,4.8832,4.8907,4.8717,4.743,4.7894,4.8115,4.7073,4.7406,4.7725,4.7326,4.7309,4.7309,4.7309,4.7309,4.7309,4.7309,4.7331,4.7439,4.7645,4.788,4.8112,4.8322,4.8343,4.8396,4.8583,4.8583,4.8583,4.8583,4.8583,4.8583,4.8583,4.8583,4.8583,4.8583,4.8583,4.8583,4.8583,4.8625,4.8893,4.9311,4.9351,4.9582,4.9979,5.037,5.0525,5.0602,5.11,5.1737,5.2398,3.7791,3.8956,3.9971,4.0995,4.1201,4.1201,4.1201,4.1201,4.1201,4.1201,4.1201,4.1369,4.1779,4.2774,4.4266,4.636,4.8184,4.9133,4.8924,4.8897,4.9392,5.0449,5.0187,4.993,4.979,4.912,4.8586,4.8108,4.8108,4.8108,4.8108,4.8108,4.8108,4.8108,4.8108,4.8108,4.8108,4.8108,4.8108,4.8108,4.8108,4.826,4.8513,4.881,4.9033,4.9256,4.9571,4.9693,4.9693,4.9693,4.9693,4.9693,4.9693,4.9693,4.9693,4.9693,4.9693,4.9693,4.9693,4.9693,4.9577,4.9059,4.8943,4.9059,4.9577,4.9693,4.9519,4.8832,4.8902,4.8711,4.743,4.7648,4.7785,4.7028,4.7203,4.7394,4.7287,4.7309,4.7309,4.7309,4.7309,4.7309,4.7309,4.743,4.7709,4.8133,4.8218,4.8343,4.8521,4.8521,4.8542,4.8583,4.8583,4.8583,4.8583,4.8583,4.8583,4.8583,4.8583,4.8583,4.8583,4.8583,4.8583,4.8604,4.8975,4.923,4.93,4.9653,4.9998,5.0389,5.0467,5.0717,5.1118,5.1763,5.243,5.3252,3.7635,3.8626,3.9621,4.0971,4.1201,4.1201,4.1201,4.1201,4.1201,4.1201,4.1442,4.1706,4.1971,4.3523,4.5511,4.7916,4.9,4.9677,4.9938,4.9688,5.0078,5.1282,5.1027,5.0577,5.0013,4.9651,4.9033,4.8108,4.8108,4.8108,4.8108,4.8108,4.8108,4.8108,4.8108,4.8108,4.8108,4.8108,4.8108,4.8108,4.8108,4.8258,4.8585,4.881,4.9083,4.933,4.9595,4.9693,4.9693,4.9693,4.9693,4.9693,4.9693,4.9693,4.9693,4.9693,4.9693,4.9693,4.9693,4.9693,4.9606,4.9262,4.8919,4.8774,4.9146,4.9068,4.882,4.8499,4.8747,4.8709,4.7707,4.8326,4.8663,4.7732,4.7961,4.8027,4.7399,4.7309,4.7309,4.7309,4.7309,4.7352,4.7409,4.773,4.8049,4.8301,4.8406,4.848,4.8583,4.8583,4.8583,4.8583,4.8583,4.8583,4.8583,4.8583,4.8583,4.8583,4.8583,4.8583,4.8583,4.8583,4.8708,4.8934,4.9178,4.9501,4.988,5.0097,5.0428,5.0813,5.0813,5.0978,5.1251,5.1588,5.2398,5.3447,3.8017,3.8992,3.9884,4.1,4.1201,4.1201,4.1201,4.1201,4.1249,4.1317,4.173,4.2097,4.2383,4.4476,4.6788,4.9135,4.9215,4.9614,5.0823,5.0348,5.0544,5.1759,5.1787,5.128,5.0155,5.0154,4.9481,4.8108,4.8108,4.8108,4.8108,4.8108,4.8108,4.8108,4.8108,4.8108,4.8108,4.8108,4.8108,4.8108,4.8159,4.8333,4.8581,4.8884,4.9132,4.9404,4.962,4.9693,4.9693,4.9693,4.9693,4.9693,4.9693,4.9693,4.9693,4.9693,4.9693,4.9693,4.9693,4.9693,4.9664,4.9596,4.9189,4.8782,4.8835,4.8453,4.8097,4.8003,4.8571,4.8832,4.803,4.9163,4.983,4.8656,4.8828,4.8738,4.7638,4.7369,4.7309,4.7309,4.7331,4.746,4.7688,4.807,4.8322,4.8364,4.8531,4.8583,4.8583,4.8583,4.8583,4.8583,4.8583,4.8583,4.8583,4.8583,4.8583,4.8583,4.8789,4.8851,4.8789,4.8851,4.9182,4.9675,4.9692,5.0089,5.0666,5.0647,5.0864,5.1218,5.1348,5.138,5.1413,5.1672,5.2398,5.3414,3.7413,3.935,4.1,4.1172,4.1201,4.1201,4.1201,4.1201,4.1369,4.1827,4.1947,4.2538,4.4002,4.6311,4.8534,5.0488,4.97,4.9614,5.0823,5.0348,5.0544,5.1759,5.1787,5.1477,5.0802,5.0774,4.9902,4.8108,4.8108,4.8108,4.8108,4.8108,4.8108,4.8108,4.8108,4.8108,4.8108,4.8108,4.8108,4.8134,4.8358,4.8635,4.8884,4.9132,4.9428,4.9644,4.9669,4.9693,4.9693,4.9693,4.9693,4.9693,4.9693,4.9693,4.9693,4.9693,4.9693,4.9693,4.9693,4.9693,4.9625,4.926,4.9126,4.9115,4.9328,4.8711,4.8003,4.7652,4.8745,4.9367,4.8119,4.9163,4.9979,4.9277,4.8738,4.8379,4.8199,4.7668,4.7309,4.7309,4.746,4.773,4.8175,4.8281,4.8355,4.8542,4.8563,4.8583,4.8583,4.8583,4.8583,4.8583,4.8583,4.8583,4.8583,4.8583,4.8583,4.8614,4.9616,4.9874,4.9549,4.9895,5.0435,5.1142,5.1251,5.1354,5.1428,5.1217,5.1129,5.1251,5.1847,5.2041,5.2203,5.3499,5.3673,5.3479,3.8238,3.9908,4.1201,4.1201,4.1201,4.1201,4.1201,4.1201,4.1394,4.1923,4.226,4.3103,4.4819,4.7143,4.9217,5.0767,5.0096,5.0096,5.1321,5.085,5.0906,5.1759,5.1787,5.1533,5.0914,5.0886,5.0324,4.9145,4.8783,4.8614,4.8614,4.8249,4.8108,4.8108,4.8108,4.8108,4.8108,4.8108,4.8182,4.8333,4.8431,4.8731,4.9132,4.9256,4.9477,4.9693,4.9693,4.9693,4.9693,4.9693,4.9693,4.9693,4.9693,4.9693,4.9693,4.9693,4.9693,4.9693,4.9693,4.9558,4.9416,4.9594,4.921,4.8933,4.9573,4.9107,4.8594,4.8798,4.9509,4.9878,4.9282,5.006,5.0428,4.9456,4.9037,4.8588,4.7848,4.7597,4.7516,4.7666,4.7858,4.8222,4.88,4.8621,4.8685,4.9189,4.885,4.8583,4.8583,4.8583,4.8583,4.8583,4.8583,4.8583,4.8583,4.8583,4.8913,4.9564,5.0082,5.0217,5.005,5.0881,5.1578,5.2098,5.1762,5.1718,5.1888,5.1402,5.1218,5.1283,5.1944,5.2203,5.2333,5.3402,5.3576,5.3447]}]]